[[{"header":{"parameterUnit":"m.s-1","parameterCategory":1,"la1":30.6,"la2":29.2853,"lo1":-89.7004,"lo2":-87.6739,"dy":0.0162,"dx":0.0183,"nx":112,"ny":82,"refTime":"2023-07-14T00:00:00:Z","depth":0,"parameterNumber":2,"parameterNumberName":"U-component_of_WINDS"},"data":[0.0,0.0,0.0,0.0,0.0,0.0,0.0,0.0,0.0,0.0,0.0,0.0,0.0,0.0,0.0,0.0,0.0,0.0,0.0,0.0,0.0,0.0,0.0,0.0,0.0,0.0,0.0,0.0,0.0,0.0,0.0,0.0,0.0,0.0,0.0,0.0,0.0,0.0,0.0,0.0,0.0,0.0,0.0,0.0,0.0,0.0,0.0,0.0,0.0,0.0,0.0,0.0,0.0,0.0,0.0,0.0,0.0,0.0,0.0,0.0,0.0,0.0,0.0,0.0,0.0,0.0,0.0,0.0,0.0,0.0,0.0,0.0,0.0,0.0,0.0,0.0,0.0,0.0,0.0,0.0,0.0,0.0,0.0,0.0,0.0,0.0,0.0,0.0,0.0,0.0,2.0138,1.9312,1.8055,1.705,1.6532,1.4588,1.3221,1.2875,0.0,0.0,0.0,0.0,0.0,0.0,0.0,0.0,0.0,0.0,0.0,0.0,0.0,0.0,0.0,0.0,0.0,0.0,0.0,0.0,0.0,0.0,0.0,0.0,0.0,0.0,0.0,0.0,0.0,0.0,0.0,0.0,0.0,0.0,0.0,0.0,0.0,0.0,0.0,0.0,0.0,0.0,0.0,0.0,0.0,0.0,0.0,0.0,0.0,0.0,0.0,0.0,0.0,0.0,0.0,0.0,0.0,0.0,0.0,0.0,0.0,0.0,0.0,0.0,0.0,0.0,0.0,0.0,0.0,0.0,0.0,0.0,0.0,0.0,0.0,0.0,0.0,0.0,0.0,0.0,0.0,0.0,0.0,0.0,0.0,0.0,0.0,0.0,0.0,0.0,0.0,0.0,0.0,0.0,0.0,0.0,0.0,0.0,0.0,0.0,0.0,0.0,0.0,0.0,1.7717,1.6023,1.5281,1.4332,1.291,1.2267,1.1377,1.011,0.0,0.0,0.0,0.0,0.0,0.0,0.0,0.0,0.0,0.0,0.0,0.0,0.0,0.0,0.0,0.0,0.0,0.0,0.0,0.0,0.0,0.0,0.0,0.0,0.0,0.0,0.0,0.0,0.0,0.0,0.0,0.0,0.0,0.0,0.0,0.0,0.0,0.0,0.0,0.0,0.0,0.0,0.0,0.0,0.0,0.0,0.0,0.0,0.0,0.0,0.0,0.0,0.0,0.0,0.0,0.0,0.0,0.0,0.0,0.0,0.0,0.0,0.0,0.0,0.0,0.0,0.0,0.0,0.0,0.0,0.0,0.0,0.0,0.0,0.0,0.0,0.0,0.0,0.0,0.0,0.0,0.0,0.0,0.0,0.0,0.0,0.0,0.0,0.0,0.0,0.0,0.0,0.0,0.0,0.0,0.0,0.0,0.0,0.0,0.0,0.0,0.0,0.0,1.6015,1.4998,1.3532,1.2741,1.185,1.0629,1.0003,0.9357,0.8528,0.8474,0.0,0.0,0.0,0.0,0.0,0.0,0.0,0.0,0.0,0.0,0.0,0.0,0.0,0.0,0.0,0.0,0.0,0.0,0.0,0.0,0.0,0.0,0.0,0.0,0.0,0.0,0.0,0.0,0.0,0.0,0.0,0.0,0.0,0.0,0.0,0.0,0.0,0.0,0.0,0.0,0.0,0.0,0.0,0.0,0.0,0.0,0.0,0.0,0.0,0.0,0.0,0.0,0.0,0.0,0.0,0.0,0.0,0.0,0.0,0.0,0.0,0.0,0.0,0.0,0.0,0.0,0.0,0.0,0.0,0.0,0.0,0.0,0.0,0.0,0.0,0.0,0.0,0.0,0.0,0.0,0.0,0.0,0.0,0.0,0.0,0.0,0.0,0.0,0.0,0.0,0.0,0.0,0.0,0.0,0.0,0.0,0.0,0.0,0.0,0.0,0.0,0.0,1.3274,1.2148,1.0921,1.0174,0.9348,0.8426,0.7833,0.7372,0.7126,0.6487,0.0,0.0,0.0,0.0,0.0,0.0,0.0,0.0,0.0,0.0,0.0,0.0,0.0,0.0,0.0,0.0,0.0,0.0,0.0,0.0,0.0,0.0,0.0,0.0,0.0,0.0,0.0,0.0,0.0,0.0,0.0,0.0,0.0,0.0,0.0,0.0,0.0,0.0,0.0,0.0,0.0,0.0,0.0,0.0,0.0,0.0,0.0,0.0,0.0,0.0,0.0,0.0,0.0,0.0,0.0,0.0,0.0,0.0,0.0,0.0,0.0,0.0,0.0,0.0,0.0,0.0,0.0,0.0,0.0,0.0,0.0,0.0,0.0,0.0,0.0,0.0,0.0,0.0,0.0,0.0,0.0,0.0,0.0,0.0,0.0,0.0,0.0,0.0,0.0,0.0,0.0,0.0,0.0,0.0,0.0,0.0,0.0,0.0,0.0,0.0,0.0,0.0,1.0441,0.9175,0.7748,0.7361,0.671,0.5688,0.5634,0.5583,0.5392,0.4927,0.0,0.0,0.0,0.0,0.0,0.0,0.0,0.0,0.0,0.0,0.0,0.0,0.0,0.0,0.0,0.0,0.0,0.0,0.0,0.0,0.0,0.0,0.0,0.0,0.0,0.0,0.0,0.0,0.0,0.0,0.0,0.0,0.0,0.0,0.0,0.0,0.0,0.0,0.0,0.0,0.0,0.0,0.0,0.0,0.0,0.0,0.0,0.0,0.0,0.0,0.0,0.0,0.0,0.0,0.0,0.0,0.0,0.0,0.0,0.0,0.0,0.0,0.0,0.0,0.0,0.0,0.0,0.0,0.0,0.0,0.0,0.0,0.0,0.0,0.0,0.0,0.0,0.0,0.0,0.0,0.0,0.0,0.0,0.0,0.0,0.0,0.0,0.0,0.0,0.0,0.0,0.0,0.0,0.0,0.0,0.0,0.0,0.0,0.0,0.0,0.0,0.0,0.7004,0.5826,0.4735,0.4409,0.4058,0.3544,0.3801,0.4017,0.4075,0.0,0.0,0.0,0.0,0.0,0.0,0.0,0.0,0.0,0.0,0.0,0.0,0.0,0.0,0.0,0.0,0.0,0.0,0.0,0.0,0.0,0.0,0.0,0.0,0.0,0.0,0.0,0.0,0.0,0.0,0.0,0.0,0.0,0.0,0.0,0.0,0.0,0.0,0.0,0.0,0.0,0.0,0.0,0.0,0.0,0.0,0.0,0.0,0.0,0.0,0.0,0.0,0.0,0.0,0.0,0.0,0.0,0.0,0.0,0.0,0.0,0.0,0.0,0.0,0.0,0.0,0.0,0.0,0.0,0.0,0.0,0.0,0.0,0.0,0.0,0.0,0.0,0.0,0.0,0.0,0.0,0.0,0.0,0.0,0.0,0.0,0.0,0.0,0.0,0.0,0.0,0.0,0.0,0.0,0.0,0.0,0.0,0.0,0.0,0.0,0.0,0.0,0.4625,0.3345,0.2329,0.1688,0.153,0.1533,0.1609,0.2125,0.2594,0.2834,0.0,0.0,0.0,0.0,0.0,0.0,0.0,0.0,0.0,0.0,0.0,0.0,0.0,0.0,0.0,0.0,0.0,0.0,0.0,0.0,0.0,0.0,0.0,0.0,0.0,0.0,0.0,0.0,0.0,0.0,0.0,0.0,0.0,0.0,0.0,0.0,0.0,0.0,0.0,0.0,0.0,0.0,0.0,0.0,0.0,0.0,0.0,0.0,0.0,0.0,0.0,0.0,0.0,0.0,0.0,0.0,0.0,0.0,0.0,0.0,0.0,0.0,0.0,0.0,0.0,0.0,0.0,0.0,0.0,0.0,0.0,0.0,0.0,0.0,0.0,0.0,0.0,0.0,0.0,0.0,0.0,0.0,0.0,0.0,0.0,0.0,0.0,0.0,0.0,0.0,0.0,0.0,0.0,0.0,0.0,0.0,0.0,0.0,0.0,0.0,0.0,0.0,0.0482,-0.0545,-0.1229,-0.1449,-0.1243,-0.0843,-0.0197,0.0622,0.1231,0.0,0.0,0.0,0.0,0.0,0.0,0.0,0.0,0.0,0.0,0.0,0.0,0.0,0.0,0.0,0.0,0.0,0.0,0.0,0.0,0.0,0.0,0.0,0.0,0.0,0.0,0.0,0.0,0.0,0.0,0.0,0.0,0.0,0.0,0.0,0.0,0.0,0.0,0.0,0.0,0.0,0.0,0.0,0.0,0.0,0.0,0.0,0.0,0.0,0.0,0.0,0.0,0.0,0.0,0.0,0.0,0.0,0.0,0.0,0.0,0.0,0.0,0.0,0.0,0.0,0.0,0.0,0.0,0.0,0.0,0.0,0.0,0.0,0.0,0.0,0.0,0.0,0.0,0.0,0.0,0.0,0.0,0.0,0.0,0.0,0.0,0.0,0.0,0.0,0.0,0.0,0.0,0.0,0.0,0.0,0.0,0.0,0.0,0.0,0.0,0.0,0.0,0.0,-0.3164,-0.47,-0.5255,-0.4186,-0.3719,-0.3116,-0.2142,-0.1147,-0.0303,0.039,0.0,0.0,0.0,0.0,0.0,0.0,0.0,0.0,0.0,0.0,0.0,0.0,0.0,0.0,0.0,0.0,0.0,0.0,0.0,0.0,0.0,0.0,0.0,0.0,0.0,0.0,0.0,0.0,0.0,0.0,0.0,0.0,0.0,0.0,0.0,0.0,0.0,0.0,0.0,0.0,0.0,0.0,0.0,0.0,0.0,0.0,0.0,0.0,0.0,0.0,0.0,0.0,0.0,0.0,0.0,0.0,0.0,0.0,0.0,0.0,0.0,0.0,0.0,0.0,0.0,0.0,0.0,0.0,0.0,0.0,0.0,0.0,0.0,0.0,0.0,0.0,0.0,0.0,0.0,0.0,0.0,0.0,0.0,0.0,0.0,0.0,0.0,0.0,0.0,0.0,0.0,0.0,0.0,0.0,0.0,0.0,0.0,0.0,0.0,0.0,0.0,0.0,-0.6587,-0.7753,-0.7926,-0.6508,-0.5876,-0.5014,-0.3731,-0.2629,-0.1598,-0.0761,0.0,0.0,0.0,0.0,0.0,0.0,0.0,0.0,0.0,0.0,0.0,0.0,0.0,0.0,0.0,0.0,0.0,0.0,0.0,0.0,0.0,0.0,0.0,0.0,0.0,0.0,0.0,0.0,0.0,0.0,0.0,0.0,0.0,0.0,0.0,0.0,0.0,0.0,0.0,0.0,0.0,0.0,0.0,0.0,0.0,0.0,0.0,0.0,0.0,0.0,0.0,0.0,0.0,0.0,0.0,0.0,0.0,0.0,0.0,0.0,0.0,0.0,0.0,0.0,0.0,0.0,0.0,0.0,0.0,0.0,0.0,0.0,0.0,0.0,0.0,0.0,0.0,0.0,0.0,0.0,0.0,0.0,0.0,0.0,0.0,0.0,0.0,0.0,0.0,0.0,0.0,0.0,0.0,0.0,0.0,0.0,0.0,0.0,0.0,0.0,0.0,0.0,-0.9663,-0.9921,-0.9535,-0.8388,-0.7635,-0.6572,-0.5004,-0.3786,-0.2741,-0.1786,0.0,0.0,0.0,0.0,0.0,0.0,0.0,0.0,0.0,0.0,0.0,0.0,0.0,0.0,0.0,0.0,0.0,0.0,0.0,0.0,0.0,0.0,0.0,0.0,0.0,0.0,0.0,0.0,0.0,0.0,0.0,0.0,0.0,0.0,0.0,0.0,0.0,0.0,0.0,0.0,0.0,0.0,0.0,0.0,0.0,0.0,0.0,0.0,0.0,0.0,0.0,0.0,0.0,0.0,0.0,0.0,0.0,0.0,0.0,0.0,-0.6659,-0.5518,0.0,0.0,0.0,0.0,0.0,0.0,0.0,0.0,0.0,0.0,0.0,0.0,0.0,0.0,0.0,0.0,0.0,0.0,0.0,0.0,0.0,0.0,0.0,0.0,0.0,0.0,0.0,0.0,0.0,0.0,0.0,0.0,0.0,0.0,0.0,0.0,0.0,0.0,0.0,0.0,-1.1983,-1.1652,-1.0913,-0.9873,-0.8708,-0.7524,-0.6223,-0.4858,-0.3703,-0.2753,-0.1796,0.0,0.0,0.0,0.0,0.0,0.0,0.0,0.0,0.0,0.0,0.0,0.0,0.0,0.0,0.0,0.0,0.0,0.0,0.0,0.0,0.0,0.0,0.0,0.0,0.0,0.0,0.0,0.0,0.0,0.0,0.0,0.0,0.0,0.0,0.0,0.0,0.0,0.0,0.0,0.0,0.0,0.0,0.0,0.0,0.0,0.0,0.0,0.0,0.0,0.0,0.0,0.0,0.0,0.0,0.0,0.0,0.0,0.0,0.0,-0.9537,-0.8226,0.0,0.0,0.0,0.0,0.0,0.0,0.0,0.0,0.0,0.0,0.0,0.0,0.0,0.0,0.0,0.0,0.0,0.0,0.0,0.0,0.0,0.0,0.0,0.0,0.0,0.0,0.0,0.0,0.0,0.0,0.0,0.0,0.0,0.0,0.0,0.0,0.0,0.0,0.0,0.0,-1.3394,-1.2884,-1.2039,-1.073,-0.9606,-0.8485,-0.7224,-0.5951,-0.487,-0.3995,-0.3032,0.0,0.0,0.0,0.0,0.0,0.0,0.0,0.0,0.0,0.0,0.0,0.0,0.0,0.0,0.0,0.0,0.0,0.0,0.0,0.0,0.0,0.0,0.0,0.0,0.0,0.0,0.0,0.0,0.0,0.0,0.0,0.0,0.0,0.0,0.0,0.0,0.0,0.0,0.0,0.0,0.0,0.0,0.0,0.0,0.0,0.0,0.0,0.0,0.0,0.0,0.0,0.0,0.0,-1.3542,-1.4016,-1.4202,-1.4252,-1.4273,-1.4166,-1.2408,-1.1184,-1.0448,-1.0234,0.0,0.0,0.0,0.0,0.0,0.0,0.0,0.0,0.0,0.0,0.0,0.0,0.0,0.0,0.0,0.0,0.0,0.0,0.0,0.0,0.0,0.0,-1.3416,-1.4098,-1.4749,-1.4672,-1.2508,0.0,0.0,0.0,0.0,0.0,0.0,0.0,0.0,0.0,0.0,0.0,-1.4316,-1.3727,-1.2754,-1.1297,-1.0275,-0.9274,-0.8062,-0.6928,-0.5967,-0.5241,-0.4359,-0.3601,0.0,0.0,0.0,0.0,0.0,0.0,0.0,0.0,0.0,0.0,0.0,0.0,0.0,0.0,0.0,0.0,0.0,0.0,0.0,0.0,0.0,0.0,0.0,0.0,0.0,0.0,0.0,0.0,0.0,0.0,0.0,0.0,0.4273,0.3803,0.0,0.0,0.0,0.0,0.0,0.0,0.0,0.0,0.0,0.0,0.0,0.0,0.0,-1.171,-1.2729,-1.387,-1.452,-1.4826,-1.5709,-1.6197,-1.6213,-1.6436,-1.6571,-1.6563,-1.5901,0.0,-1.2824,-1.2824,0.0,0.0,0.0,0.0,0.0,0.0,0.0,0.0,0.0,0.0,0.0,0.0,0.0,0.0,0.0,0.0,0.0,0.0,0.0,0.0,0.0,0.0,-1.539,-1.6042,-1.6637,-1.7057,-1.7308,-1.6205,-1.5367,-1.6137,-1.5935,-1.5603,0.0,0.0,0.0,0.0,0.0,0.0,-1.5054,-1.3841,-1.2608,-1.1732,-1.0587,-0.9506,-0.8675,-0.7661,-0.6756,-0.6006,-0.5258,-0.4593,-0.4105,-0.3953,0.0,0.0,0.0,0.0,0.0,0.0,0.0,0.0,0.0,0.0,0.0,0.0,0.0,0.0,0.0,0.0,0.0,0.0,0.0,0.0,0.0,0.0,0.0,0.0,0.0,0.0,0.0,0.0,0.0,0.3985,0.3704,0.2845,0.2315,0.1598,0.0,0.0,0.0,0.0,0.0,0.0,0.0,0.0,0.0,-1.1471,-1.288,-1.4114,-1.501,-1.5926,-1.6501,-1.6801,-1.7451,-1.7766,-1.7775,-1.7785,-1.7781,-1.7781,-1.7294,-1.6613,-1.5736,-1.4765,-1.436,-1.4194,0.0,0.0,0.0,0.0,-1.3775,-1.3682,-1.4223,-1.4399,-1.426,-1.4114,0.0,0.0,0.0,0.0,0.0,0.0,0.0,-1.4555,-1.4958,-1.5783,-1.6692,-1.736,-1.7962,-1.8492,-1.921,-1.8822,-1.8232,-1.7889,-1.8012,-1.7909,-1.7264,-1.7248,0.0,0.0,0.0,-1.5938,-1.5159,-1.4217,-1.3108,-1.1801,-1.0828,-0.9981,-0.9199,-0.8367,-0.7598,-0.6943,-0.6297,-0.585,-0.5618,-0.5427,-0.5405,0.0,0.0,0.0,0.0,0.0,0.0,0.0,0.0,0.0,0.0,0.0,0.0,0.0,0.0,0.0,0.0,0.0,0.0,0.0,0.0,0.0,0.0,0.0,0.0,0.0,0.0,0.0,0.0,0.3014,0.2683,0.1623,0.0635,-0.0284,0.0,0.0,0.0,0.0,0.0,0.0,-0.9447,-1.1236,-1.2694,-1.3851,-1.5173,-1.6304,-1.7095,-1.7811,-1.8347,-1.8556,-1.8968,-1.9083,-1.8904,-1.8754,-1.8594,-1.8514,-1.8112,-1.7861,-1.7755,-1.6364,-1.572,-1.5489,-1.5316,-1.5238,-1.5238,-1.5151,-1.4963,-1.4776,-1.5441,-1.5645,-1.563,-1.5544,-1.5335,-1.4965,-1.4462,0.0,0.0,0.0,0.0,-1.5643,-1.5907,-1.667,-1.7451,-1.8134,-1.8731,-1.9264,-1.9977,-2.0344,-2.0292,-1.9262,-1.9474,-1.9497,-1.8571,-1.8403,0.0,-1.7681,-1.7227,-1.6462,-1.5068,-1.4325,-1.3376,-1.1815,-1.1019,-1.0341,-0.9637,-0.8926,-0.8283,-0.7648,-0.7257,-0.6974,-0.6826,-0.6722,-0.6778,-0.6927,0.0,0.0,0.0,0.0,0.0,0.0,0.0,0.0,0.0,0.0,0.0,0.0,0.0,0.0,0.0,0.0,0.0,0.0,0.0,0.0,0.0,0.0,0.0,0.0,0.0,0.0,0.0,0.0,0.0,-0.0,-0.1015,0.0,0.0,0.0,0.0,-0.692,-0.8709,-1.0375,-1.1723,-1.3397,-1.4892,-1.6118,-1.7181,-1.8189,-1.9115,-1.9788,-2.0205,-2.0233,-2.0386,-2.017,-1.9557,-1.939,-1.9143,-1.8922,-1.8523,-1.8362,-1.8273,-1.7619,-1.7277,-1.7253,-1.7261,-1.7253,-1.7253,-1.7001,-1.6911,-1.6911,-1.6683,-1.6601,-1.6553,-1.6293,-1.596,-1.5674,-1.5634,-1.5589,0.0,0.0,-1.5939,-1.6315,-1.6515,-1.7019,-1.7598,-1.8134,-1.8731,-1.9264,-1.9977,-2.059,-2.0966,-2.0625,-2.0192,-1.9864,-1.9716,0.0,-1.8336,-1.8183,-1.7081,-1.5943,-1.503,-1.3946,-1.289,-1.1904,-1.1132,-1.0447,-0.9815,-0.9288,-0.8683,-0.8021,-0.7939,-0.7804,-0.7468,-0.7649,-0.7837,-0.8123,-0.813,0.0,0.0,0.0,0.0,0.0,0.0,0.0,0.0,0.0,0.0,0.0,0.0,0.0,0.0,0.0,0.0,0.0,0.0,0.0,0.0,0.0,0.0,0.0,0.0,0.0,0.0,0.0,0.0,-0.1416,-0.283,0.0,-0.4629,-0.6138,-0.7647,-0.8939,-1.0399,-1.1954,-1.3662,-1.5076,-1.6237,-1.7161,-1.8215,-1.8991,-1.9281,-1.993,-2.0337,-2.0337,-2.0169,-2.0014,-1.9794,-1.946,-1.9222,-1.9002,-1.8692,-1.8523,-1.8362,-1.7789,-1.7619,-1.7546,-1.7473,-1.731,-1.7221,-1.7147,-1.7057,-1.6812,-1.673,-1.673,-1.6714,-1.6587,-1.6309,-1.6015,-1.618,-1.6086,-1.5904,-1.5897,-1.6096,-1.6366,-1.6535,-1.683,-1.7254,-1.794,-1.8395,-1.8921,-1.9594,-2.0302,-2.0751,-2.0663,-2.0706,-2.0589,-2.0105,-1.9193,-1.8448,-1.807,-1.717,-1.6087,-1.486,-1.4147,-1.3151,-1.1752,-1.1057,-1.0447,-0.9843,-0.9485,-0.9089,-0.8563,-0.8543,-0.8543,-0.8406,-0.8435,-0.8586,-0.8837,-0.9246,-0.9671,0.0,0.0,0.0,0.0,0.0,0.0,0.0,0.0,0.0,0.0,0.0,0.0,0.0,0.0,0.0,0.0,0.0,0.0,0.0,0.0,0.0,0.0,0.0,0.0,0.0,-0.1374,-0.2247,-0.2787,-0.433,-0.5499,-0.6143,-0.7271,-0.8694,-1.0456,-1.1809,-1.3243,-1.5042,-1.6301,-1.7288,-1.8023,-1.8904,-1.9454,-1.9672,-2.0159,-2.0397,-2.0397,-2.0239,-2.0004,-1.9784,-1.946,-1.9222,-1.9002,-1.8692,-1.8442,-1.8282,-1.7861,-1.7619,-1.7627,-1.7473,-1.731,-1.7221,-1.7147,-1.7066,-1.6812,-1.673,-1.673,-1.6648,-1.6648,-1.649,-1.6381,-1.6469,-1.622,-1.6024,-1.6013,-1.606,-1.6168,-1.6334,-1.6621,-1.7047,-1.7588,-1.8056,-1.8654,-1.9274,-1.9922,-2.0362,-2.0357,-2.0735,-2.0847,-2.0263,-1.9395,-1.8597,-1.8035,-1.7283,-1.6255,-1.4866,-1.4286,-1.3403,-1.179,-1.125,-1.0685,-0.9907,-0.9726,-0.9418,-0.8967,-0.8982,-0.903,-0.899,-0.9048,-0.9204,-0.9517,-1.0269,-1.0722,-1.0834,0.0,0.0,0.0,0.0,0.0,0.0,0.0,0.0,0.0,0.0,0.0,0.0,0.0,0.0,0.0,0.0,0.0,0.0,0.0,0.0,0.0,0.0,0.0,-0.1491,-0.2964,-0.4146,-0.4221,-0.5422,-0.6562,-0.7488,-0.8613,-1.0003,-1.1504,-1.287,-1.4352,-1.5967,-1.7105,-1.8031,-1.87,-1.925,-1.9832,-2.0233,-2.0476,-2.0557,-2.0557,-2.0548,-2.0179,-1.9557,-1.939,-1.9143,-1.8922,-1.8603,-1.8282,-1.7951,-1.7781,-1.7546,-1.7392,-1.7392,-1.7392,-1.7392,-1.7139,-1.7057,-1.7049,-1.673,-1.6656,-1.6648,-1.6484,-1.6558,-1.6632,-1.646,-1.623,-1.5996,-1.598,-1.5864,-1.5743,-1.5805,-1.6351,-1.6899,-1.7097,-1.7716,-1.8405,-1.8931,-1.9462,-1.9836,-1.9861,-2.0251,-2.054,-2.0208,-1.949,-1.8734,-1.8064,-1.739,0.0,-1.495,-1.4307,-1.3452,-1.205,-1.1659,-1.1103,-1.0085,-0.9932,-0.9698,-0.9229,-0.9275,-0.9274,-0.919,-0.9475,-0.979,-1.0126,-1.1103,-1.1799,-1.211,0.0,0.0,0.0,0.0,0.0,0.0,0.0,0.0,0.0,0.0,0.0,0.0,0.0,0.0,0.0,0.0,0.0,0.0,0.0,0.0,0.0,-0.2333,-0.2791,-0.2988,-0.3609,-0.4405,-0.5232,-0.6202,-0.7315,-0.8447,-0.9392,-1.069,-1.2478,-1.3526,-1.4756,-1.6393,-1.7236,-1.7942,-1.8442,-1.8922,-1.9295,-1.9556,-1.9804,-1.9893,-1.9893,-1.9715,-1.9491,-1.9161,-1.8931,-1.8772,-1.8523,-1.8282,-1.7951,-1.7781,-1.7375,-1.7139,-1.6902,-1.7229,-1.731,-1.7237,-1.6894,-1.6558,-1.6229,-1.6245,-1.6252,-1.6252,-1.6162,-1.6083,-1.5875,-1.5875,-1.5574,-1.5335,-1.5396,-1.5412,-1.5414,-1.5572,-1.5859,-1.6149,-1.6482,-1.7028,-1.7647,-1.8182,-1.8446,-1.8699,-1.9104,-1.8961,-1.892,-1.9527,-1.8955,-1.8176,-1.7521,-1.6753,-1.5764,-1.4389,-1.3784,-1.3029,-1.1822,-1.131,-1.0811,-1.0126,-0.99,-0.9675,-0.9305,-0.9314,-0.9343,-0.9195,-0.9493,-1.0014,-1.0792,-1.1337,-1.1856,0.0,0.0,0.0,0.0,0.0,0.0,0.0,0.0,0.0,0.0,0.0,0.0,0.0,0.0,0.0,0.0,0.0,0.0,0.0,0.0,0.0,0.0,-0.2916,-0.3396,-0.3938,-0.4391,-0.5014,-0.5945,-0.6894,-0.7897,-0.9015,-0.9745,-1.0953,-1.2666,-1.3574,-1.48,-1.637,-1.7057,-1.7619,-1.8103,-1.8514,-1.8834,-1.8904,-1.9082,-1.925,-1.925,-1.9082,-1.8913,-1.8763,-1.8523,-1.8282,-1.8103,-1.7789,-1.7465,-1.7294,-1.6968,-1.6648,-1.6492,0.0,0.0,0.0,0.0,-1.6245,-1.5989,-1.5914,-1.5914,-1.5891,-1.5591,-1.5412,-1.5305,-1.5098,-1.49,-1.4744,-1.478,-1.4848,-1.4911,-1.5056,-1.5363,-1.5647,-1.6,-1.6482,-1.6913,-1.735,-1.7566,-1.7735,-1.7885,-1.7751,0.0,-1.8137,-1.8124,-1.7687,-1.6754,-1.6189,-1.5307,-1.393,-1.3299,-1.2609,-1.154,-1.1112,-1.0587,-0.9864,-0.9686,0.0,0.0,0.0,-0.9162,-0.9293,-0.9715,0.0,0.0,0.0,-1.2112,-1.2962,-1.3572,0.0,0.0,-1.5104,-1.5807,0.0,0.0,0.0,0.0,0.0,0.0,0.0,0.0,0.0,0.0,0.0,0.0,0.0,0.0,0.0,0.0,-0.3008,-0.3571,-0.4444,-0.5048,-0.5648,-0.6405,-0.7366,-0.8264,-0.9192,-0.9925,-1.0906,-1.2422,-1.3378,-1.454,-1.5966,-1.6656,0.0,0.0,0.0,-1.8193,-1.8273,-1.8451,-1.854,-1.854,-1.8612,-1.8451,-1.8273,-1.8031,-1.7789,-1.7538,-1.7131,-1.6812,-1.6566,-1.6394,-1.6162,-1.6012,-1.6237,-1.6154,-1.6004,-1.5914,-1.5914,-1.5914,-1.565,0.0,0.0,-1.4784,-1.4721,-1.4765,-1.4252,-1.4096,-1.4126,-1.4201,-1.422,-1.4281,-1.4497,-1.4776,-1.5204,-1.5584,-1.5929,-1.6235,-1.6386,-1.6656,-1.6783,-1.6516,-1.6677,-1.676,-1.6472,-1.7067,-1.7136,-1.5949,-1.5558,-1.494,-1.3496,-1.2793,-1.2078,-1.1193,-1.0838,0.0,-0.941,-0.9292,-0.9166,-0.895,-0.8831,-0.8923,-0.9375,-0.9951,-1.049,-1.1008,-1.1468,-1.2281,-1.3324,-1.3893,-1.4589,-1.5444,-1.5939,-1.6587,0.0,0.0,0.0,0.0,0.0,0.0,0.0,0.0,0.0,0.0,0.0,0.0,0.0,0.0,0.0,-0.2502,-0.3077,-0.3831,-0.4543,-0.5073,-0.5742,-0.6672,-0.7621,-0.8436,-0.9197,-1.0223,-1.1169,-1.2276,-1.34,-1.443,-1.5462,-1.5997,-1.6492,-1.6894,-1.6976,-1.7131,-1.7286,-1.7546,-1.7635,-1.7635,-1.7789,0.0,-1.7375,-1.7302,-1.7139,-1.6894,-1.6492,-1.6252,-1.617,-1.5733,-1.5597,-1.5558,-1.5567,-1.547,-1.5249,-1.4956,-1.488,-1.4992,-1.4901,-1.4738,-1.4526,-1.4381,-1.4029,-1.3683,-1.3627,-1.3386,0.0,-1.3359,-1.3389,-1.3492,-1.3855,-1.4137,-1.4418,-1.4713,-1.5133,-1.5387,-1.5428,-1.5499,-1.5459,-1.5405,-1.5292,-1.5155,-1.5196,-1.6104,-1.6493,-1.5597,-1.4928,-1.4073,-1.2898,-1.2022,-1.124,-1.0622,-1.0128,-0.9636,-0.9106,-0.8626,-0.8337,-0.8355,-0.8405,-0.8768,-0.9348,-0.9643,-1.005,-1.0656,-1.1149,-1.184,-1.2763,-1.3557,-1.4305,-1.5018,-1.6067,-1.7005,0.0,0.0,0.0,0.0,0.0,0.0,0.0,0.0,0.0,0.0,0.0,-0.0823,-0.1277,0.0,-0.2006,-0.2469,-0.2939,-0.3585,-0.4391,-0.4837,-0.5505,-0.6589,-0.7373,-0.8033,-0.8797,-0.964,-1.0521,-1.1558,-1.2563,-1.3583,-1.4531,-1.5068,-1.5575,-1.5906,-1.6072,-1.6229,-1.6386,-1.664,-1.6722,-1.6722,-1.6878,-1.6714,-1.6394,-1.6394,-1.6229,-1.6064,-1.5575,-1.5409,-1.5333,-1.4817,-1.4503,-1.4355,-1.4223,-1.4384,-1.4566,-1.4378,-1.4378,-1.4398,-1.4237,-1.4142,-1.3966,-1.3595,-1.322,-1.2919,-1.2612,-1.2499,-1.2452,-1.2599,-1.2673,-1.2826,-1.3119,-1.3339,-1.3622,-1.3977,-1.4338,-1.4624,-1.4359,-1.4372,-1.4396,-1.4206,-1.4065,-1.3983,-1.4043,-1.4382,-1.4646,-1.4534,-1.3951,-1.3112,-1.2007,-1.1142,-1.0385,-0.9788,-0.9254,-0.8707,-0.8193,-0.7689,-0.7467,-0.7544,-0.7714,-0.8143,-0.8701,-0.9021,-0.9529,-1.0168,-1.0674,-1.1468,-1.2608,-1.3306,-1.4193,-1.5228,-1.6268,-1.7103,0.0,0.0,0.0,0.0,0.0,0.0,0.0,0.0782,0.024,0.0164,0.0084,-0.0256,-0.0959,-0.1313,-0.1583,-0.2149,-0.2601,-0.3136,-0.3941,-0.4302,-0.4886,-0.6076,-0.6814,-0.7506,-0.8218,-0.8871,-0.9682,-1.0665,-1.1569,-1.2475,-1.3269,-1.3971,-1.4405,-1.4664,-1.5075,-1.5235,-1.5235,-1.547,-1.5628,-1.5628,-1.5636,-1.5553,-1.5311,-1.5311,-1.5228,-1.4977,-1.4559,-1.4314,-1.423,-1.3639,-1.3222,-1.3052,-1.2875,-1.3033,-1.3451,-1.3711,-1.3802,-1.3802,-1.3561,-1.3438,-1.3226,-1.265,-1.2368,-1.2145,-1.164,-1.1632,-1.1781,-1.1781,-1.1929,-1.2077,-1.2305,-1.2526,-1.2746,-1.3098,-1.3462,-1.3652,-1.3247,-1.3302,-1.337,-1.298,-1.2895,-1.2887,-1.2818,-1.2512,-1.2538,-1.32,-1.2789,-1.2051,-1.0905,-1.0121,-0.9395,-0.8703,-0.8181,-0.7532,-0.6873,-0.6556,-0.6462,-0.6587,-0.6835,-0.7259,-0.7829,-0.827,-0.8818,-0.9454,-0.997,-1.0958,-1.2362,-1.2908,-1.395,-1.53,-1.6393,-1.7128,0.3439,0.3183,0.2789,0.226,0.218,0.2089,0.0,0.1395,0.1091,0.0687,0.0259,-0.0,-0.0178,-0.0805,-0.1431,-0.1524,-0.2063,-0.2691,-0.3227,-0.3587,-0.4003,-0.4872,-0.6129,-0.708,-0.7671,-0.8708,-0.9401,-0.9755,-1.081,-1.1552,-1.1929,-1.2528,-1.3045,-1.3215,-1.347,-1.3646,-1.3646,-1.388,-1.3957,-1.3957,-1.4126,-1.4126,-1.3957,-1.3957,-1.3795,-1.3561,-1.313,-1.279,-1.2619,-1.2357,-1.2106,-1.1935,-1.1849,-1.1397,-1.0945,-1.2345,-1.2875,-1.2875,-1.279,-1.2463,-1.2052,-1.1774,-1.1356,-1.095,-1.0674,-1.0738,-1.0962,-1.0962,-1.1111,-1.126,-1.1484,-1.1558,-1.1706,-1.2077,-1.2372,-1.2356,-1.1964,-1.2173,-1.2188,-1.1614,-1.1531,-1.1454,-1.1267,-1.0892,-1.0947,-1.202,-1.139,-1.0474,-0.9793,-0.8717,-0.787,-0.7354,-0.663,-0.5912,-0.52,-0.533,-0.5472,-0.5472,-0.5819,-0.6298,-0.682,-0.7167,-0.7707,-0.8361,-0.9075,-1.0046,-1.1334,-1.2226,-1.3317,-1.4497,-1.603,-1.7136,0.4265,0.398,0.355,0.3392,0.3087,0.2841,0.2679,0.2255,0.1804,0.1474,0.1054,0.0799,0.0627,0.009,-0.0448,-0.1076,-0.1436,-0.1794,-0.2511,-0.2781,-0.3129,-0.3629,-0.4412,-0.5391,-0.6466,-0.7414,-0.8013,-0.8344,-0.9293,-1.0019,-1.0193,-1.1063,-1.1499,-1.158,-1.2015,-1.2186,-1.2186,-1.2437,-1.2522,-1.2522,-1.2607,-1.2607,-1.2522,-1.2345,-1.218,-1.2015,-1.1671,-1.1327,-1.1154,-1.1084,-1.0819,-1.0539,-1.0458,-1.0106,-0.9831,-1.123,-1.1585,-1.1499,-1.1499,-1.1256,-1.1012,-1.0778,-1.046,-1.0146,-0.9905,-0.983,-0.9906,-0.9906,-0.9976,-1.0051,-1.0126,-1.0276,-1.0426,-1.0571,-1.0875,-1.0948,-1.0493,-1.0579,-1.0621,-1.0059,-0.9882,-0.9685,-0.9418,-0.8977,-0.8645,-0.8751,-0.9052,-0.9062,-0.8244,-0.7269,-0.6472,-0.593,-0.5353,-0.491,-0.4858,-0.4776,-0.454,-0.4074,-0.4251,-0.4607,-0.5266,-0.5727,-0.6322,-0.6981,-0.7767,-0.8848,-1.0297,-1.1054,-1.2207,-1.3492,-1.4903,-1.598,0.524,0.4849,0.4457,0.438,0.4004,0.3687,0.3604,0.314,0.263,0.2366,0.2042,0.1615,0.1345,0.1076,0.0628,-0.0269,-0.0448,-0.0718,-0.1615,-0.1794,-0.2063,-0.2599,-0.2882,-0.3657,-0.4925,-0.5898,-0.6551,-0.7021,-0.783,-0.8363,-0.8589,-0.9389,-0.9925,-0.9925,-1.0309,-1.0537,-1.0537,-1.0748,-1.0804,-1.0804,-1.0804,-1.0804,-1.0804,-1.0631,-1.0458,-1.0284,-1.0028,-0.985,-0.9589,-0.9791,-0.9519,-0.8877,-0.8886,-0.8711,-0.8619,-0.9492,-1.0019,-1.0197,-1.0111,-0.9971,-0.976,-0.9461,-0.9176,-0.8968,-0.8679,-0.8689,-0.8689,-0.8689,-0.8761,-0.8836,-0.8836,-0.8912,-0.8988,-0.8988,-0.9286,-0.9404,-0.8944,-0.8946,-0.8923,-0.8448,-0.8122,-0.7817,-0.7483,-0.7107,-0.6584,-0.565,-0.6229,-0.6616,-0.6367,-0.538,-0.4463,-0.3816,-0.3487,-0.3286,-0.3489,-0.3286,-0.2882,-0.241,-0.241,-0.2743,-0.3473,-0.4071,-0.4668,-0.5394,-0.6304,-0.7495,-0.8894,-0.9735,-1.0855,-1.2238,-1.3586,-1.4499,0.6244,0.5854,0.5467,0.5082,0.4781,0.4613,0.4358,0.3905,0.3583,0.3583,0.296,0.2244,0.1974,0.2064,0.1885,0.1076,0.0897,0.0628,-0.0359,-0.0448,-0.0807,-0.1794,-0.1919,-0.2217,-0.295,-0.4244,-0.5307,-0.5882,-0.6436,-0.6765,-0.7092,-0.7743,-0.8203,-0.8203,-0.8603,-0.8787,-0.8787,-0.8625,-0.8632,-0.8632,-0.8632,-0.8632,-0.8632,-0.8632,-0.8544,-0.8544,-0.8372,-0.8105,-0.7921,-0.8392,-0.8032,-0.721,-0.721,-0.7037,-0.6864,-0.6956,-0.7918,-0.9235,-0.8978,-0.8767,-0.8412,-0.7895,-0.7554,-0.7228,-0.7064,-0.7092,-0.7238,-0.7238,-0.7391,-0.754,-0.754,-0.754,-0.7536,-0.7536,-0.7689,-0.7782,-0.752,-0.7334,-0.7219,-0.689,-0.6368,-0.5851,-0.5456,-0.5613,-0.5226,-0.354,-0.2737,-0.2737,-0.3936,-0.2871,-0.1672,-0.0737,-0.0603,-0.0469,-0.0201,-0.0134,-0.0201,-0.0402,-0.0536,-0.0804,-0.134,-0.2075,-0.2808,-0.3542,-0.4662,-0.5835,-0.7053,-0.8164,-0.9338,-1.0576,-1.2014,-1.2989,0.7399,0.6934,0.6626,0.6318,0.591,0.5535,0.5449,0.4947,0.4565,0.4565,0.3941,0.3315,0.305,0.2959,0.269,0.2063,0.1705,0.1525,0.1345,0.0987,0.0721,0.0457,-0.0092,-0.0558,-0.0848,-0.2809,-0.4021,-0.3955,-0.4518,-0.5,-0.5034,-0.569,-0.6156,-0.6156,-0.6584,-0.6842,-0.6842,-0.6888,-0.7005,-0.7005,-0.691,-0.6776,-0.6602,-0.6602,-0.6602,-0.6602,-0.6425,-0.6334,-0.6245,-0.6526,-0.6169,-0.5445,-0.4634,-0.4634,-0.5176,-0.5176,-0.544,-0.6057,-0.6949,-0.7121,-0.6881,-0.6656,-0.6427,-0.6198,-0.5892,-0.5848,-0.5925,-0.5774,-0.5774,-0.5851,-0.5851,-0.5851,-0.5851,-0.5851,-0.5767,-0.565,-0.5435,-0.5294,-0.5198,-0.5338,-0.4631,-0.382,-0.328,-0.2874,-0.214,-0.0602,-0.0936,-0.1338,-0.1202,-0.0401,0.0401,0.1139,0.154,0.2142,0.3084,0.295,0.2679,0.2344,0.1944,0.1408,0.067,-0.0067,-0.0742,-0.1303,-0.2701,-0.3834,-0.4651,-0.5731,-0.688,-0.8053,-0.9389,-1.023,0.8475,0.8012,0.7553,0.7403,0.6831,0.6384,0.6436,0.5946,0.5406,0.5534,0.483,0.4295,0.4121,0.3853,0.3406,0.2871,0.2691,0.2518,0.2447,0.2176,0.201,0.2052,0.1693,0.1235,0.0962,-0.0484,-0.1648,-0.2214,-0.2692,-0.3184,-0.3498,-0.4076,-0.4461,-0.4657,-0.5204,-0.5473,-0.5473,-0.5524,-0.5563,-0.5496,-0.5476,-0.5333,-0.5245,-0.5208,-0.5191,-0.5191,-0.5099,-0.501,-0.501,-0.5468,-0.5018,-0.3935,-0.241,-0.241,-0.3306,-0.3306,-0.3306,-0.3486,-0.5003,-0.5463,-0.5352,-0.5111,-0.5012,-0.4816,-0.4624,-0.4587,-0.4582,-0.4548,-0.4538,-0.4538,-0.4538,-0.4538,-0.446,-0.4064,-0.3828,-0.3734,-0.352,-0.3257,-0.3057,-0.3249,-0.2493,-0.1684,-0.1091,-0.0337,0.0736,0.2277,0.1671,0.1136,0.1404,0.1939,0.2474,0.3145,0.3544,0.4148,0.5096,0.5027,0.4688,0.4217,0.3951,0.3416,0.2609,0.2004,0.142,0.0903,-0.0351,-0.1368,-0.2096,-0.3099,-0.4146,-0.5263,-0.6354,-0.7148,0.9473,0.8937,0.8403,0.8178,0.7618,0.7152,0.7316,0.681,0.6273,0.6395,0.5716,0.5099,0.5099,0.4743,0.421,0.3765,0.368,0.3527,0.3135,0.3053,0.3078,0.3046,0.3202,0.3042,0.2553,0.2496,0.1502,-0.0689,-0.0884,-0.1385,-0.242,-0.2822,-0.3225,-0.3731,-0.4263,-0.4518,-0.4518,-0.4334,-0.4195,-0.4098,-0.4111,-0.407,-0.4068,-0.408,-0.4045,-0.4045,-0.4041,-0.4129,-0.422,-0.5037,-0.4401,-0.2598,-0.0626,-0.0447,-0.1253,-0.1253,-0.1253,-0.1522,-0.3132,-0.3708,-0.3646,-0.3386,-0.3167,-0.3099,-0.311,-0.3089,-0.3155,-0.3557,-0.3612,-0.361,-0.3606,-0.3606,-0.3368,-0.2268,-0.1955,-0.1955,-0.1799,-0.1306,-0.0907,-0.0678,-0.0074,0.0576,0.1054,0.212,0.3362,0.4852,0.5036,0.4619,0.3742,0.4074,0.4671,0.5342,0.5408,0.5606,0.5935,0.6001,0.5804,0.5474,0.5408,0.514,0.4472,0.4071,0.3587,0.3064,0.2216,0.1393,0.0602,-0.0231,-0.1181,-0.2171,-0.3044,-0.3781,1.0368,0.9771,0.9241,0.9018,0.8471,0.7915,0.7805,0.7477,0.71,0.7052,0.6627,0.6257,0.6074,0.5813,0.5458,0.4743,0.4716,0.4591,0.4156,0.4214,0.4191,0.3981,0.3811,0.3646,0.3299,0.3119,0.2835,0.2244,0.1412,0.0602,-0.0101,-0.0403,-0.0604,-0.0705,-0.1003,-0.12,-0.12,-0.108,-0.1069,-0.1069,-0.0953,-0.0943,-0.0943,-0.1017,-0.1008,-0.1007,-0.1082,-0.1345,-0.1793,-0.1524,-0.1165,-0.0627,0.0538,0.0717,0.0179,0.0179,0.0179,0.009,-0.0358,-0.1159,-0.1948,-0.1832,-0.1817,-0.1715,-0.1509,-0.1498,-0.1491,-0.1457,-0.1286,-0.1201,-0.118,-0.1096,-0.0861,-0.0391,-0.0235,-0.0,0.0157,0.0546,0.108,0.1588,0.2955,0.3986,0.4018,0.4629,0.546,0.6452,0.6684,0.6412,0.5418,0.5731,0.6256,0.6654,0.692,0.7116,0.7246,0.7246,0.7181,0.7116,0.685,0.6588,0.626,0.6045,0.5703,0.5225,0.5064,0.444,0.3392,0.3256,0.2518,0.1127,0.0576,0.0084,1.1111,1.0513,1.0067,0.962,0.9177,0.8691,0.8631,0.8267,0.7954,0.7849,0.7523,0.7143,0.6959,0.6612,0.626,0.5722,0.5644,0.5555,0.5046,0.514,0.5147,0.4948,0.4759,0.4581,0.4329,0.4268,0.4101,0.414,0.2955,0.2125,0.1835,0.1721,0.1714,0.2017,0.1815,0.1714,0.1714,0.1796,0.1787,0.1786,0.1849,0.2024,0.2215,0.2172,0.2152,0.2148,0.1923,0.1452,0.0816,0.1529,0.2152,0.2511,0.2599,0.2509,0.2239,0.2059,0.197,0.197,0.197,0.1431,0.0625,-0.0177,-0.0352,-0.0175,-0.0086,0.0085,0.017,0.0249,0.0327,0.0566,0.1278,0.158,0.1724,0.1801,0.2036,0.2115,0.2036,0.2427,0.3039,0.3762,0.4952,0.5901,0.6033,0.6478,0.7074,0.7858,0.8319,0.8401,0.8053,0.7678,0.7702,0.8151,0.835,0.8549,0.8672,0.8731,0.8672,0.8608,0.835,0.8138,0.7976,0.7889,0.7679,0.7326,0.7289,0.6824,0.6053,0.5902,0.5373,0.457,0.4125,0.388,1.1706,1.1216,1.079,1.0268,0.9764,0.9509,0.9485,0.9101,0.8726,0.8706,0.8269,0.7848,0.7665,0.7231,0.6881,0.6605,0.6475,0.6337,0.597,0.6005,0.6028,0.5827,0.5737,0.5636,0.534,0.5535,0.5489,0.5281,0.4289,0.3568,0.3415,0.3464,0.3633,0.414,0.414,0.414,0.414,0.414,0.414,0.414,0.4173,0.4434,0.492,0.4927,0.4882,0.4776,0.4489,0.3885,0.3224,0.408,0.4952,0.5576,0.4752,0.4389,0.4387,0.3937,0.3758,0.3758,0.3758,0.3758,0.3489,0.1701,0.1255,0.1429,0.1403,0.1568,0.1819,0.1782,0.1747,0.2045,0.3504,0.3848,0.3942,0.3923,0.4155,0.4233,0.3837,0.4302,0.5004,0.5777,0.6439,0.7092,0.7463,0.7911,0.8507,0.9292,0.9763,1.0299,1.0849,0.9728,0.9102,0.975,0.9783,0.9893,1.0206,1.0168,1.0104,1.0021,0.9893,0.9758,0.9691,0.9591,0.9466,0.9306,0.9129,0.8867,0.8438,0.8075,0.7799,0.7718,0.7566,0.7483,1.2305,1.1734,1.1378,1.123,1.0841,1.0375,1.0282,0.979,0.9354,0.9248,0.8789,0.846,0.8456,0.8025,0.7584,0.7312,0.7282,0.7189,0.702,0.6952,0.6915,0.6639,0.6542,0.6439,0.6237,0.6345,0.6413,0.631,0.619,0.5672,0.4763,0.4579,0.4533,0.4636,0.4636,0.4636,0.4636,0.4636,0.4736,0.5041,0.5024,0.5114,0.5506,0.5403,0.5356,0.5349,0.4763,0.468,0.4798,0.4968,0.5277,0.5646,0.5102,0.4921,0.4832,0.483,0.4741,0.4741,0.4741,0.4741,0.4563,0.3489,0.3132,0.313,0.3207,0.3203,0.3277,0.3469,0.3612,0.374,0.4097,0.4369,0.4496,0.4716,0.4849,0.5002,0.5384,0.6157,0.6853,0.7318,0.7905,0.8495,0.9105,0.952,1.0085,1.0899,1.1002,1.1365,1.2073,1.1358,1.0937,1.1391,1.1122,1.1111,1.1307,1.1001,1.0967,1.1293,1.1242,1.124,1.1112,1.1299,1.1185,1.0767,1.0845,1.0679,1.011,1.0242,1.0163,1.0014,1.0192,1.0412,1.2832,1.2439,1.212,1.1818,1.1438,1.1075,1.0783,1.0486,1.0144,0.9555,0.9294,0.9013,0.8837,0.841,0.8099,0.8093,0.7963,0.7784,0.758,0.7681,0.755,0.7229,0.7238,0.7138,0.6836,0.6955,0.7032,0.7032,0.7032,0.6722,0.5899,0.5694,0.5636,0.5636,0.5636,0.5636,0.5636,0.5636,0.5737,0.6034,0.6034,0.6234,0.6631,0.6569,0.6642,0.6735,0.6211,0.6225,0.6649,0.6485,0.6572,0.6821,0.6451,0.6224,0.6074,0.6074,0.6074,0.6074,0.6074,0.6074,0.5985,0.5536,0.5006,0.4563,0.4563,0.4741,0.491,0.5036,0.5155,0.5341,0.5482,0.5653,0.5831,0.6009,0.6394,0.669,0.7077,0.7766,0.8367,0.8574,0.9155,0.976,1.0143,1.0663,1.1186,1.1929,1.2184,1.2532,1.3121,1.3055,1.2752,1.2419,1.2305,1.2351,1.2491,1.2473,1.2443,1.2542,1.2417,1.2431,1.2477,1.2424,1.2366,1.2229,1.2298,1.215,1.1768,1.2049,1.2247,1.2282,1.255,1.2819,1.3348,1.3077,1.2961,1.2333,1.2053,1.1735,1.1349,1.1142,1.0873,1.0075,0.9812,0.9545,0.907,0.8679,0.85,0.864,0.85,0.8249,0.8131,0.8288,0.825,0.7912,0.7829,0.773,0.7534,0.7664,0.7738,0.7706,0.7703,0.7397,0.6785,0.6589,0.6637,0.6637,0.6637,0.6637,0.6736,0.6736,0.6933,0.7229,0.7229,0.7528,0.8031,0.8031,0.8131,0.8226,0.7902,0.8028,0.829,0.8062,0.8113,0.8253,0.7843,0.7656,0.745,0.7415,0.7404,0.7404,0.7404,0.7404,0.7404,0.7404,0.6697,0.5813,0.5813,0.608,0.6435,0.6523,0.6618,0.6781,0.6926,0.708,0.7228,0.7447,0.8016,0.8547,0.8715,0.932,0.9812,0.9663,1.0296,1.0883,1.1049,1.1558,1.215,1.2673,1.3119,1.3492,1.3935,1.4217,1.4151,1.3484,1.3413,1.3427,1.3636,1.3773,1.3765,1.3703,1.3561,1.3522,1.3668,1.3464,1.3442,1.3484,1.3484,1.3375,1.3212,1.3518,1.3831,1.4159,1.4545,1.4817,1.3658,1.356,1.3437,1.3028,1.2708,1.2553,1.2322,1.1724,1.1235,1.0942,1.0312,0.975,0.9306,0.9178,0.9056,0.8896,0.8941,0.8972,0.8881,0.8863,0.8836,0.8704,0.8726,0.8726,0.8627,0.8877,0.8914,0.866,0.8649,0.8251,0.7156,0.7144,0.7235,0.7531,0.7531,0.7633,0.7839,0.7839,0.8134,0.8623,0.8623,0.8924,0.9426,0.9426,0.9225,0.9015,0.9304,0.9413,0.9456,0.954,0.9424,0.9043,0.8885,0.8725,0.8689,0.852,0.846,0.846,0.846,0.846,0.846,0.846,0.7753,0.6962,0.7224,0.7312,0.7489,0.7845,0.8009,0.8055,0.8158,0.8361,0.8556,0.8886,0.9409,0.9887,0.9948,1.0589,1.1158,1.0823,1.1473,1.2005,1.19,1.2378,1.29,1.3346,1.3572,1.3935,1.4425,1.4569,1.4689,1.4972,1.4539,1.4352,1.4566,1.4329,1.428,1.455,1.4566,1.4592,1.4736,1.4744,1.4617,1.4281,1.4289,1.4217,1.4141,1.4461,1.4788,1.513,1.571,1.6049,1.4183,1.409,1.3978,1.3741,1.3315,1.2881,1.2619,1.2272,1.1821,1.1101,1.0696,1.0213,0.9737,0.9548,0.9488,0.9531,0.9447,0.9437,0.9548,0.9457,0.9449,0.9336,0.9453,0.9422,0.9327,0.939,0.9402,0.9331,0.9327,0.9126,0.863,0.8329,0.823,0.8326,0.8432,0.8634,0.8737,0.8836,0.913,0.9521,0.9719,0.9916,1.0314,1.0301,1.0194,1.0092,1.0404,1.0565,1.059,1.0798,1.0669,1.0166,0.9974,0.9826,0.9692,0.9499,0.9423,0.9423,0.9423,0.9423,0.9423,0.9423,0.9161,0.8723,0.8281,0.8372,0.864,0.8819,0.9078,0.9323,0.9329,0.9565,0.9971,1.0309,1.071,1.1093,1.1035,1.1495,1.1909,1.1952,1.2374,1.2758,1.2694,1.318,1.357,1.3674,1.4,1.4433,1.4721,1.4999,1.5213,1.5355,1.5159,1.5068,1.5146,1.516,1.5135,1.5208,1.5146,1.5143,1.5062,1.507,1.4991,1.4848,1.5138,1.5251,1.5165,1.5798,1.615,1.6293,1.666,1.6902,1.4584,1.4451,1.4289,1.4146,1.3659,1.3222,1.2966,1.2644,1.2212,1.145,1.0986,1.0619,1.0052,0.9884,0.9867,0.0,0.9979,0.9956,1.0055,1.0076,1.009,0.9997,1.0192,1.0314,1.0117,1.0117,1.0117,1.0117,1.0117,1.0117,1.0117,0.9719,0.9418,0.9122,0.9327,0.9426,0.9521,0.9715,0.9912,1.01,1.0293,1.069,1.1189,1.1077,1.117,1.137,1.158,1.1688,1.179,1.1996,1.1798,1.1421,1.114,1.0938,1.076,1.0397,1.0294,1.0294,1.0294,1.0294,1.0299,1.0381,1.0381,1.0294,0.9593,0.951,0.9602,0.9777,1.0125,1.0381,1.0467,1.0722,1.1149,1.1499,1.1843,1.214,1.2134,1.2517,1.2851,1.2891,1.3313,1.3615,1.3544,1.3961,1.4343,1.4334,1.4731,1.5097,1.5397,1.568,1.5855,1.5825,1.5808,1.5766,1.5726,1.5859,1.5859,1.5788,1.5709,1.5638,1.5559,1.566,1.5648,1.5505,1.5953,1.6121,1.6163,1.6677,1.6975,1.7012,1.7349,1.7554,1.4687,1.4533,1.4281,1.4092,1.3913,1.3652,1.3483,1.2841,1.224,1.2067,1.1406,1.0761,1.0268,1.0352,1.0442,1.0282,1.0424,1.0559,1.0568,1.0716,1.0832,1.0768,1.0974,1.1194,1.1194,1.1194,1.1194,1.1194,1.1194,1.1194,1.1194,1.1194,1.0806,1.0019,1.0019,1.0109,1.0186,1.0181,1.0271,1.0445,1.0445,1.0947,1.1955,1.1955,1.2257,1.2759,1.2759,1.2969,1.3283,1.2964,1.2764,1.2711,1.2231,1.1946,1.1887,1.1242,1.0982,1.0982,1.0982,1.0982,1.0982,1.1241,1.1322,1.1322,1.1241,1.0809,1.0381,1.0809,1.1154,1.1327,1.1585,1.1843,1.2015,1.2363,1.2711,1.3052,1.3052,1.3652,1.3995,1.3612,1.4123,1.4583,1.4487,1.4824,1.5219,1.5589,1.5827,1.6133,1.6514,1.659,1.6597,1.6607,1.6564,1.648,1.6096,1.6202,1.6272,1.6272,1.6272,1.6272,1.6272,1.6634,1.6692,1.6328,1.6687,1.6911,1.6917,1.6917,1.7037,1.7383,1.7619,1.7781,1.4623,1.4432,1.42,1.4192,1.3939,1.3616,1.3367,1.3042,1.26,1.2145,1.1666,1.1213,1.0865,1.0806,1.0835,1.0922,1.1079,1.1174,1.1316,1.1515,1.161,1.159,1.2035,1.2273,1.2273,1.2273,1.2273,1.2273,1.2273,1.2273,1.2273,1.2063,1.1468,1.0493,1.069,1.0676,1.0356,1.1473,1.198,1.2068,1.2155,1.2441,1.2748,1.3055,1.3352,1.346,1.346,1.3562,1.3665,1.3352,1.3249,1.3199,1.2702,1.2592,1.2444,1.1871,1.1688,1.1688,1.1688,1.1688,1.1688,1.1774,1.1774,1.1768,1.202,1.1671,1.1332,1.1602,1.1854,1.21,1.2357,1.2534,1.2796,1.3052,1.3222,1.3398,1.3737,1.3913,1.4223,1.4545,1.4925,1.5145,1.5071,1.5416,1.5662,1.5713,1.5996,1.631,1.6598,1.6758,1.6867,1.7037,1.7103,1.6923,1.6254,1.6272,1.6272,1.6272,1.659,1.6732,1.6732,1.7122,1.7344,1.7195,1.7556,1.7725,1.77,1.789,1.8,1.8121,1.8112,1.8282,1.4492,1.4258,1.3952,1.4193,1.387,1.3548,1.3386,1.3065,1.273,1.2305,1.191,1.1544,1.1366,1.1256,1.1266,1.1626,1.1653,1.1709,1.2054,1.2365,1.2659,1.2845,1.3149,1.334,1.334,1.3256,1.32,1.32,1.32,1.3104,1.2997,1.2876,1.2533,1.2052,1.1863,1.1653,1.1336,1.2257,1.2975,1.3391,1.367,1.3852,1.3846,1.4142,1.434,1.4334,1.4334,1.4334,0.0,1.4124,1.4118,1.4076,1.3641,1.3409,1.3272,1.2762,1.2463,1.2381,1.2381,1.2381,1.246,1.2466,1.2552,1.2552,1.2711,1.2534,1.2277,1.2375,1.2631,1.2796,1.2966,1.3137,1.3398,1.3568,1.3737,1.3899,1.4243,1.4419,1.4587,1.5082,1.5409,1.5584,1.5708,1.6009,1.6261,1.6347,1.6637,1.6871,1.7096,1.7338,1.7509,1.7515,1.7734,1.7635,1.7063,1.7,1.7,1.7,1.7234,1.736,1.736,1.7764,1.7979,1.7912,1.8279,1.8389,1.8319,1.8488,1.8523,1.8523,1.8523,1.8612,0.0,1.4059,1.3701,1.4023,1.3782,1.3468,1.3461,1.2953,0.0,1.2516,1.2054,1.1706,1.1706,1.1726,1.1841,1.2232,1.2258,1.245,1.2717,1.3258,1.3799,1.4327,1.4376,1.4364,1.4364,1.4127,1.3969,1.3969,1.3975,1.3776,1.3286,1.3636,1.4076,1.4394,1.3437,1.2948,1.2937,1.2937,1.3448,1.4383,1.4877,1.5063,1.514,1.5121,1.5204,1.5293,1.5293,1.5191,1.5083,1.5083,1.5083,1.5051,1.4759,1.4466,1.4186,1.373,1.3374,1.3137,1.3137,1.3137,1.3137,1.3313,1.3392,1.3483,1.3483,1.3313,1.3137,1.3137,1.3307,1.3483,1.3483,1.3652,1.3822,1.4082,1.4321,1.4482,1.465,1.4915,1.5166,1.5401,1.5567,1.5899,1.6312,1.6566,1.6894,1.731,1.7546,1.7781,1.7951,1.8193,1.8302,1.8168,1.8297,1.8393,1.8163,1.8155,1.8128,1.8128,1.8155,1.8164,1.8164,1.855,1.8683,1.8461,1.8813,1.8922,1.87,1.87,1.87,1.87,1.87,1.87,1.3267,0.0,1.3534,1.3694,1.3536,1.3307,0.0,0.0,1.2685,1.2384,1.2129,1.2003,1.2157,1.226,1.2453,1.289,1.3213,1.3484,1.3756,1.4219,1.4806,1.538,1.5249,1.5019,1.5019,1.4669,1.432,1.432,1.4242,1.4066,1.3969,1.4532,1.479,1.4897,1.4804,1.4623,1.4539,1.4629,1.4833,1.5044,1.5115,1.5102,1.5102,1.5096,1.5089,1.5185,1.5185,1.5089,1.5083,1.5083,1.5083,1.5051,1.4759,1.4466,1.4186,1.3818,1.3547,1.3307,1.3307,1.3307,1.3313,1.3398,1.3652,1.3913,1.3913,1.3652,1.3307,1.3307,1.3652,1.3913,1.3913,1.4243,1.4489,1.4573,1.4573,1.4741,1.4915,1.5159,1.5401,1.5567,1.5982,1.6229,1.6394,1.6722,1.7139,1.7392,1.7546,1.7781,1.7951,1.8193,1.8407,1.8567,1.8708,1.89,1.9036,1.8467,1.8128,1.8128,1.8412,1.8577,1.8577,1.8953,1.9164,1.9085,1.9177,1.9152,1.8922,1.8922,1.8922,1.8922,1.8922,1.9002,1.2488,1.2812,1.3129,1.3216,1.3145,1.2995,1.2988,0.0,0.0,0.0,0.0,1.2452,1.2526,1.2777,1.3076,1.3611,1.3916,1.4268,1.4782,1.5137,1.5534,1.5929,1.5839,1.5735,1.5638,1.5184,1.4913,1.4818,1.4654,1.4573,1.4402,1.498,1.5402,1.5636,1.5698,1.5563,1.5223,1.521,1.5204,1.5204,1.5274,1.5267,1.5267,1.5553,1.556,1.5655,1.5743,1.5832,1.5832,1.5832,1.5832,1.5724,1.5651,1.5404,1.5013,1.4728,1.4435,1.4078,1.3939,1.3899,1.3893,1.3984,1.4153,1.4412,1.4412,1.4237,1.3984,1.3984,1.4153,1.4412,1.4412,1.4573,1.4734,1.4824,1.4908,1.4915,1.5173,1.5409,1.565,1.5824,1.6154,1.6476,1.664,1.6976,1.7302,1.7546,1.7708,1.787,1.7951,1.8282,1.8612,1.87,1.8922,1.9152,1.9301,1.8907,1.8669,1.8669,1.8861,1.8981,1.8981,1.9191,1.9301,1.9301,1.9301,1.9231,1.9152,1.9152,1.9152,1.9152,1.9152,1.9231,1.1762,1.2095,1.2522,1.2739,1.2684,1.2618,1.2813,0.0,0.0,0.0,0.0,0.0,1.2973,1.3344,1.3753,1.4258,1.4605,1.5129,1.5874,1.6041,1.6174,1.6433,1.6433,1.6309,1.6132,1.5749,1.5376,1.5197,1.5119,1.5033,1.4695,1.5286,1.5777,1.6134,1.6092,1.5862,1.5347,1.533,1.5369,1.5369,1.5547,1.5635,1.5635,1.6123,1.6218,1.6312,1.6494,1.6588,1.6588,1.6588,1.6588,1.6588,1.6588,1.6392,1.6085,1.5777,1.5381,1.4895,1.4585,1.4482,1.4482,1.465,1.4734,1.4748,1.4797,1.4895,1.4902,1.4951,1.4895,1.4734,1.4734,1.4741,1.4824,1.509,1.5173,1.5257,1.5423,1.5665,1.5906,1.6079,1.6319,1.6558,1.7049,1.7302,1.7473,1.77,1.787,1.8031,1.804,1.8451,1.87,1.8772,1.9073,1.9301,1.9301,1.9301,1.9301,1.9301,1.9301,1.9301,1.9301,1.9301,1.9301,1.9301,1.9301,1.9301,1.9301,1.9301,1.9301,1.9301,1.9301,1.9301,1.085,1.1089,1.1458,1.2368,1.2437,1.2363,1.2764,0.0,0.0,0.0,0.0,0.0,0.0,1.3892,1.4462,1.4909,1.5591,1.6291,1.6861,1.7,1.7048,1.7216,1.7,1.6737,1.6488,1.5819,1.5438,1.5354,1.5376,1.5125,1.4692,1.5476,1.5879,1.5661,1.5704,1.5666,1.5535,1.6137,1.64,1.64,1.6393,1.6393,1.6393,1.6494,1.6494,1.6494,1.6588,1.6588,1.6588,1.6588,1.6588,1.6588,1.6588,1.6399,1.6183,1.5784,1.5469,1.5067,1.4754,1.465,1.465,1.465,1.4824,1.5049,1.5404,1.5576,1.5806,1.606,1.5576,1.5006,1.5006,1.5173,1.5257,1.5347,1.5499,1.565,1.5658,1.5982,1.6312,1.6312,1.6484,1.673,1.7049,1.7302,1.7473,1.77,1.787,1.8121,1.8282,1.8531,1.878,1.8922,1.9152,1.9301,1.9301,1.9301,1.9301,1.9301,1.9301,1.9301,1.9301,1.9301,1.9301,1.9301,1.9301,1.9301,1.9301,1.9301,1.9301,1.9301,1.9301,1.9301,1.0335,1.0367,1.0601,1.1296,1.1706,1.2118,1.2476,1.2635,0.0,0.0,0.0,0.0,1.3645,1.4321,1.5108,1.5872,1.6524,1.7032,1.7284,1.7309,1.729,1.7275,1.7064,1.6885,1.646,1.6058,1.5779,1.5426,1.5628,1.5756,1.5771,1.6019,1.6184,1.6178,1.6139,1.6199,1.619,1.6487,1.645,1.6085,1.6253,1.633,1.6344,1.6699,1.6784,1.6784,1.6958,1.6958,1.6958,1.6958,1.6958,1.6958,1.6958,1.6865,1.6686,1.6116,1.5545,1.5106,1.4965,1.4915,1.4915,1.5082,1.5288,1.5546,1.5698,1.5944,1.6191,1.633,1.6068,1.5763,1.5763,1.5811,1.5848,1.5848,1.5875,1.5914,1.5914,1.6154,1.6394,1.6394,1.6648,1.6976,1.7221,1.7465,1.7627,1.787,1.7951,1.8121,1.8362,1.8612,1.8772,1.9002,1.9152,1.9301,1.9301,1.9301,1.9301,1.9301,1.9301,1.9301,1.9301,1.9301,1.9301,1.9301,1.9301,1.9301,1.9301,1.9301,1.9301,1.9301,1.9301,1.9301,0.9792,0.9792,0.9976,1.0183,1.0944,1.1703,1.205,1.2476,1.2882,0.0,1.3572,1.3797,1.3863,1.4636,1.5537,1.6549,1.7049,1.7315,1.7313,1.7371,1.7307,1.7056,1.6967,1.6718,1.6306,1.6312,1.6188,1.574,1.6018,1.6358,1.666,1.6547,1.6399,1.6469,1.6476,1.6513,1.659,1.659,1.6308,1.5747,1.6076,1.6232,1.631,1.675,1.6994,1.7066,1.734,1.7426,1.7426,1.7426,1.752,1.752,1.752,1.7375,1.715,1.6407,1.5763,1.5274,1.5202,1.5173,1.5187,1.5435,1.5716,1.5943,1.6176,1.6389,1.6588,1.6751,1.6773,1.6736,1.6588,1.6453,1.641,1.6342,1.63,1.6262,1.6185,1.6319,1.6476,1.6476,1.6804,1.7139,1.7392,1.7546,1.7781,1.7951,1.804,1.8121,1.8442,1.8612,1.878,1.9073,1.9222,1.9301,1.9301,1.9301,1.9301,1.9301,1.9301,1.9301,1.9301,1.9301,1.9301,1.9301,1.9301,1.9301,1.9301,1.9301,1.9301,1.9301,1.9301,1.9301,0.9081,0.928,0.9548,0.9548,1.023,1.1068,1.1666,1.209,0.0,1.331,1.3667,1.3943,1.4065,1.487,1.5699,1.6463,1.6985,1.7172,1.697,1.7295,1.7303,1.6716,1.6461,1.6231,1.6069,1.6418,1.6636,1.6636,1.666,1.6664,1.6696,1.6688,1.6531,1.6125,1.6125,1.6141,1.6163,1.6163,1.6214,1.6367,1.6389,1.6565,1.6857,1.6879,1.7055,1.7333,1.7535,1.7628,1.7721,1.79,1.8087,1.8087,1.8087,1.7712,1.713,1.6588,1.6162,1.5833,1.5449,1.5347,1.5398,1.5782,1.5899,1.603,1.6885,1.7085,1.7251,1.7834,1.801,1.7773,1.6988,1.6888,1.6965,1.6667,1.673,1.6791,1.6464,1.6566,1.6656,1.6656,1.6894,1.7139,1.7392,1.7546,1.7781,1.7951,1.804,1.8121,1.8612,1.87,1.8851,1.9222,1.9301,1.9301,1.9301,1.9301,1.9301,1.9301,1.9301,1.9301,1.9301,1.9301,1.9301,1.9301,1.9301,1.9301,1.9301,1.9301,1.9301,1.9301,1.9301,1.9301,0.8846,0.8975,0.9092,0.9087,0.9544,0.0,0.0,1.173,1.223,1.2837,1.3339,1.382,1.4329,1.4925,1.5527,1.6279,1.6716,1.7022,1.7139,1.6953,1.6733,1.6471,1.631,1.6149,1.5642,1.57,1.588,1.606,1.6078,1.6063,1.6063,1.6469,1.6605,1.6517,1.6472,1.6409,1.6319,1.6319,1.6285,1.6207,1.6238,1.6314,1.6287,1.6674,1.7014,1.7239,1.7539,1.7815,1.7994,1.8087,1.8087,1.8087,1.8087,1.7667,1.6914,1.6691,1.6226,1.5599,1.5474,1.5431,1.5482,1.5974,1.6305,1.655,1.7266,1.7545,1.7827,1.8048,1.8187,1.8226,1.7781,1.7643,1.754,1.7416,1.7243,1.7146,1.7012,1.6806,1.673,1.673,1.6984,1.731,1.7392,1.7708,1.787,1.7951,1.804,1.8201,1.862,1.87,1.8851,1.9222,1.9301,1.9301,1.9301,1.9301,1.9301,1.9301,1.9301,1.9301,1.9301,1.9301,1.9301,1.9301,1.9301,1.9301,1.9301,1.9301,1.9301,1.9301,1.9301,1.9301,0.8327,0.8452,0.8511,0.8646,0.0,0.0,1.0429,1.1243,1.192,1.2439,1.3172,1.3885,1.4498,1.4911,1.53,1.5939,1.6321,1.6612,1.6776,1.6587,1.6296,1.6055,1.5972,1.5656,1.5233,1.5093,1.5156,1.5483,1.5486,1.5626,1.5803,1.6309,1.6599,1.6635,1.6702,1.6627,1.6484,1.6476,1.6402,1.6162,1.6225,1.6222,1.61,1.6624,1.7026,1.7326,1.7651,1.7902,1.8187,1.8272,1.8365,1.8257,1.8149,1.7652,1.7136,1.6748,1.6208,1.5646,1.546,1.5423,1.5573,1.6257,1.6643,1.6994,1.7704,1.7995,1.828,1.8272,1.8465,1.8566,1.8365,1.8279,1.8175,1.8065,1.7771,1.7405,1.7302,1.6992,1.673,1.673,1.7066,1.7392,1.7392,1.7716,1.804,1.804,1.804,1.8121,1.8531,1.8692,1.8851,1.9222,1.9301,1.9301,1.9301,1.9301,1.9301,1.9301,1.9301,1.9301,1.9301,1.9301,1.9301,1.9301,1.9301,1.9301,1.9301,1.9301,1.9301,1.9301,1.9301,1.9301,0.7521,0.7661,0.7867,0.8127,0.0,0.0,0.9603,1.0612,1.1531,1.2109,1.3171,1.4194,1.4553,1.4816,1.5092,1.533,1.566,1.5769,1.5769,1.5995,1.6015,1.5547,1.515,1.4872,1.4872,1.4691,1.4708,1.5004,1.5145,1.5425,1.604,1.6218,1.6398,1.6515,1.6635,1.6725,1.673,1.673,1.6566,1.6394,1.6394,1.6498,1.6591,1.6598,1.6949,1.7568,1.7846,1.8146,1.8473,1.8735,1.8819,1.8688,1.8167,1.7944,1.7768,1.6647,1.6227,1.6097,1.5617,1.5499,1.5845,1.6613,1.6911,1.729,1.8171,1.8481,1.8574,1.8743,1.8827,1.8827,1.8827,1.8827,1.874,1.839,1.8033,1.7683,1.7358,1.6992,1.673,1.673,1.7066,1.7392,1.7392,1.7716,1.804,1.804,1.804,1.8121,1.8362,1.8612,1.8851,1.9222,1.9301,1.9301,1.9301,1.9301,1.9301,1.9301,1.9301,1.9301,1.9301,1.9301,1.9301,1.9301,1.9301,1.9301,1.9301,1.9301,1.9301,1.9301,1.9301,1.9311,0.6745,0.6876,0.7143,0.7209,0.7661,0.8262,0.0,0.9604,0.0,1.2142,1.2691,1.3149,1.3758,1.3954,1.441,1.5519,1.5748,1.5704,1.5419,1.5471,1.5408,1.5095,1.507,1.507,1.4935,1.4936,1.5057,1.5121,1.5283,1.5421,1.5591,1.5938,1.6221,1.6346,1.653,1.6596,1.6717,1.67,1.6648,1.6648,1.6648,1.6464,1.6247,1.6484,1.6783,1.7141,1.7389,1.7728,1.8,1.8089,1.8081,1.8073,1.7881,1.7604,1.7196,1.6815,1.6338,1.5868,1.5869,1.5831,1.5845,1.696,1.735,1.757,1.8438,1.8743,1.8743,1.8735,1.8827,1.8827,1.8827,1.8827,1.8804,1.8692,1.8208,1.7747,1.7644,1.7151,1.673,1.673,1.6976,1.7221,1.7392,1.7627,1.7861,1.7959,1.804,1.8121,1.8531,1.8772,1.9002,1.9301,1.9301,1.9301,1.9301,1.9301,1.9301,1.9301,1.9301,1.9301,1.9301,1.9301,1.9301,1.9301,1.9301,1.9301,1.9301,1.9301,1.9301,1.9311,1.9604,1.9742,0.609,0.6152,0.6346,0.6416,0.7007,0.7661,0.8107,0.9211,1.0451,1.1593,1.2116,1.2586,1.3124,1.3377,1.38,1.4662,1.4656,1.4546,1.4546,1.4574,1.4559,1.4514,1.4698,1.4849,1.4725,1.498,1.5204,1.5275,1.5417,1.5488,1.5568,1.5796,1.6071,1.6167,1.6304,1.6439,1.6415,1.6621,1.6629,1.6524,1.6667,1.6574,1.6343,1.6544,1.6799,1.7109,1.7455,1.7684,1.7771,1.7771,1.7771,1.7755,1.7628,1.736,1.6985,1.676,1.6407,1.5982,1.6087,1.6079,1.6179,1.7133,1.7525,1.7746,1.853,1.8827,1.8827,1.8827,1.8827,1.8827,1.8827,1.8827,1.8827,1.8827,1.8287,1.7771,1.7771,1.7223,1.673,1.673,1.6894,1.7139,1.7392,1.7546,1.7781,1.7951,1.804,1.8121,1.8531,1.8772,1.8922,1.9152,1.9222,1.9301,1.9301,1.9301,1.9301,1.9301,1.9301,1.9301,1.9301,1.9301,1.9301,1.9301,1.9301,1.9301,1.9301,1.9301,1.9384,1.9558,1.9815,2.0017,0.5362,0.5422,0.562,0.5756,0.6338,0.7046,0.7882,0.9131,1.0155,1.062,1.1443,1.2169,1.2445,1.2876,1.3177,1.3177,1.2844,1.2828,1.3457,1.3505,1.3619,1.3858,1.415,1.4352,1.4421,1.4846,1.5263,1.5446,1.5446,1.5542,1.5797,1.5805,1.5888,1.6001,1.6167,1.613,1.594,1.6423,1.646,1.6206,1.6532,1.6706,1.673,1.673,1.6913,1.7247,1.7548,1.7676,1.7676,1.7676,1.7676,1.7644,1.7342,1.7231,1.7191,1.6601,1.6394,1.6394,1.6245,1.6245,1.6511,1.7298,1.7612,1.7906,1.8613,1.8827,1.8827,1.8827,1.8827,1.8827,1.8827,1.8827,1.8827,1.8827,1.8311,1.7811,1.7779,1.7254,1.6778,1.6738,1.6894,1.7139,1.7392,1.7546,1.7781,1.7951,1.804,1.8121,1.8362,1.8531,1.8789,1.8967,1.9207,1.9375,1.9412,1.9375,1.9356,1.9356,1.932,1.9301,1.9301,1.9301,1.9301,1.9301,1.9301,1.9301,1.9301,1.9338,1.9558,1.9934,2.0008,2.0237,0.4556,0.4688,0.4891,0.5027,0.5658,0.6455,0.7016,0.7675,0.855,0.9734,1.038,1.087,1.1447,1.1758,1.2074,1.2405,1.2519,1.2744,1.2985,1.2879,1.3084,1.3776,1.399,1.4247,1.4388,1.4664,1.49,1.5249,1.5266,1.5402,1.5788,1.5805,1.584,1.5845,1.5844,1.5807,1.579,1.5855,1.6022,1.6206,1.6285,1.6468,1.673,1.673,1.6778,1.6857,1.6929,1.6953,1.6953,1.6953,1.6953,1.6953,1.6881,1.6849,1.6841,1.668,1.6558,1.6394,1.6566,1.6484,1.6511,1.7454,1.7771,1.7906,1.8613,1.8827,1.8827,1.8827,1.8827,1.8827,1.8827,1.8827,1.8827,1.8827,1.8494,1.8112,1.7834,1.7445,1.708,1.6786,1.6738,1.6894,1.731,1.7473,1.7554,1.7959,1.804,1.8121,1.8362,1.8442,1.8637,1.9099,1.9371,1.9661,1.9996,1.9898,1.9797,1.9797,1.9485,1.9301,1.9301,1.9301,1.9301,1.9301,1.9301,1.9301,1.9301,1.9632,1.9842,1.9943,2.0567,2.082,0.3758,0.3956,0.4209,0.4617,0.5189,0.5738,0.6339,0.6852,0.744,0.8538,0.9211,0.9829,1.0363,1.0913,1.1333,1.1646,1.2034,1.2436,1.2578,1.2631,1.2788,1.3276,1.3623,1.3932,1.4135,1.4507,1.4761,1.4949,1.4958,1.5052,1.5257,1.5429,1.5523,1.5523,1.5535,1.5582,1.5582,1.5493,1.5447,1.5443,1.5953,1.6389,1.673,1.673,1.673,1.673,1.673,1.673,1.673,1.673,1.673,1.673,1.673,1.673,1.673,1.673,1.6648,1.6566,1.6648,1.6648,1.6676,1.754,1.7771,1.7906,1.8613,1.8827,1.8827,1.8827,1.8827,1.8827,1.8827,1.8827,1.8827,1.8827,1.8557,1.82,1.7842,1.7509,1.7167,1.681,1.673,1.682,1.7229,1.7383,1.7627,1.7951,1.804,1.8031,1.8193,1.8362,1.8582,1.8968,1.925,1.9576,1.9996,1.9919,1.9796,1.9606,1.939,1.9182,1.9011,1.9002,1.9073,1.9301,1.9222,1.9252,1.9452,1.9489,1.9787,2.0174,2.058,2.0781,0.3094,0.3291,0.3664,0.4271,0.4668,0.5053,0.5627,0.6105,0.6615,0.7198,0.8142,0.8968,0.9369,1.0103,1.0773,1.101,1.1616,1.2066,1.2236,1.246,1.2653,1.2805,1.3244,1.3614,1.3802,1.4226,1.4504,1.4572,1.4581,1.4615,1.4684,1.4966,1.5155,1.5215,1.5253,1.5313,1.5371,1.5251,1.5028,1.4746,1.5693,1.6357,1.6643,1.6706,1.673,1.673,1.673,1.673,1.673,1.673,1.673,1.673,1.673,1.673,1.673,1.673,1.673,1.673,1.673,1.673,1.6849,1.7548,1.7771,1.7906,1.8613,1.8827,1.8827,1.8827,1.8827,1.8827,1.8827,1.8827,1.8827,1.8827,1.8605,1.8295,1.7938,1.7596,1.7262,1.6897,1.6778,1.6812,1.7139,1.7456,1.7781,1.7951,1.804,1.804,1.804,1.8253,1.8606,1.8915,1.9169,1.953,1.9936,1.9909,1.9724,1.9388,1.9238,1.9117,1.8807,1.8736,1.8878,1.9243,1.9092,1.9192,1.9533,1.9475,1.9782,2.043,2.0492,2.0696,0.2559,0.0,0.3336,0.3625,0.3971,0.4357,0.4752,0.5182,0.5631,0.6133,0.7385,0.8551,0.9136,0.959,1.012,1.0795,1.1323,1.1768,1.2089,1.2398,1.2715,1.2928,1.303,1.3169,1.3527,1.3631,1.381,1.4153,1.4179,1.4324,1.4667,1.4726,1.4898,1.5206,1.5052,1.5022,1.5204,1.5056,1.5017,1.5107,1.5872,1.623,1.6285,1.6831,1.6894,1.673,1.673,1.673,1.673,1.673,1.673,1.673,1.673,1.673,1.673,1.673,1.673,1.673,1.673,1.673,1.6849,1.7548,1.7771,1.7906,1.8613,1.8827,1.8827,1.8827,1.8827,1.8827,1.8827,1.8827,1.8827,1.8827,1.8796,1.8661,1.8303,1.7954,1.7604,1.727,1.7111,1.7139,1.731,1.7538,1.7781,1.7951,1.804,1.804,1.804,1.8314,1.874,1.9144,1.9653,2.0175,2.0561,2.0457,2.0332,2.027,1.9631,1.9141,1.9179,1.8869,1.8842,1.9244,1.917,1.9197,1.925,1.9942,2.0323,2.0438,2.0766,2.0863,0.2087,0.2423,0.2662,0.286,0.3232,0.3646,0.3929,0.4452,0.4956,0.5399,0.6355,0.733,0.812,0.8752,0.9416,1.0008,1.0953,1.1676,1.1828,1.2281,1.2731,1.2989,1.2989,1.3103,1.345,1.3511,1.3579,1.375,1.3768,1.3845,1.4016,1.423,1.4427,1.4581,1.4782,1.5103,1.554,1.5147,1.5033,1.5059,1.5619,1.6057,1.6523,1.6836,1.6944,1.6894,1.6894,1.6894,1.6894,1.673,1.673,1.673,1.673,1.673,1.673,1.673,1.673,1.673,1.673,1.673,1.6849,1.7548,1.7771,1.7906,1.8613,1.8827,1.8827,1.8827,1.8827,1.8827,1.8827,1.8827,1.8827,1.8827,1.8827,1.8788,1.8629,1.8319,1.7914,1.7382,1.7068,1.6976,1.7221,1.7383,1.7627,1.7781,1.7951,1.804,1.804,1.8357,1.8733,1.9127,1.96,2.0067,2.0439,2.0407,2.0217,2.0008,1.9679,1.9297,1.8854,1.8981,1.8898,1.8837,1.9003,1.923,1.9659,1.9922,2.0104,2.0312,2.0567,2.0555,0.1614,0.1817,0.2062,0.2211,0.254,0.2915,0.3101,0.3655,0.4294,0.4791,0.5445,0.6209,0.7085,0.7936,0.8754,0.9336,1.0265,1.1115,1.1479,1.2132,1.272,1.292,1.2989,1.3103,1.3398,1.345,1.3511,1.3511,1.3511,1.3511,1.3511,1.3785,1.399,1.4093,1.4501,1.4984,1.5599,1.5221,1.5049,1.504,1.5397,1.588,1.6558,1.6649,1.6896,1.709,1.718,1.7139,1.7057,1.6894,1.673,1.673,1.673,1.673,1.673,1.673,1.673,1.673,1.673,1.673,1.6833,1.7445,1.7699,1.7882,1.851,1.8756,1.8827,1.8827,1.8827,1.8827,1.8827,1.8827,1.8827,1.8827,1.8827,1.8804,1.8716,1.8486,1.8097,1.7413,1.7064,1.6924,1.7074,1.7221,1.7383,1.77,1.787,1.7985,1.8168,1.8502,1.8888,1.9281,1.9658,1.9992,2.0266,2.0292,2.0172,1.9898,1.9795,1.9478,1.8905,1.9067,1.9076,1.8888,1.9056,1.9427,2.0008,1.9927,2.0026,2.0292,2.0292,2.0292,0.1143,0.1277,0.1536,0.1749,0.2015,0.2323,0.2484,0.2862,0.335,0.4122,0.4736,0.5399,0.6273,0.73,0.8195,0.9013,0.9225,0.9827,1.1226,1.2079,1.2658,1.2773,1.2928,1.3111,1.3302,1.3398,1.3511,1.3511,1.3511,1.3511,1.3511,1.3528,1.3708,1.4084,1.4136,1.443,1.4925,1.5093,1.5213,1.5158,1.5511,1.57,1.5741,1.6313,1.6842,1.722,1.7332,1.731,1.7139,1.7057,1.6894,1.673,1.673,1.673,1.673,1.673,1.673,1.673,1.673,1.673,1.6794,1.7183,1.7517,1.7842,1.8216,1.8565,1.8827,1.8827,1.8827,1.8827,1.8827,1.8827,1.8827,1.8827,1.8827,1.8732,1.8398,1.8311,1.8097,1.7413,1.7262,1.7219,1.7114,1.7139,1.7212,1.7619,1.77,1.7907,1.8511,1.8896,1.929,1.9675,2.0043,2.0275,2.0292,2.0292,2.0283,2.0266,1.9941,1.9727,1.9596,1.9358,1.9333,1.9675,1.9684,1.9701,1.9744,2.0095,2.0275,2.0292,2.0292,2.0292,0.0539,0.0807,0.1002,0.13,0.1599,0.1825,0.177,0.2129,0.2655,0.3285,0.4017,0.4732,0.5449,0.6637,0.7747,0.8502,0.8799,0.9314,1.0475,1.1378,1.2017,1.2305,1.2457,1.2674,1.3086,1.3164,1.3155,1.3155,1.3155,1.3155,1.3155,1.3285,1.3414,1.3557,1.3911,1.4552,1.5505,1.5407,1.5443,1.5601,1.5576,1.5744,1.6117,1.6326,1.6597,1.6979,1.7037,1.72,1.731,1.7139,1.6976,1.673,1.673,1.673,1.673,1.673,1.673,1.673,1.673,1.673,1.6794,1.7159,1.7501,1.7834,1.8192,1.8541,1.8827,1.8827,1.8827,1.8827,1.8827,1.8827,1.8827,1.8827,1.8827,1.8796,1.8669,1.8454,1.8232,1.7977,1.7747,1.7571,1.7311,1.7322,1.7399,1.7335,1.7582,1.7946,1.833,1.8973,1.9406,1.9638,2.0069,2.0292,2.0292,2.0292,2.0292,2.0292,2.0163,1.9992,1.9752,1.9838,1.9847,1.9744,1.9975,2.0095,2.0095,2.0223,2.0292,2.0292,2.0292,2.0292,-0.0203,0.0135,0.0402,0.0527,0.091,0.1154,0.1069,0.1406,0.1913,0.2507,0.3251,0.4023,0.4755,0.5868,0.6961,0.7883,0.8448,0.9085,0.9878,1.0602,1.1269,1.1647,1.1911,1.2173,1.2468,1.2674,1.28,1.28,1.2915,1.2989,1.2989,1.3119,1.3241,1.3302,1.3842,1.4564,1.5399,1.5437,1.5528,1.5831,1.5664,1.5774,1.6156,1.6156,1.6362,1.6721,1.6721,1.6919,1.7202,1.7041,1.6863,1.673,1.673,1.673,1.673,1.673,1.673,1.673,1.673,1.673,1.6778,1.7016,1.7405,1.7811,1.8049,1.8454,1.8827,1.8827,1.8827,1.8827,1.8827,1.8735,1.8651,1.855,1.855,1.855,1.8651,1.8553,1.8438,1.8319,1.8112,1.7842,1.7501,1.7608,1.7604,1.7454,1.7709,1.8083,1.8454,1.8983,1.9423,1.9737,1.9966,2.0201,2.0292,2.0292,2.0292,2.0292,2.0292,2.018,1.9941,2.0163,2.0172,1.9932,2.0163,2.0292,2.0292,2.0292,2.0292,2.0292,2.0292,2.0292,0.0,0.0,0.0,-0.0404,-0.0066,0.0323,0.0517,0.0758,0.1174,0.1728,0.2465,0.3287,0.4265,0.4893,0.5719,0.7015,0.8103,0.8905,0.9412,0.9947,1.0394,1.0827,1.1197,1.1479,1.1487,1.2093,1.248,1.248,1.2759,1.2964,1.2964,1.2981,1.3111,1.3302,1.3842,1.429,1.4684,1.5035,1.5411,1.5797,1.5797,1.5797,1.5797,1.5797,1.5985,1.631,1.6319,1.6438,1.6797,1.6806,1.6717,1.6714,1.6714,1.6722,1.673,1.673,1.673,1.673,1.673,1.673,1.673,1.673,1.7207,1.7771,1.7771,1.8263,1.8827,1.8827,1.8827,1.8827,1.8827,1.8651,1.8388,1.8179,1.8087,1.8179,1.8388,1.8651,1.8724,1.8383,1.8319,1.82,1.7842,1.7787,1.7874,1.8048,1.8143,1.836,1.8888,1.9026,1.9264,1.9803,1.9936,2.0019,2.0292,2.0292,2.0292,2.0292,2.0292,2.0292,2.0292,2.0292,2.0292,2.0292,2.0292,2.0292,2.0292,2.0292,2.0292,2.0292,2.0292,2.0292,-0.1397,0.0,0.0,0.0,0.0,0.0,-0.02,0.0261,0.0701,0.1082,0.1738,0.2534,0.3297,0.4122,0.4967,0.5736,0.7069,0.8127,0.8483,0.8911,0.9395,0.9986,1.0409,1.0776,1.102,1.1298,1.1475,1.1475,1.1913,1.2111,1.2111,1.2659,1.3111,1.3302,1.3842,1.429,1.4684,1.5035,1.548,1.6,1.6,1.607,1.614,1.607,1.6052,1.6147,1.6014,1.608,1.623,1.6343,1.6517,1.6517,1.6437,1.6508,1.673,1.673,1.673,1.673,1.673,1.673,1.673,1.673,1.7207,1.7771,1.7771,1.8263,1.8827,1.8827,1.8827,1.8735,1.8658,1.8381,1.8187,1.8087,1.8087,1.8087,1.8187,1.8272,1.8334,1.8609,1.8684,1.8565,1.8216,1.8152,1.8065,1.7898,1.8081,1.8378,1.8759,1.8986,1.9265,1.9662,1.9671,1.9671,1.9762,1.9936,2.0019,2.0019,2.0201,2.0292,2.0292,2.0292,2.0292,2.0292,2.0292,2.0292,2.0292,2.0292,2.0292,2.0292,2.0292,2.0292,-0.1579,-0.1497,-0.142,-0.1397,0.0,0.0,-0.0754,-0.0201,0.0329,0.0656,0.1217,0.1803,0.247,0.3311,0.4053,0.4646,0.5764,0.6853,0.7723,0.8256,0.8738,0.9254,0.9783,1.0185,1.0311,1.0676,1.0876,1.0789,1.1337,1.1734,1.1994,1.2623,1.305,1.3172,1.3619,1.4042,1.45,1.4861,1.5366,1.5956,1.6044,1.6202,1.6272,1.6289,1.6211,1.6061,1.6,1.5917,1.5922,1.5921,1.6078,1.6329,1.6316,1.6413,1.6532,1.6683,1.673,1.673,1.673,1.673,1.673,1.673,1.7111,1.7588,1.7731,1.816,1.8637,1.8788,1.8743,1.8651,1.8373,1.8094,1.79,1.78,1.78,1.7807,1.79,1.79,1.8087,1.8558,1.8651,1.868,1.8557,1.8518,1.8446,1.824,1.839,1.8526,1.8715,1.8891,1.9104,1.9387,1.9387,1.9487,1.9587,1.9671,1.9754,1.9754,1.9936,2.0027,2.0027,2.0027,2.0027,2.011,2.011,2.0201,2.0292,2.0292,2.0292,2.0292,2.0292,2.0292,-0.1844,-0.1831,-0.183,-0.1825,-0.1505,0.0,-0.1122,-0.062,-0.0,0.0336,0.0725,0.1219,0.1807,0.2481,0.317,0.3806,0.4399,0.5376,0.6918,0.7699,0.8244,0.8645,0.9203,0.9612,0.9549,1.0137,1.047,1.0349,1.0965,1.1646,1.2282,1.2736,1.2989,1.2989,1.3338,1.376,1.4282,1.4719,1.5226,1.5748,1.6069,1.6263,1.6351,1.6438,1.6368,1.6132,1.6132,1.6,1.5797,1.5647,1.569,1.5972,1.6288,1.6276,1.619,1.6547,1.6675,1.6683,1.6722,1.673,1.673,1.673,1.6976,1.7334,1.7628,1.7962,1.8311,1.8669,1.8619,1.8381,1.8179,1.7908,1.7628,1.7333,1.7326,1.7333,1.7621,1.7628,1.7822,1.8295,1.8481,1.8574,1.8743,1.8827,1.8827,1.8827,1.8827,1.8827,1.8827,1.8827,1.892,1.9096,1.9188,1.9288,1.9496,1.9587,1.9587,1.9587,1.9587,1.9587,1.9587,1.9587,1.9671,1.9837,1.9845,2.0019,2.0201,2.0292,2.0292,2.0292,2.0292,2.0292,-0.2344,-0.218,-0.2096,-0.2054,-0.1816,0.0,-0.1408,-0.1117,-0.076,-0.0338,0.0335,0.0859,0.122,0.2031,0.2754,0.322,0.392,0.4786,0.5922,0.6739,0.7375,0.783,0.8585,0.9118,0.9189,0.9633,0.9928,0.9923,1.0792,1.1639,1.2282,1.2736,1.2989,1.2989,1.3467,1.3891,1.4282,1.4857,1.5441,1.5959,1.6354,1.6612,1.6769,1.6621,1.6542,1.6473,1.6202,1.6061,1.6,1.5797,1.5766,1.5716,1.5715,1.5767,1.5825,1.6174,1.6309,1.6349,1.6635,1.673,1.673,1.673,1.6976,1.7294,1.7358,1.7612,1.7946,1.8303,1.8247,1.8179,1.8087,1.7707,1.7333,1.7333,1.7326,1.7333,1.7333,1.7426,1.7426,1.7815,1.8195,1.8481,1.8574,1.8651,1.8827,1.8827,1.8827,1.8827,1.8827,1.8827,1.8827,1.8827,1.892,1.892,1.892,1.9196,1.9288,1.9288,1.9487,1.9587,1.9587,1.9587,1.9587,1.9671,1.9671,1.9671,1.9762,2.0119,2.0292,2.0292,2.0292,2.0292,-0.2629,-0.2466,-0.2307,-0.2279,-0.2176,0.0,0.0,-0.1429,-0.1047,-0.0827,-0.0136,0.0467,0.0778,0.1352,0.1975,0.2537,0.3197,0.3884,0.4639,0.5843,0.6827,0.7483,0.8192,0.8686,0.8818,0.9304,0.9715,1.0071,1.0797,1.1518,1.2166,1.2683,1.292,1.2989,1.3528,1.3926,1.4118,1.4951,1.5539,1.5869,1.6469,1.683,1.6908,1.683,1.676,1.6709,1.6482,1.6272,1.6061,1.6,1.5828,1.5574,1.561,1.5567,1.5635,1.6086,1.6206,1.6261,1.6611,1.673,1.673,1.673,1.6857,1.704,1.7223,1.7636,1.8073,1.8247,1.8185,1.8087,1.8087,1.7707,1.7326,1.7326,1.7326,1.7326,1.7326,1.7326,1.7333,1.7434,1.7815,1.8202,1.8481,1.8566,1.8651,1.8735,1.8827,1.8827,1.8827,1.8827,1.8827,1.8827,1.8827,1.8827,1.8827,1.892,1.9012,1.9012,1.9112,1.9204,1.9204,1.9204,1.9296,1.9387,1.9487,1.9587,1.9587,1.9853,1.9936,1.9936,2.0019,2.011,-0.2826,-0.2668,-0.2511,-0.2511,-0.2398,-0.221,0.0,0.0,0.0,-0.1123,-0.0551,0.0067,0.0393,0.0845,0.1289,0.1889,0.2443,0.3003,0.3504,0.4917,0.6191,0.7068,0.7804,0.8335,0.8527,0.9092,0.9716,1.039,1.087,1.1404,1.1981,1.2498,1.2867,1.2989,1.3528,1.389,1.401,1.5034,1.5624,1.5771,1.6582,1.6968,1.6968,1.6978,1.6987,1.6917,1.676,1.6473,1.6202,1.6132,1.5921,1.5601,1.568,1.5577,1.5438,1.5931,1.6047,1.615,1.6508,1.6675,1.673,1.673,1.673,1.6786,1.7088,1.7652,1.82,1.82,1.8138,1.8087,1.8087,1.7707,1.7326,1.7326,1.7326,1.7326,1.7326,1.7326,1.7326,1.7326,1.7434,1.7815,1.8288,1.8481,1.8566,1.8735,1.8827,1.8827,1.8827,1.8827,1.8827,1.8827,1.8827,1.8827,1.8827,1.8827,1.8827,1.8827,1.8827,1.8827,1.8827,1.8827,1.892,1.9096,1.9304,1.9496,1.9496,1.9496,1.9496,1.9587,1.9762,1.9845,-0.2902,-0.2747,-0.2746,-0.2511,-0.2506,-0.241,-0.2209,0.0,-0.1631,-0.1203,0.0,-0.0277,-0.0,0.0,0.0,0.1199,0.1929,0.2659,0.3193,0.3985,0.4928,0.6093,0.7049,0.7742,0.8195,0.9029,0.9799,1.0508,1.0885,1.1337,1.1802,1.2428,1.2867,1.2989,1.3649,1.401,1.401,1.5097,1.5762,1.5983,1.6784,1.7235,1.7285,1.7382,1.7235,1.6913,1.689,1.676,1.6542,1.6202,1.6061,1.6,1.5689,1.5279,1.5049,1.5438,1.5627,1.5785,1.6142,1.6468,1.673,1.673,1.673,1.6746,1.6786,1.7278,1.7834,1.7834,1.7951,1.8087,1.8087,1.7707,1.7326,1.7326,1.7326,1.7326,1.7326,1.7326,1.7326,1.7326,1.7326,1.752,1.8087,1.8381,1.8566,1.8735,1.8827,1.8827,1.8827,1.8827,1.8827,1.8827,1.8827,1.8827,1.8827,1.8827,1.8827,1.8827,1.8827,1.8827,1.8827,1.8827,1.8827,1.8827,1.892,1.8928,1.8928,1.8928,1.9112,1.9587,1.9587,1.9587,-0.3061,-0.2826,-0.2589,-0.2511,-0.2511,-0.2504,-0.2402,-0.2066,-0.1732,-0.1547,0.0,0.0,0.0,0.0,0.0,0.0,0.168,0.2217,0.2552,0.3353,0.4268,0.5528,0.6367,0.7199,0.8102,0.8818,0.953,1.0174,1.0681,1.1178,1.174,1.2305,1.2736,1.2981,1.3649,1.4116,1.4338,1.535,1.6011,1.6393,1.7041,1.7392,1.7461,1.747,1.7392,1.7148,1.7097,1.689,1.6603,1.6342,1.6202,1.6061,1.5788,1.5505,1.5262,1.5406,1.5689,1.5891,1.6087,1.6436,1.673,1.673,1.673,1.673,1.673,1.7223,1.7771,1.7771,1.8018,1.8288,1.8179,1.7807,1.7527,1.7333,1.7326,1.7326,1.7326,1.7326,1.7326,1.7326,1.7326,1.7426,1.7807,1.8094,1.8381,1.8566,1.8743,1.8827,1.8827,1.8827,1.8827,1.8827,1.8827,1.8827,1.8827,1.8827,1.8827,1.8827,1.8827,1.8827,1.8827,1.8827,1.8827,1.8827,1.8827,1.8827,1.8827,1.8827,1.8928,1.9112,1.9296,1.9387,-0.3062,-0.2826,-0.2589,-0.2511,-0.2511,-0.2511,-0.2511,-0.2169,-0.1834,-0.1822,-0.1493,0.0,0.0,0.0,0.0492,0.1035,0.0,0.1784,0.204,0.2783,0.372,0.4964,0.5888,0.6806,0.7912,0.8495,0.9081,0.9728,1.0301,1.087,1.156,1.2112,1.2591,1.3067,1.3735,1.4347,1.4737,1.567,1.629,1.6712,1.7271,1.7539,1.7695,1.7676,1.7529,1.7314,1.7314,1.7028,1.6682,1.6482,1.6272,1.6132,1.5929,1.5797,1.561,1.551,1.5674,1.6029,1.6132,1.6357,1.673,1.673,1.673,1.6754,1.6849,1.7294,1.7795,1.789,1.8186,1.8481,1.8179,1.7908,1.7628,1.7333,1.7326,1.7326,1.7326,1.7326,1.7326,1.7326,1.7326,1.7333,1.7535,1.7807,1.8094,1.8481,1.8658,1.8743,1.8827,1.8827,1.8827,1.8827,1.8827,1.8827,1.8827,1.8827,1.8827,1.8827,1.8827,1.8827,1.8827,1.8827,1.8827,1.8827,1.8827,1.8827,1.8827,1.8827,1.8827,1.8827,1.9012,1.9096,-0.2902,-0.2826,-0.2746,-0.2511,-0.2511,-0.2511,-0.2511,-0.2198,-0.1872,-0.1828,-0.1514,-0.1126,-0.0585,-0.0291,0.0218,0.1091,0.1164,0.0,0.0,0.2308,0.3111,0.4233,0.555,0.6679,0.7456,0.7977,0.856,0.9274,0.9792,1.0364,1.1059,1.1747,1.2516,1.3363,1.4059,1.4628,1.5163,1.5894,1.6503,1.693,1.7271,1.7676,1.8008,1.8008,1.7725,1.7285,1.7451,1.7254,1.6908,1.6682,1.6473,1.6272,1.6132,1.6,1.5797,1.5593,1.5683,1.5996,1.6005,1.6316,1.673,1.673,1.673,1.6802,1.7159,1.7501,1.7842,1.8184,1.8375,1.8481,1.8179,1.7908,1.7628,1.7333,1.7326,1.7326,1.7326,1.7326,1.7326,1.7326,1.7326,1.7326,1.7333,1.7527,1.7916,1.8388,1.8481,1.8574,1.8735,1.8827,1.8827,1.8827,1.8827,1.8827,1.8827,1.8827,1.8827,1.8827,1.8827,1.8827,1.8827,1.8827,1.8827,1.8827,1.8827,1.8827,1.8827,1.8827,1.8827,1.8827,1.8827,1.8827,-0.2824,-0.2668,-0.2589,-0.2511,-0.2511,-0.2431,-0.2353,-0.212,-0.1883,-0.1711,-0.1475,-0.1232,-0.1052,-0.0448,0.0149,0.0731,0.1021,0.1308,0.0,0.2516,0.3365,0.4177,0.5504,0.6626,0.7393,0.7957,0.8538,0.9257,0.9921,1.0653,1.136,1.221,1.2964,1.3664,1.4202,1.4911,1.5562,1.6039,1.6585,1.7116,1.7394,1.7539,1.7676,1.7676,1.752,1.7235,1.7314,1.7185,1.6908,1.6551,1.6342,1.6272,1.6,1.5867,1.5805,1.5576,1.583,1.6223,1.6381,1.654,1.673,1.673,1.673,1.6802,1.7167,1.7509,1.7842,1.82,1.8466,1.8651,1.8179,1.7994,1.7807,1.7426,1.7326,1.7326,1.7326,1.7326,1.7326,1.7326,1.7326,1.7326,1.7326,1.7426,1.7527,1.7916,1.8295,1.8481,1.8566,1.8743,1.8827,1.8827,1.8827,1.8827,1.8827,1.8827,1.8827,1.8827,1.8827,1.8827,1.8827,1.8827,1.8827,1.8827,1.8827,1.8827,1.8827,1.8827,1.8827,1.8827,1.8827,1.8827,-0.2746,-0.2589,-0.2511,-0.2511,-0.2431,-0.2353,-0.2196,-0.1962,-0.1729,-0.165,-0.1415,-0.1251,-0.1078,-0.0691,-0.0229,0.045,0.0974,0.1419,0.0,0.2732,0.354,0.4345,0.5324,0.623,0.7019,0.7622,0.8299,0.8974,0.9796,1.0545,1.1209,1.2133,1.2968,1.3692,1.4313,1.5035,1.5764,1.6174,1.6642,1.7107,1.7323,1.7461,1.747,1.7539,1.7401,1.7166,1.7245,1.7038,1.676,1.6482,1.6342,1.6202,1.6,1.5867,1.5805,1.5655,1.5903,1.6341,1.6581,1.673,1.673,1.673,1.673,1.6826,1.731,1.7604,1.7874,1.8351,1.8653,1.8735,1.8179,1.8087,1.7986,1.7419,1.7326,1.7326,1.7326,1.7326,1.7326,1.7326,1.7326,1.7326,1.7326,1.7326,1.7426,1.7628,1.8009,1.8295,1.8481,1.8566,1.8743,1.8827,1.8827,1.8827,1.8827,1.8827,1.8827,1.8827,1.8827,1.8827,1.8827,1.8827,1.8827,1.8827,1.8827,1.8827,1.8827,1.8827,1.8827,1.8827,1.8827,1.8827]},{"header":{"parameterUnit":"m.s-1","parameterCategory":1,"la1":30.6,"la2":29.2853,"lo1":-89.7004,"lo2":-87.6739,"dy":0.0162,"dx":0.0183,"nx":112,"ny":82,"refTime":"2023-07-14T00:00:00:Z","depth":0,"parameterNumber":3,"parameterNumberName":"V-component_of_WINDS"},"data":[0.0,0.0,0.0,0.0,0.0,0.0,0.0,0.0,0.0,0.0,0.0,0.0,0.0,0.0,0.0,0.0,0.0,0.0,0.0,0.0,0.0,0.0,0.0,0.0,0.0,0.0,0.0,0.0,0.0,0.0,0.0,0.0,0.0,0.0,0.0,0.0,0.0,0.0,0.0,0.0,0.0,0.0,0.0,0.0,0.0,0.0,0.0,0.0,0.0,0.0,0.0,0.0,0.0,0.0,0.0,0.0,0.0,0.0,0.0,0.0,0.0,0.0,0.0,0.0,0.0,0.0,0.0,0.0,0.0,0.0,0.0,0.0,0.0,0.0,0.0,0.0,0.0,0.0,0.0,0.0,0.0,0.0,0.0,0.0,0.0,0.0,0.0,0.0,0.0,0.0,-1.7352,-1.8009,-1.8293,-1.8444,-1.8361,-1.6562,-1.5344,-1.5074,0.0,0.0,0.0,0.0,0.0,0.0,0.0,0.0,0.0,0.0,0.0,0.0,0.0,0.0,0.0,0.0,0.0,0.0,0.0,0.0,0.0,0.0,0.0,0.0,0.0,0.0,0.0,0.0,0.0,0.0,0.0,0.0,0.0,0.0,0.0,0.0,0.0,0.0,0.0,0.0,0.0,0.0,0.0,0.0,0.0,0.0,0.0,0.0,0.0,0.0,0.0,0.0,0.0,0.0,0.0,0.0,0.0,0.0,0.0,0.0,0.0,0.0,0.0,0.0,0.0,0.0,0.0,0.0,0.0,0.0,0.0,0.0,0.0,0.0,0.0,0.0,0.0,0.0,0.0,0.0,0.0,0.0,0.0,0.0,0.0,0.0,0.0,0.0,0.0,0.0,0.0,0.0,0.0,0.0,0.0,0.0,0.0,0.0,0.0,0.0,0.0,0.0,0.0,0.0,-1.8187,-1.8678,-1.904,-1.8594,-1.6977,-1.6653,-1.5803,-1.4044,0.0,0.0,0.0,0.0,0.0,0.0,0.0,0.0,0.0,0.0,0.0,0.0,0.0,0.0,0.0,0.0,0.0,0.0,0.0,0.0,0.0,0.0,0.0,0.0,0.0,0.0,0.0,0.0,0.0,0.0,0.0,0.0,0.0,0.0,0.0,0.0,0.0,0.0,0.0,0.0,0.0,0.0,0.0,0.0,0.0,0.0,0.0,0.0,0.0,0.0,0.0,0.0,0.0,0.0,0.0,0.0,0.0,0.0,0.0,0.0,0.0,0.0,0.0,0.0,0.0,0.0,0.0,0.0,0.0,0.0,0.0,0.0,0.0,0.0,0.0,0.0,0.0,0.0,0.0,0.0,0.0,0.0,0.0,0.0,0.0,0.0,0.0,0.0,0.0,0.0,0.0,0.0,0.0,0.0,0.0,0.0,0.0,0.0,0.0,0.0,0.0,0.0,0.0,-1.9171,-1.9903,-1.9968,-1.9904,-1.9149,-1.7516,-1.673,-1.5728,-1.4335,-1.3174,0.0,0.0,0.0,0.0,0.0,0.0,0.0,0.0,0.0,0.0,0.0,0.0,0.0,0.0,0.0,0.0,0.0,0.0,0.0,0.0,0.0,0.0,0.0,0.0,0.0,0.0,0.0,0.0,0.0,0.0,0.0,0.0,0.0,0.0,0.0,0.0,0.0,0.0,0.0,0.0,0.0,0.0,0.0,0.0,0.0,0.0,0.0,0.0,0.0,0.0,0.0,0.0,0.0,0.0,0.0,0.0,0.0,0.0,0.0,0.0,0.0,0.0,0.0,0.0,0.0,0.0,0.0,0.0,0.0,0.0,0.0,0.0,0.0,0.0,0.0,0.0,0.0,0.0,0.0,0.0,0.0,0.0,0.0,0.0,0.0,0.0,0.0,0.0,0.0,0.0,0.0,0.0,0.0,0.0,0.0,0.0,0.0,0.0,0.0,0.0,0.0,0.0,-2.1346,-2.1581,-2.109,-2.0745,-1.982,-1.7966,-1.6799,-1.572,-1.4691,-1.3155,0.0,0.0,0.0,0.0,0.0,0.0,0.0,0.0,0.0,0.0,0.0,0.0,0.0,0.0,0.0,0.0,0.0,0.0,0.0,0.0,0.0,0.0,0.0,0.0,0.0,0.0,0.0,0.0,0.0,0.0,0.0,0.0,0.0,0.0,0.0,0.0,0.0,0.0,0.0,0.0,0.0,0.0,0.0,0.0,0.0,0.0,0.0,0.0,0.0,0.0,0.0,0.0,0.0,0.0,0.0,0.0,0.0,0.0,0.0,0.0,0.0,0.0,0.0,0.0,0.0,0.0,0.0,0.0,0.0,0.0,0.0,0.0,0.0,0.0,0.0,0.0,0.0,0.0,0.0,0.0,0.0,0.0,0.0,0.0,0.0,0.0,0.0,0.0,0.0,0.0,0.0,0.0,0.0,0.0,0.0,0.0,0.0,0.0,0.0,0.0,0.0,0.0,-2.278,-2.2709,-2.1581,-2.153,-2.0348,-1.725,-1.696,-1.6214,-1.4519,-1.292,0.0,0.0,0.0,0.0,0.0,0.0,0.0,0.0,0.0,0.0,0.0,0.0,0.0,0.0,0.0,0.0,0.0,0.0,0.0,0.0,0.0,0.0,0.0,0.0,0.0,0.0,0.0,0.0,0.0,0.0,0.0,0.0,0.0,0.0,0.0,0.0,0.0,0.0,0.0,0.0,0.0,0.0,0.0,0.0,0.0,0.0,0.0,0.0,0.0,0.0,0.0,0.0,0.0,0.0,0.0,0.0,0.0,0.0,0.0,0.0,0.0,0.0,0.0,0.0,0.0,0.0,0.0,0.0,0.0,0.0,0.0,0.0,0.0,0.0,0.0,0.0,0.0,0.0,0.0,0.0,0.0,0.0,0.0,0.0,0.0,0.0,0.0,0.0,0.0,0.0,0.0,0.0,0.0,0.0,0.0,0.0,0.0,0.0,0.0,0.0,0.0,0.0,-2.3836,-2.3588,-2.2276,-2.2163,-2.0879,-1.7616,-1.7322,-1.6571,-1.4821,0.0,0.0,0.0,0.0,0.0,0.0,0.0,0.0,0.0,0.0,0.0,0.0,0.0,0.0,0.0,0.0,0.0,0.0,0.0,0.0,0.0,0.0,0.0,0.0,0.0,0.0,0.0,0.0,0.0,0.0,0.0,0.0,0.0,0.0,0.0,0.0,0.0,0.0,0.0,0.0,0.0,0.0,0.0,0.0,0.0,0.0,0.0,0.0,0.0,0.0,0.0,0.0,0.0,0.0,0.0,0.0,0.0,0.0,0.0,0.0,0.0,0.0,0.0,0.0,0.0,0.0,0.0,0.0,0.0,0.0,0.0,0.0,0.0,0.0,0.0,0.0,0.0,0.0,0.0,0.0,0.0,0.0,0.0,0.0,0.0,0.0,0.0,0.0,0.0,0.0,0.0,0.0,0.0,0.0,0.0,0.0,0.0,0.0,0.0,0.0,0.0,0.0,-2.4071,-2.4578,-2.4185,-2.2711,-2.2585,-2.1253,-1.7936,-1.7626,-1.6852,-1.5108,0.0,0.0,0.0,0.0,0.0,0.0,0.0,0.0,0.0,0.0,0.0,0.0,0.0,0.0,0.0,0.0,0.0,0.0,0.0,0.0,0.0,0.0,0.0,0.0,0.0,0.0,0.0,0.0,0.0,0.0,0.0,0.0,0.0,0.0,0.0,0.0,0.0,0.0,0.0,0.0,0.0,0.0,0.0,0.0,0.0,0.0,0.0,0.0,0.0,0.0,0.0,0.0,0.0,0.0,0.0,0.0,0.0,0.0,0.0,0.0,0.0,0.0,0.0,0.0,0.0,0.0,0.0,0.0,0.0,0.0,0.0,0.0,0.0,0.0,0.0,0.0,0.0,0.0,0.0,0.0,0.0,0.0,0.0,0.0,0.0,0.0,0.0,0.0,0.0,0.0,0.0,0.0,0.0,0.0,0.0,0.0,0.0,0.0,0.0,0.0,0.0,0.0,-2.4566,-2.4974,-2.4481,-2.2864,-2.2759,-2.1448,-1.8104,-1.7802,-1.7065,0.0,0.0,0.0,0.0,0.0,0.0,0.0,0.0,0.0,0.0,0.0,0.0,0.0,0.0,0.0,0.0,0.0,0.0,0.0,0.0,0.0,0.0,0.0,0.0,0.0,0.0,0.0,0.0,0.0,0.0,0.0,0.0,0.0,0.0,0.0,0.0,0.0,0.0,0.0,0.0,0.0,0.0,0.0,0.0,0.0,0.0,0.0,0.0,0.0,0.0,0.0,0.0,0.0,0.0,0.0,0.0,0.0,0.0,0.0,0.0,0.0,0.0,0.0,0.0,0.0,0.0,0.0,0.0,0.0,0.0,0.0,0.0,0.0,0.0,0.0,0.0,0.0,0.0,0.0,0.0,0.0,0.0,0.0,0.0,0.0,0.0,0.0,0.0,0.0,0.0,0.0,0.0,0.0,0.0,0.0,0.0,0.0,0.0,0.0,0.0,0.0,0.0,0.0,-2.4444,-2.4753,-2.4202,-2.2584,-2.2527,-2.1494,-1.8804,-1.8108,-1.7341,-1.6265,0.0,0.0,0.0,0.0,0.0,0.0,0.0,0.0,0.0,0.0,0.0,0.0,0.0,0.0,0.0,0.0,0.0,0.0,0.0,0.0,0.0,0.0,0.0,0.0,0.0,0.0,0.0,0.0,0.0,0.0,0.0,0.0,0.0,0.0,0.0,0.0,0.0,0.0,0.0,0.0,0.0,0.0,0.0,0.0,0.0,0.0,0.0,0.0,0.0,0.0,0.0,0.0,0.0,0.0,0.0,0.0,0.0,0.0,0.0,0.0,0.0,0.0,0.0,0.0,0.0,0.0,0.0,0.0,0.0,0.0,0.0,0.0,0.0,0.0,0.0,0.0,0.0,0.0,0.0,0.0,0.0,0.0,0.0,0.0,0.0,0.0,0.0,0.0,0.0,0.0,0.0,0.0,0.0,0.0,0.0,0.0,0.0,0.0,0.0,0.0,0.0,0.0,-2.3955,-2.4219,-2.369,-2.2149,-2.2123,-2.1293,-1.8973,-1.8131,-1.7388,-1.6604,0.0,0.0,0.0,0.0,0.0,0.0,0.0,0.0,0.0,0.0,0.0,0.0,0.0,0.0,0.0,0.0,0.0,0.0,0.0,0.0,0.0,0.0,0.0,0.0,0.0,0.0,0.0,0.0,0.0,0.0,0.0,0.0,0.0,0.0,0.0,0.0,0.0,0.0,0.0,0.0,0.0,0.0,0.0,0.0,0.0,0.0,0.0,0.0,0.0,0.0,0.0,0.0,0.0,0.0,0.0,0.0,0.0,0.0,0.0,0.0,0.0,0.0,0.0,0.0,0.0,0.0,0.0,0.0,0.0,0.0,0.0,0.0,0.0,0.0,0.0,0.0,0.0,0.0,0.0,0.0,0.0,0.0,0.0,0.0,0.0,0.0,0.0,0.0,0.0,0.0,0.0,0.0,0.0,0.0,0.0,0.0,0.0,0.0,0.0,0.0,0.0,0.0,-2.3184,-2.3372,-2.2878,-2.1571,-2.1559,-2.0844,-1.8839,-1.8005,-1.7304,-1.6643,0.0,0.0,0.0,0.0,0.0,0.0,0.0,0.0,0.0,0.0,0.0,0.0,0.0,0.0,0.0,0.0,0.0,0.0,0.0,0.0,0.0,0.0,0.0,0.0,0.0,0.0,0.0,0.0,0.0,0.0,0.0,0.0,0.0,0.0,0.0,0.0,0.0,0.0,0.0,0.0,0.0,0.0,0.0,0.0,0.0,0.0,0.0,0.0,0.0,0.0,0.0,0.0,0.0,0.0,0.0,0.0,0.0,0.0,0.0,0.0,-3.2369,-3.1295,0.0,0.0,0.0,0.0,0.0,0.0,0.0,0.0,0.0,0.0,0.0,0.0,0.0,0.0,0.0,0.0,0.0,0.0,0.0,0.0,0.0,0.0,0.0,0.0,0.0,0.0,0.0,0.0,0.0,0.0,0.0,0.0,0.0,0.0,0.0,0.0,0.0,0.0,0.0,0.0,-2.2185,-2.203,-2.1533,-2.0933,-2.064,-2.0124,-1.9295,-1.813,-1.7423,-1.7381,-1.6072,0.0,0.0,0.0,0.0,0.0,0.0,0.0,0.0,0.0,0.0,0.0,0.0,0.0,0.0,0.0,0.0,0.0,0.0,0.0,0.0,0.0,0.0,0.0,0.0,0.0,0.0,0.0,0.0,0.0,0.0,0.0,0.0,0.0,0.0,0.0,0.0,0.0,0.0,0.0,0.0,0.0,0.0,0.0,0.0,0.0,0.0,0.0,0.0,0.0,0.0,0.0,0.0,0.0,0.0,0.0,0.0,0.0,0.0,0.0,-3.4101,-3.2994,0.0,0.0,0.0,0.0,0.0,0.0,0.0,0.0,0.0,0.0,0.0,0.0,0.0,0.0,0.0,0.0,0.0,0.0,0.0,0.0,0.0,0.0,0.0,0.0,0.0,0.0,0.0,0.0,0.0,0.0,0.0,0.0,0.0,0.0,0.0,0.0,0.0,0.0,0.0,0.0,-2.0924,-2.0922,-2.054,-1.9865,-1.9805,-1.9631,-1.9193,-1.8315,-1.7864,-1.8019,-1.6977,0.0,0.0,0.0,0.0,0.0,0.0,0.0,0.0,0.0,0.0,0.0,0.0,0.0,0.0,0.0,0.0,0.0,0.0,0.0,0.0,0.0,0.0,0.0,0.0,0.0,0.0,0.0,0.0,0.0,0.0,0.0,0.0,0.0,0.0,0.0,0.0,0.0,0.0,0.0,0.0,0.0,0.0,0.0,0.0,0.0,0.0,0.0,0.0,0.0,0.0,0.0,0.0,0.0,-3.5743,-3.6042,-3.6054,-3.6181,-3.6235,-3.6194,-3.5284,-3.442,-3.3649,-3.3736,0.0,0.0,0.0,0.0,0.0,0.0,0.0,0.0,0.0,0.0,0.0,0.0,0.0,0.0,0.0,0.0,0.0,0.0,0.0,0.0,0.0,0.0,-3.0671,-3.0406,-3.0074,-2.9589,-2.8766,0.0,0.0,0.0,0.0,0.0,0.0,0.0,0.0,0.0,0.0,0.0,-1.9704,-1.9787,-1.9547,-1.8801,-1.9023,-1.912,-1.8878,-1.8407,-1.8228,-1.8429,-1.7814,-1.7504,0.0,0.0,0.0,0.0,0.0,0.0,0.0,0.0,0.0,0.0,0.0,0.0,0.0,0.0,0.0,0.0,0.0,0.0,0.0,0.0,0.0,0.0,0.0,0.0,0.0,0.0,0.0,0.0,0.0,0.0,0.0,0.0,-2.7759,-2.7945,0.0,0.0,0.0,0.0,0.0,0.0,0.0,0.0,0.0,0.0,0.0,0.0,0.0,-3.3769,-3.4504,-3.4988,-3.5273,-3.5357,-3.5914,-3.6167,-3.6203,-3.6916,-3.722,-3.7202,-3.7235,0.0,-3.5717,-3.5717,0.0,0.0,0.0,0.0,0.0,0.0,0.0,0.0,0.0,0.0,0.0,0.0,0.0,0.0,0.0,0.0,0.0,0.0,0.0,0.0,0.0,0.0,-3.0868,-3.0491,-3.017,-2.9844,-2.9383,-2.7788,-2.6219,-2.5452,-2.3294,-2.1279,0.0,0.0,0.0,0.0,0.0,0.0,-1.9096,-1.8452,-1.809,-1.8416,-1.8245,-1.826,-1.8604,-1.8157,-1.795,-1.8215,-1.7611,-1.7291,-1.7433,-1.8209,0.0,0.0,0.0,0.0,0.0,0.0,0.0,0.0,0.0,0.0,0.0,0.0,0.0,0.0,0.0,0.0,0.0,0.0,0.0,0.0,0.0,0.0,0.0,0.0,0.0,0.0,0.0,0.0,0.0,-2.9281,-3.0164,-3.0237,-3.0263,-3.0485,0.0,0.0,0.0,0.0,0.0,0.0,0.0,0.0,0.0,-3.4037,-3.4448,-3.4932,-3.5576,-3.5561,-3.5794,-3.6236,-3.6383,-3.6426,-3.6443,-3.6872,-3.7069,-3.7069,-3.7299,-3.7094,-3.6626,-3.6544,-3.6222,-3.5805,0.0,0.0,0.0,0.0,-3.5884,-3.5878,-3.5877,-3.5639,-3.5294,-3.4932,0.0,0.0,0.0,0.0,0.0,0.0,0.0,-3.0861,-3.0668,-3.0976,-3.1229,-3.084,-3.0494,-3.0175,-2.9723,-2.8437,-2.6904,-2.5313,-2.3795,-2.2215,-2.0393,-1.9581,0.0,0.0,0.0,-1.8416,-1.8308,-1.8115,-1.7877,-1.7578,-1.7669,-1.7915,-1.8351,-1.8359,-1.8458,-1.8694,-1.855,-1.8696,-1.9276,-1.9736,-2.0349,0.0,0.0,0.0,0.0,0.0,0.0,0.0,0.0,0.0,0.0,0.0,0.0,0.0,0.0,0.0,0.0,0.0,0.0,0.0,0.0,0.0,0.0,0.0,0.0,0.0,0.0,0.0,0.0,-3.13,-3.2291,-3.2322,-3.2337,-3.2577,0.0,0.0,0.0,0.0,0.0,0.0,-3.3498,-3.4074,-3.4642,-3.5163,-3.5316,-3.5776,-3.6659,-3.6317,-3.6399,-3.7015,-3.6828,-3.6658,-3.6509,-3.6609,-3.669,-3.6731,-3.693,-3.7031,-3.7017,-3.697,-3.659,-3.6052,-3.6083,-3.6116,-3.6116,-3.6131,-3.6125,-3.6118,-3.6157,-3.6197,-3.6161,-3.5964,-3.5693,-3.5256,-3.4069,0.0,0.0,0.0,0.0,-3.1375,-3.122,-3.1351,-3.1483,-3.1095,-3.0716,-3.0384,-2.9897,-2.9054,-2.7674,-2.5446,-2.4265,-2.3031,-2.0991,-2.0171,0.0,-1.9296,-1.9049,-1.8607,-1.7799,-1.7929,-1.7751,-1.6953,-1.7296,-1.7732,-1.8125,-1.8506,-1.8825,-1.9049,-1.941,-1.997,-2.07,-2.1001,-2.1496,-2.2309,0.0,0.0,0.0,0.0,0.0,0.0,0.0,0.0,0.0,0.0,0.0,0.0,0.0,0.0,0.0,0.0,0.0,0.0,0.0,0.0,0.0,0.0,0.0,0.0,0.0,0.0,0.0,0.0,0.0,-3.3242,-3.3227,0.0,0.0,0.0,0.0,-3.2554,-3.3677,-3.4203,-3.3806,-3.49,-3.5732,-3.6203,-3.5819,-3.6282,-3.7718,-3.7413,-3.7212,-3.7264,-3.7158,-3.6764,-3.6208,-3.6276,-3.6385,-3.6544,-3.6748,-3.6829,-3.6851,-3.7147,-3.7264,-3.721,-3.7228,-3.721,-3.721,-3.7305,-3.7324,-3.7324,-3.747,-3.7506,-3.7399,-3.6595,-3.5846,-3.5204,-3.5114,-3.4406,0.0,0.0,-3.2862,-3.202,-3.1896,-3.1674,-3.1423,-3.1095,-3.0716,-3.0384,-2.9897,-2.9406,-2.8463,-2.6517,-2.4714,-2.3155,-2.209,0.0,-1.9835,-1.9843,-1.897,-1.8179,-1.7754,-1.7532,-1.7261,-1.6843,-1.7224,-1.7647,-1.7984,-1.8328,-1.8622,-1.8895,-1.9774,-2.0331,-2.0519,-2.1305,-2.213,-2.294,-2.2958,0.0,0.0,0.0,0.0,0.0,0.0,0.0,0.0,0.0,0.0,0.0,0.0,0.0,0.0,0.0,0.0,0.0,0.0,0.0,0.0,0.0,0.0,0.0,0.0,0.0,0.0,0.0,0.0,-3.4131,-3.4062,0.0,-3.4574,-3.3942,-3.3794,-3.4566,-3.4828,-3.5214,-3.5823,-3.5951,-3.6257,-3.6801,-3.6334,-3.6288,-3.6842,-3.6517,-3.6314,-3.6314,-3.6385,-3.6293,-3.6079,-3.6216,-3.6343,-3.6502,-3.6684,-3.6748,-3.6829,-3.7087,-3.7147,-3.7203,-3.7259,-3.7334,-3.7354,-3.741,-3.7429,-3.754,-3.7577,-3.7577,-3.7541,-3.7255,-3.6631,-3.5971,-3.5918,-3.5296,-3.4499,-3.3899,-3.3371,-3.2826,-3.2105,-3.1819,-3.1614,-3.123,-3.0918,-3.0576,-3.0172,-2.9677,-2.8958,-2.7545,-2.6031,-2.4537,-2.3128,-2.1693,-2.0578,-2.0157,-1.9493,-1.8752,-1.7947,-1.7946,-1.7773,-1.702,-1.7272,-1.7647,-1.8035,-1.8819,-1.9381,-1.9576,-2.0498,-2.1279,-2.1899,-2.2264,-2.2813,-2.3636,-2.4087,-2.4551,0.0,0.0,0.0,0.0,0.0,0.0,0.0,0.0,0.0,0.0,0.0,0.0,0.0,0.0,0.0,0.0,0.0,0.0,0.0,0.0,0.0,0.0,0.0,0.0,0.0,-3.4973,-3.5476,-3.5418,-3.5262,-3.5218,-3.529,-3.4576,-3.4548,-3.5585,-3.5551,-3.5897,-3.6768,-3.6613,-3.6655,-3.6952,-3.6509,-3.6396,-3.6612,-3.6368,-3.6236,-3.6236,-3.6324,-3.6275,-3.6062,-3.6216,-3.6343,-3.6502,-3.6684,-3.6788,-3.6869,-3.7031,-3.7147,-3.7164,-3.7259,-3.7334,-3.7354,-3.741,-3.7447,-3.754,-3.7577,-3.7577,-3.7613,-3.7613,-3.7256,-3.6792,-3.6774,-3.6007,-3.4959,-3.434,-3.3671,-3.2967,-3.223,-3.1929,-3.1726,-3.1406,-3.1117,-3.074,-3.0401,-2.9957,-2.9351,-2.8278,-2.6901,-2.5516,-2.4148,-2.2708,-2.1488,-2.0838,-2.0325,-1.9632,-1.8522,-1.8703,-1.8532,-1.7562,-1.8004,-1.8414,-1.8534,-1.9507,-2.0197,-2.038,-2.1288,-2.2072,-2.2677,-2.297,-2.3517,-2.4317,-2.5258,-2.5726,-2.5679,0.0,0.0,0.0,0.0,0.0,0.0,0.0,0.0,0.0,0.0,0.0,0.0,0.0,0.0,0.0,0.0,0.0,0.0,0.0,0.0,0.0,0.0,0.0,-3.5946,-3.6638,-3.7113,-3.7045,-3.6829,-3.6286,-3.5229,-3.487,-3.4883,-3.5404,-3.5845,-3.6204,-3.6504,-3.6891,-3.697,-3.6702,-3.6395,-3.6526,-3.7264,-3.7131,-3.7086,-3.7086,-3.7069,-3.6781,-3.6208,-3.6276,-3.6385,-3.6544,-3.6708,-3.6869,-3.7009,-3.7069,-3.7203,-3.7297,-3.7297,-3.7297,-3.7297,-3.7392,-3.7429,-3.7411,-3.7577,-3.7631,-3.7613,-3.7685,-3.7631,-3.7577,-3.7632,-3.6453,-3.5101,-3.5065,-3.3828,-3.2458,-3.2406,-3.209,-3.1783,-3.1654,-3.1312,-3.0935,-3.0593,-3.0258,-2.9686,-2.8629,-2.7243,-2.5938,-2.5179,-2.3749,-2.2525,-2.1913,-2.1379,0.0,-1.9572,-1.9783,-1.9573,-1.8467,-1.9403,-1.9928,-1.9477,-2.0363,-2.1036,-2.1225,-2.2118,-2.2668,-2.2745,-2.3451,-2.423,-2.5063,-2.6477,-2.7136,-2.7041,0.0,0.0,0.0,0.0,0.0,0.0,0.0,0.0,0.0,0.0,0.0,0.0,0.0,0.0,0.0,0.0,0.0,0.0,0.0,0.0,0.0,-3.6821,-3.7553,-3.693,-3.7483,-3.7929,-3.7823,-3.7063,-3.6361,-3.5874,-3.5052,-3.4965,-3.5984,-3.5937,-3.6295,-3.7256,-3.7175,-3.6992,-3.6788,-3.6544,-3.6481,-3.6586,-3.6474,-3.6448,-3.6448,-3.65,-3.6465,-3.6419,-3.6561,-3.6643,-3.6748,-3.6869,-3.7009,-3.7069,-3.7261,-3.7392,-3.7521,-3.7372,-3.7334,-3.739,-3.7503,-3.7631,-3.7774,-3.781,-3.7828,-3.7828,-3.7846,-3.7433,-3.6949,-3.6949,-3.6249,-3.5267,-3.4579,-3.4015,-3.3434,-3.2648,-3.2336,-3.2214,-3.2001,-3.1691,-3.1351,-3.1021,-3.0249,-2.9494,-2.9,-2.7589,-2.6281,-2.5563,-2.4153,-2.2952,-2.2325,-2.1833,-2.1111,-1.9988,-2.015,-2.016,-1.9579,-1.9991,-2.0332,-2.042,-2.1352,-2.1989,-2.219,-2.3053,-2.3567,-2.3646,-2.4411,-2.5423,-2.6711,-2.7036,-2.743,0.0,0.0,0.0,0.0,0.0,0.0,0.0,0.0,0.0,0.0,0.0,0.0,0.0,0.0,0.0,0.0,0.0,0.0,0.0,0.0,0.0,0.0,-3.8111,-3.8816,-3.8274,-3.854,-3.8739,-3.8627,-3.7655,-3.6759,-3.6159,-3.5139,-3.5006,-3.627,-3.6065,-3.6403,-3.765,-3.7429,-3.7147,-3.6913,-3.6731,-3.6568,-3.6509,-3.6461,-3.6395,-3.6395,-3.6461,-3.6527,-3.6626,-3.6748,-3.6869,-3.6913,-3.7087,-3.7241,-3.7299,-3.7449,-3.7613,-3.7703,0.0,0.0,0.0,0.0,-3.781,-3.7898,-3.7951,-3.7951,-3.7897,-3.7641,-3.7208,-3.6723,-3.645,-3.575,-3.4947,-3.4401,-3.3945,-3.3491,-3.2847,-3.2574,-3.2439,-3.2267,-3.2001,-3.1642,-3.098,-3.0273,-2.9515,-2.8622,-2.7597,0.0,-2.5902,-2.4831,-2.3795,-2.2954,-2.2591,-2.2066,-2.0947,-2.1077,-2.1088,-2.0713,-2.1233,-2.1587,-2.1519,-2.241,0.0,0.0,0.0,-2.4182,-2.4529,-2.5643,0.0,0.0,0.0,-2.8022,-2.8607,-2.9272,0.0,0.0,-3.114,-3.2231,0.0,0.0,0.0,0.0,0.0,0.0,0.0,0.0,0.0,0.0,0.0,0.0,0.0,0.0,0.0,0.0,-3.9319,-3.9821,-3.9772,-3.968,-3.956,-3.9326,-3.8342,-3.7278,-3.6195,-3.519,-3.5123,-3.6334,-3.6263,-3.6676,-3.7844,-3.7631,0.0,0.0,0.0,-3.6891,-3.6851,-3.6806,-3.6783,-3.6783,-3.6725,-3.6806,-3.6851,-3.697,-3.7087,-3.7185,-3.7374,-3.754,-3.7649,-3.7703,-3.7846,-3.7952,-3.7792,-3.7828,-3.7934,-3.7951,-3.7951,-3.7951,-3.8018,0.0,0.0,-3.7293,-3.6898,-3.6544,-3.595,-3.5108,-3.4315,-3.4285,-3.3705,-3.3042,-3.2948,-3.2802,-3.2606,-3.2491,-3.2301,-3.1864,-3.0817,-3.036,-2.9663,-2.79,-2.7348,-2.6952,-2.6234,-2.5663,-2.4933,-2.3756,-2.3617,-2.3227,-2.2241,-2.2271,-2.2245,-2.185,-2.2723,0.0,-2.2718,-2.344,-2.4034,-2.4261,-2.4429,-2.4853,-2.5583,-2.6973,-2.7689,-2.7592,-2.8207,-2.8757,-2.9236,-2.9963,-3.0586,-3.1147,-3.1969,-3.3087,0.0,0.0,0.0,0.0,0.0,0.0,0.0,0.0,0.0,0.0,0.0,0.0,0.0,0.0,0.0,-3.9491,-4.0214,-4.0719,-4.0665,-4.0583,-4.0217,-3.9341,-3.8312,-3.728,-3.6214,-3.5653,-3.5696,-3.6424,-3.6817,-3.7348,-3.8032,-3.7916,-3.7703,-3.7503,-3.7466,-3.7374,-3.7281,-3.7203,-3.7182,-3.7182,-3.7087,0.0,-3.7261,-3.7317,-3.7392,-3.7503,-3.7703,-3.7828,-3.7864,-3.7984,-3.8124,-3.8267,-3.8052,-3.805,-3.8223,-3.8212,-3.8263,-3.8303,-3.8318,-3.7899,-3.7353,-3.7221,-3.631,-3.5187,-3.5041,-3.4422,0.0,-3.3698,-3.356,-3.3393,-3.3244,-3.3104,-3.2961,-3.2852,-3.2639,-3.226,-3.1285,-3.0419,-2.9539,-2.8373,-2.7588,-2.7061,-2.6859,-2.6279,-2.5642,-2.4961,-2.4479,-2.4012,-2.3511,-2.3093,-2.2919,-2.3041,-2.3432,-2.3702,-2.3722,-2.4026,-2.4561,-2.5338,-2.6061,-2.6785,-2.7539,-2.7809,-2.8184,-2.8691,-2.867,-2.8941,-2.9528,-3.0095,-3.0676,-3.1311,-3.2582,-3.3554,0.0,0.0,0.0,0.0,0.0,0.0,0.0,0.0,0.0,0.0,0.0,-3.7706,-3.9002,0.0,-3.995,-4.0374,-4.0753,-4.0976,-4.0917,-4.0867,-4.0447,-3.9374,-3.838,-3.7389,-3.6293,-3.5977,-3.6096,-3.6658,-3.7276,-3.7831,-3.8355,-3.8252,-3.807,-3.7933,-3.7863,-3.7774,-3.7685,-3.7595,-3.7559,-3.7559,-3.7468,-3.7541,-3.7703,-3.7703,-3.7774,-3.7845,-3.807,-3.8138,-3.8189,-3.835,-3.8533,-3.8651,-3.8554,-3.8473,-3.8446,-3.8455,-3.8455,-3.851,-3.859,-3.8334,-3.7857,-3.7099,-3.6321,-3.5495,-3.4651,-3.411,-3.3753,-3.3698,-3.3671,-3.3633,-3.352,-3.3433,-3.3298,-3.3129,-3.2975,-3.2464,-3.1146,-3.0472,-2.9681,-2.8338,-2.7753,-2.7444,-2.7413,-2.7192,-2.6696,-2.5819,-2.5562,-2.5322,-2.4892,-2.4735,-2.4766,-2.5008,-2.5252,-2.5467,-2.5596,-2.5752,-2.604,-2.6526,-2.7351,-2.7939,-2.8241,-2.8611,-2.8899,-2.9115,-2.8934,-2.93,-3.0251,-3.042,-3.0965,-3.1925,-3.3354,-3.4117,0.0,0.0,0.0,0.0,0.0,0.0,0.0,-3.5851,-3.6737,-3.7617,-3.8359,-3.9101,-3.9969,-4.0096,-4.0281,-4.0998,-4.105,-4.0993,-4.0924,-4.0927,-4.0527,-3.9476,-3.8642,-3.7737,-3.6689,-3.6596,-3.6774,-3.7192,-3.7841,-3.8395,-3.881,-3.8646,-3.8528,-3.8451,-3.8271,-3.8186,-3.8186,-3.805,-3.7964,-3.7964,-3.7982,-3.8016,-3.8135,-3.8135,-3.8168,-3.8267,-3.8428,-3.8541,-3.8572,-3.8785,-3.895,-3.9007,-3.9045,-3.8952,-3.8789,-3.8718,-3.8707,-3.8707,-3.8833,-3.8752,-3.8412,-3.6999,-3.6435,-3.6036,-3.4537,-3.4023,-3.3972,-3.3972,-3.3921,-3.3868,-3.3807,-3.3726,-3.3643,-3.3465,-3.3321,-3.2757,-3.102,-3.0592,-3.0029,-2.8319,-2.7971,-2.7954,-2.7964,-2.8102,-2.7834,-2.6766,-2.6662,-2.6596,-2.6327,-2.6366,-2.653,-2.6786,-2.697,-2.7159,-2.7312,-2.7571,-2.7714,-2.7704,-2.8468,-2.8847,-2.8717,-2.9325,-2.9532,-2.9314,-2.9163,-2.9703,-3.0984,-3.0782,-3.1332,-3.2626,-3.3987,-3.4541,-3.3417,-3.3835,-3.4477,-3.4477,-3.5636,-3.6796,0.0,-3.7591,-3.8461,-3.9349,-3.9647,-4.0,-4.082,-4.0969,-4.0991,-4.1085,-4.1081,-4.1064,-4.1006,-4.0996,-4.0643,-3.9682,-3.9251,-3.8674,-3.7704,-3.8099,-3.8417,-3.8409,-3.8978,-3.9314,-3.9324,-3.9137,-3.8989,-3.8931,-3.8844,-3.8803,-3.8803,-3.8658,-3.8609,-3.8609,-3.8548,-3.8548,-3.8609,-3.8609,-3.8688,-3.8833,-3.896,-3.9073,-3.9129,-3.9192,-3.929,-3.9343,-3.9369,-3.9421,-3.9467,-3.9154,-3.9045,-3.9045,-3.9073,-3.8645,-3.7936,-3.7061,-3.6292,-3.5539,-3.4643,-3.4316,-3.4245,-3.4245,-3.4197,-3.4148,-3.4074,-3.4049,-3.3998,-3.3868,-3.3762,-3.3268,-3.1579,-3.1101,-3.0549,-2.8927,-2.854,-2.8529,-2.8603,-2.8748,-2.8706,-2.8146,-2.7669,-2.7465,-2.7653,-2.7233,-2.7001,-2.7207,-2.7352,-2.7517,-2.772,-2.8411,-2.8821,-2.8821,-2.959,-2.995,-2.9836,-2.9855,-2.9801,-2.9644,-2.9454,-3.0024,-3.1354,-3.1038,-3.1564,-3.2948,-3.4182,-3.4559,-3.4739,-3.493,-3.5251,-3.5228,-3.6197,-3.7137,-3.715,-3.8234,-3.9353,-3.9719,-4.024,-4.0695,-4.103,-4.1094,-4.1091,-4.1099,-4.1108,-4.1094,-4.1056,-4.1058,-4.0896,-4.0462,-4.0286,-3.9615,-3.8127,-3.8591,-3.895,-3.884,-3.9467,-3.9813,-3.9769,-3.9556,-3.9452,-3.9408,-3.9298,-3.9245,-3.9245,-3.9146,-3.9119,-3.9119,-3.9091,-3.9091,-3.9119,-3.9154,-3.9227,-3.9298,-3.9401,-3.9502,-3.9551,-3.9631,-3.9684,-3.9679,-3.9721,-3.9791,-3.98,-3.9489,-3.9427,-3.9452,-3.9452,-3.8933,-3.8089,-3.7282,-3.6479,-3.5675,-3.483,-3.4567,-3.4545,-3.4545,-3.4505,-3.4483,-3.4461,-3.4416,-3.4371,-3.4307,-3.4232,-3.3696,-3.2057,-3.1617,-3.1066,-2.9422,-2.9111,-2.9156,-2.9202,-2.9361,-2.942,-2.9307,-2.8929,-2.8742,-2.8987,-2.8885,-2.8893,-2.9149,-2.924,-2.9338,-2.9426,-2.9736,-2.9931,-2.9939,-3.025,-3.0375,-3.0248,-3.0164,-3.0065,-2.9939,-2.9765,-3.0358,-3.1689,-3.1433,-3.2009,-3.3393,-3.4688,-3.5065,-3.5593,-3.5629,-3.566,-3.567,-3.6559,-3.7436,-3.7424,-3.8818,-4.0129,-4.0126,-4.0652,-4.1101,-4.1091,-4.1099,-4.1108,-4.1093,-4.1091,-4.1107,-4.1101,-4.1094,-4.1081,-4.1031,-4.1208,-4.0774,-3.94,-3.9464,-3.9678,-3.9815,-4.0281,-4.0652,-4.0845,-4.0668,-4.0561,-4.0561,-4.0223,-4.0023,-4.0023,-3.9764,-3.9628,-3.9628,-3.9628,-3.9628,-3.9628,-3.9675,-3.9721,-3.9766,-3.9851,-3.9876,-3.9939,-4.0011,-4.0036,-4.0043,-4.0081,-4.012,-4.012,-3.9922,-3.9813,-3.9788,-3.981,-3.9261,-3.8428,-3.7597,-3.6803,-3.5969,-3.5135,-3.4851,-3.4851,-3.4851,-3.4813,-3.4794,-3.4794,-3.4774,-3.4755,-3.4755,-3.4656,-3.4199,-3.2806,-3.2259,-3.1637,-3.0208,-2.9792,-2.9691,-2.9737,-2.9889,-3.0009,-3.0119,-2.9945,-2.9842,-2.9956,-3.0129,-3.0318,-3.0524,-3.0603,-3.0625,-3.0622,-3.0625,-3.0626,-3.0628,-3.0628,-3.058,-3.0486,-3.0412,-3.0326,-3.0206,-3.0308,-3.0921,-3.2071,-3.2091,-3.2678,-3.3852,-3.5162,-3.5661,-3.5411,-3.5457,-3.5519,-3.5596,-3.6938,-3.8258,-3.8249,-3.9652,-4.0957,-4.0957,-4.1046,-4.1111,-4.1105,-4.11,-4.1109,-4.1099,-4.1103,-4.1108,-4.1092,-4.1091,-4.1105,-4.1094,-4.185,-4.2305,-4.2182,-4.1247,-4.1006,-4.1854,-4.1812,-4.2116,-4.2954,-4.2821,-4.2696,-4.2696,-4.1819,-4.1342,-4.1342,-4.0578,-4.0177,-4.0177,-4.0177,-4.0177,-4.0177,-4.0177,-4.0196,-4.0196,-4.0252,-4.0286,-4.0283,-4.0347,-4.0381,-4.0377,-4.0377,-4.0427,-4.0477,-4.0481,-4.0264,-4.0002,-4.0081,-3.9548,-3.8746,-3.7957,-3.713,-3.6339,-3.5515,-3.5251,-3.5181,-3.5181,-3.5149,-3.5098,-3.5098,-3.5098,-3.5078,-3.5078,-3.5045,-3.4745,-3.3922,-3.3083,-3.2229,-3.1401,-3.0614,-3.0101,-3.0175,-3.0285,-3.0414,-3.0479,-3.0522,-3.0522,-3.041,-3.051,-3.0618,-3.0694,-3.0697,-3.0699,-3.0702,-3.0703,-3.0702,-3.07,-3.0698,-3.0693,-3.0693,-3.0633,-3.0555,-3.0498,-3.1196,-3.1872,-3.2485,-3.305,-3.3671,-3.4325,-3.5647,-3.6176,-3.5187,-3.5262,-3.5321,-3.5378,-3.6794,-3.8175,-3.8168,-3.9575,-4.0859,-4.0859,-4.0924,-4.0979,-4.1039,-4.1026,-4.1045,-4.1081,-4.1097,-4.1104,-4.1091,-4.1101,-4.1302,-4.1892,-4.2226,-4.2613,-4.3175,-4.2857,-4.2741,-4.3041,-4.2986,-4.305,-4.3341,-4.3221,-4.3117,-4.3117,-4.2777,-4.2598,-4.2598,-4.2294,-4.1859,-4.1305,-4.0746,-4.0492,-4.054,-4.054,-4.054,-4.054,-4.0568,-4.0563,-4.0577,-4.0631,-4.0668,-4.0672,-4.0674,-4.0674,-4.0688,-4.0688,-4.0633,-4.0526,-4.0442,-3.9877,-3.9027,-3.8234,-3.7401,-3.6548,-3.5689,-3.5419,-3.5406,-3.5451,-3.5451,-3.5438,-3.5438,-3.5438,-3.5438,-3.5438,-3.5412,-3.5174,-3.4318,-3.3905,-3.3288,-3.19,-3.1458,-3.1114,-3.0567,-3.0549,-3.0609,-3.0639,-3.065,-3.0654,-3.0601,-3.0642,-3.0661,-3.0701,-3.0664,-3.0628,-3.0626,-3.0639,-3.0625,-3.0633,-3.0681,-3.071,-3.0696,-3.0683,-3.0909,-3.1418,-3.1662,-3.2391,-3.3625,-3.3795,-3.4198,-3.4883,-3.6305,-3.6889,-3.4964,-3.5053,-3.5155,-3.5207,-3.6415,-3.7646,-3.7954,-3.92,-4.0382,-4.066,-4.0809,-4.0869,-4.0926,-4.0952,-4.0991,-4.1052,-4.1064,-4.1173,-4.149,-4.1525,-4.1846,-4.2724,-4.3092,-4.3518,-4.4071,-4.4372,-4.4403,-4.4085,-4.4019,-4.4143,-4.4452,-4.4364,-4.4307,-4.4307,-4.397,-4.378,-4.378,-4.3419,-4.2981,-4.2458,-4.1594,-4.1199,-4.123,-4.0939,-4.0804,-4.0804,-4.0796,-4.0807,-4.0807,-4.0846,-4.0865,-4.0866,-4.0866,-4.0866,-4.0863,-4.0863,-4.0863,-4.0867,-4.0749,-4.0138,-3.9325,-3.8825,-3.807,-3.7209,-3.6348,-3.6057,-3.6018,-3.5747,-3.5669,-3.5669,-3.5669,-3.5669,-3.5679,-3.5668,-3.5674,-3.5527,-3.496,-3.4613,-3.4082,-3.2985,-3.258,-3.2124,-3.125,-3.0857,-3.0655,-3.0638,-3.0599,-3.0604,-3.0632,-3.0603,-3.0584,-3.0561,-3.0517,-3.0481,-3.0455,-3.0447,-3.0462,-3.0491,-3.0527,-3.0571,-3.0592,-3.0579,-3.0983,-3.1843,-3.2166,-3.2979,-3.4272,-3.4549,-3.5029,-3.5747,-3.6978,-3.7648,-3.4747,-3.4869,-3.5001,-3.5075,-3.584,-3.6792,-3.7635,-3.8623,-3.9604,-4.0376,-4.0674,-4.0796,-4.0796,-4.0839,-4.0917,-4.098,-4.1027,-4.1354,-4.2188,-4.2331,-4.2682,-4.3565,-4.4396,-4.4917,-4.4967,-4.5713,-4.5874,-4.5092,-4.4991,-4.533,-4.6167,-4.6144,-4.6118,-4.6119,-4.5308,-4.4871,-4.4871,-4.4006,-4.3568,-4.3558,-4.2693,-4.2265,-4.2246,-4.1421,-4.1071,-4.1071,-4.1032,-4.1003,-4.1014,-4.102,-4.1014,-4.1011,-4.1011,-4.1013,-4.1016,-4.1016,-4.1016,-4.1007,-4.0935,-4.0357,-3.9677,-3.97,-3.9149,-3.8312,-3.743,-3.7176,-3.6995,-3.6114,-3.5873,-3.5854,-3.5815,-3.5815,-3.5799,-3.5807,-3.5806,-3.5806,-3.5814,-3.521,-3.4636,-3.4525,-3.3847,-3.3022,-3.219,-3.1295,-3.0695,-3.0634,-3.0505,-3.0452,-3.0474,-3.0432,-3.0346,-3.0294,-3.0283,-3.0247,-3.0184,-3.0171,-3.0209,-3.0271,-3.0283,-3.0309,-3.0376,-3.0412,-3.0886,-3.1825,-3.2718,-3.3584,-3.4467,-3.5292,-3.6074,-3.6811,-3.7631,-3.8388,-3.445,-3.4645,-3.479,-3.4868,-3.5628,-3.6455,-3.6719,-3.8022,-3.9265,-3.9492,-4.014,-4.0654,-4.0642,-4.072,-4.0769,-4.0839,-4.1392,-4.1917,-4.2198,-4.2781,-4.3529,-4.4392,-4.4681,-4.5068,-4.574,-4.6047,-4.6359,-4.6723,-4.6209,-4.5973,-4.6191,-4.617,-4.6168,-4.6166,-4.5966,-4.5844,-4.5844,-4.4987,-4.4538,-4.4538,-4.3661,-4.3232,-4.3212,-4.2351,-4.198,-4.1941,-4.1333,-4.1072,-4.1074,-4.1065,-4.1077,-4.1069,-4.1071,-4.1068,-4.1074,-4.1074,-4.1074,-4.1074,-4.1053,-4.0862,-4.0559,-3.9958,-3.9626,-3.9279,-3.8408,-3.8135,-3.7959,-3.7081,-3.6833,-3.6699,-3.6035,-3.5862,-3.5868,-3.5877,-3.5878,-3.5879,-3.5878,-3.5718,-3.5355,-3.4632,-3.3777,-3.3061,-3.2723,-3.2425,-3.2196,-3.2072,-3.1446,-3.0825,-3.034,-3.0183,-3.0079,-3.0013,-2.9973,-2.9927,-2.9896,-2.9896,-2.9912,-2.9927,-2.9969,-3.0028,-3.0098,-3.0739,-3.1539,-3.2532,-3.3388,-3.4304,-3.5228,-3.5437,-3.6006,-3.6897,-3.7691,-3.8515,-3.4197,-3.4386,-3.4539,-3.4687,-3.517,-3.5856,-3.6654,-3.7678,-3.8663,-3.9461,-4.0101,-4.0508,-4.05,-4.0598,-4.0673,-4.0713,-4.1473,-4.2194,-4.2632,-4.3427,-4.4311,-4.5179,-4.5278,-4.5492,-4.6008,-4.6445,-4.6872,-4.7319,-4.6645,-4.6357,-4.6702,-4.6394,-4.6199,-4.6206,-4.6195,-4.6199,-4.6199,-4.5707,-4.5473,-4.5453,-4.459,-4.4153,-4.4104,-4.3246,-4.2856,-4.2778,-4.1948,-4.1576,-4.1554,-4.1202,-4.1057,-4.1056,-4.1031,-4.1017,-4.1013,-4.1003,-4.1007,-4.1007,-4.1007,-4.0991,-4.0894,-4.0507,-4.0369,-4.0214,-3.9336,-3.9043,-3.8847,-3.8007,-3.7498,-3.7085,-3.6599,-3.6196,-3.5896,-3.5853,-3.586,-3.5856,-3.586,-3.5836,-3.5632,-3.5053,-3.4154,-3.3468,-3.3365,-3.2943,-3.2581,-3.2421,-3.1882,-3.1355,-3.0861,-3.0232,-2.9782,-2.9642,-2.9607,-2.957,-2.9514,-2.9476,-2.9514,-2.9533,-2.9607,-2.9848,-3.0296,-3.0782,-3.168,-3.3045,-3.3573,-3.4308,-3.5226,-3.5271,-3.5948,-3.722,-3.7665,-3.8536,-3.3998,-3.4266,-3.4484,-3.4664,-3.491,-3.5486,-3.7007,-3.7546,-3.8176,-3.9681,-4.0193,-4.0377,-4.0372,-4.0492,-4.0573,-4.0559,-4.147,-4.24,-4.3163,-4.4124,-4.5028,-4.5803,-4.5893,-4.5905,-4.598,-4.6763,-4.726,-4.7264,-4.6678,-4.6641,-4.7357,-4.661,-4.6166,-4.6162,-4.6162,-4.6162,-4.6162,-4.6162,-4.6162,-4.6162,-4.5414,-4.5016,-4.4927,-4.4101,-4.3693,-4.3606,-4.2714,-4.2283,-4.2142,-4.1421,-4.107,-4.097,-4.0916,-4.0898,-4.0878,-4.0885,-4.0902,-4.0902,-4.0902,-4.0902,-4.0906,-4.1019,-4.1074,-4.0932,-4.019,-3.9911,-3.9685,-3.8865,-3.8104,-3.7464,-3.7238,-3.6615,-3.5996,-3.5821,-3.5775,-3.5766,-3.5752,-3.5679,-3.5607,-3.547,-3.474,-3.4094,-3.4015,-3.3272,-3.26,-3.2405,-3.2185,-3.1935,-3.1732,-3.0621,-2.9772,-2.9567,-2.9453,-2.9354,-2.9226,-2.9115,-2.9138,-2.9311,-2.9354,-2.9811,-3.0735,-3.0889,-3.1703,-3.3274,-3.3485,-3.3979,-3.4812,-3.4978,-3.5921,-3.7515,-3.7606,-3.8498,-3.3807,-3.4567,-3.5281,-3.5349,-3.6021,-3.6788,-3.7077,-3.7856,-3.859,-3.8896,-3.9643,-4.0233,-4.0214,-4.0342,-4.0427,-4.0438,-4.1832,-4.2957,-4.3104,-4.4519,-4.5592,-4.5791,-4.5824,-4.5819,-4.5827,-4.6621,-4.7124,-4.7138,-4.7016,-4.7042,-4.73,-4.6494,-4.6027,-4.6037,-4.6037,-4.6037,-4.6037,-4.6037,-4.6026,-4.6033,-4.5878,-4.577,-4.5665,-4.4812,-4.4424,-4.4366,-4.349,-4.2733,-4.211,-4.1973,-4.1482,-4.0822,-4.0815,-4.0818,-4.0828,-4.0809,-4.0819,-4.0819,-4.0819,-4.0819,-4.084,-4.0906,-4.0935,-4.0915,-4.0753,-4.0694,-4.0512,-3.9653,-3.9307,-3.8844,-3.7413,-3.691,-3.6619,-3.5824,-3.5629,-3.5588,-3.5492,-3.5366,-3.5258,-3.5184,-3.4937,-3.4718,-3.4583,-3.4329,-3.4046,-3.3794,-3.3123,-3.2545,-3.229,-3.1636,-3.1102,-3.0876,-3.0351,-2.9917,-2.9844,-2.9229,-2.9137,-2.9807,-2.9868,-3.0265,-3.1164,-3.1906,-3.2484,-3.2892,-3.3626,-3.413,-3.4405,-3.5139,-3.6036,-3.7049,-3.7709,-3.852,-3.432,-3.5128,-3.5962,-3.6103,-3.6553,-3.7093,-3.7606,-3.8135,-3.8531,-3.8681,-3.9086,-3.9432,-3.9452,-3.9565,-3.9809,-4.0229,-4.1449,-4.2516,-4.2989,-4.4122,-4.5115,-4.5642,-4.57,-4.5715,-4.5742,-4.6534,-4.7055,-4.7055,-4.7055,-4.7081,-4.7191,-4.637,-4.5905,-4.5905,-4.5905,-4.5905,-4.5905,-4.5905,-4.5893,-4.5835,-4.5835,-4.5808,-4.5733,-4.5307,-4.5119,-4.5066,-4.4194,-4.3601,-4.3202,-4.2753,-4.2088,-4.1316,-4.1316,-4.1034,-4.0642,-4.0642,-4.0642,-4.0642,-4.0642,-4.0642,-4.0655,-4.068,-4.0768,-4.084,-4.084,-4.0819,-4.0721,-4.0292,-3.9824,-3.9247,-3.84,-3.7822,-3.734,-3.6897,-3.6733,-3.6541,-3.599,-3.5768,-3.5532,-3.504,-3.4772,-3.4607,-3.4517,-3.434,-3.4173,-3.3921,-3.3476,-3.3077,-3.2889,-3.2516,-3.1964,-3.113,-3.0649,-3.0378,-3.0342,-2.9927,-2.9855,-3.0279,-3.0351,-3.0767,-3.1674,-3.2156,-3.2638,-3.3148,-3.356,-3.3842,-3.3935,-3.4747,-3.5568,-3.6443,-3.7239,-3.8035,-3.4772,-3.5687,-3.6601,-3.6859,-3.7095,-3.7504,-3.8315,-3.8539,-3.8555,-3.8609,-3.8637,-3.8643,-3.8517,-3.8747,-3.9146,-3.9795,-4.0864,-4.195,-4.2829,-4.3654,-4.4515,-4.5449,-4.5563,-4.558,-4.5632,-4.6422,-4.6865,-4.6673,-4.6653,-4.6703,-4.6796,-4.6153,-4.5771,-4.5771,-4.5771,-4.5771,-4.5757,-4.5757,-4.5708,-4.5642,-4.5642,-4.5594,-4.5547,-4.5547,-4.553,-4.5493,-4.4816,-4.4397,-4.419,-4.3497,-4.2733,-4.197,-4.181,-4.1308,-4.0691,-4.0499,-4.0441,-4.0441,-4.0441,-4.0441,-4.0441,-4.0441,-4.0564,-4.072,-4.072,-4.0681,-4.0626,-4.0612,-4.0082,-3.9461,-3.9277,-3.8674,-3.807,-3.7868,-3.7712,-3.7395,-3.6654,-3.6364,-3.5991,-3.5141,-3.4757,-3.4516,-3.4258,-3.4049,-3.3842,-3.3671,-3.352,-3.3393,-3.3232,-3.3091,-3.2545,-3.1386,-3.1034,-3.0879,-3.0808,-3.0576,-3.0558,-3.0779,-3.082,-3.1285,-3.22,-3.2306,-3.2654,-3.3375,-3.3375,-3.3524,-3.3756,-3.4539,-3.5339,-3.6175,-3.6926,-3.7616,-3.4673,-3.6029,-3.7426,-3.7571,-3.8257,-3.8924,-3.908,-3.9264,-3.9183,-3.8474,-3.8486,-3.8391,-3.7676,-3.823,-3.8841,-3.8918,-4.0329,-4.1762,-4.2699,-4.3561,-4.4423,-4.5304,-4.5419,-4.5419,-4.5438,-4.6206,-4.6397,-4.5611,-4.5553,-4.5627,-4.5831,-4.5754,-4.568,-4.5613,-4.5613,-4.5616,-4.562,-4.562,-4.5549,-4.5419,-4.5419,-4.5381,-4.5319,-4.5319,-4.5341,-4.5323,-4.5225,-4.4763,-4.4015,-4.3937,-4.3403,-4.2545,-4.18,-4.1495,-4.1323,-4.052,-4.0233,-4.0233,-4.0233,-4.0233,-4.0233,-4.0233,-4.0356,-4.0519,-4.0454,-4.0438,-4.0406,-4.0358,-4.0266,-4.0038,-3.9219,-3.8917,-3.8594,-3.7737,-3.7389,-3.7225,-3.7128,-3.693,-3.6496,-3.568,-3.5312,-3.4866,-3.4076,-3.378,-3.3605,-3.3452,-3.3382,-3.3232,-3.2979,-3.2916,-3.2798,-3.2477,-3.1902,-3.1493,-3.1416,-3.0729,-3.0623,-3.1381,-3.1416,-3.1835,-3.2713,-3.2731,-3.283,-3.3042,-3.306,-3.3494,-3.4352,-3.5128,-3.5923,-3.6754,-3.7464,-3.7809,-3.5326,-3.6705,-3.8145,-3.8272,-3.867,-3.9064,-3.9129,-3.9219,-3.8969,-3.7778,-3.761,-3.7461,-3.6659,-3.7253,-3.8054,-3.8586,-3.9732,-4.0878,-4.1774,-4.2656,-4.3517,-4.44,-4.4954,-4.53,-4.5339,-4.5646,-4.5703,-4.5359,-4.5339,-4.5361,-4.5457,-4.5494,-4.5512,-4.5475,-4.5495,-4.5477,-4.5477,-4.5458,-4.538,-4.5279,-4.5237,-4.5194,-4.5125,-4.5068,-4.5052,-4.5055,-4.5065,-4.4867,-4.4539,-4.455,-4.4018,-4.3175,-4.2357,-4.173,-4.1159,-4.0342,-4.0019,-4.0019,-4.0019,-4.0019,-4.0019,-4.0019,-4.008,-4.0177,-4.0251,-4.0252,-4.0215,-4.0196,-4.0118,-3.9982,-3.9619,-3.9463,-3.9261,-3.881,-3.862,-3.837,-3.7858,-3.7598,-3.7203,-3.6244,-3.5937,-3.5533,-3.4642,-3.4335,-3.4014,-3.3424,-3.3183,-3.2997,-3.287,-3.2722,-3.2623,-3.2557,-3.2325,-3.213,-3.2115,-3.1784,-3.1731,-3.2064,-3.2115,-3.229,-3.2672,-3.269,-3.2705,-3.277,-3.3217,-3.3659,-3.4062,-3.5276,-3.6061,-3.6381,-3.7201,-3.7521,-3.5648,-3.6921,-3.8217,-3.8603,-3.884,-3.895,-3.9036,-3.8915,-3.8439,-3.7163,-3.6793,-3.6433,-3.5641,-3.6255,-3.7149,0.0,-3.8937,-3.993,-4.1092,-4.1971,-4.2851,-4.3735,-4.4592,-4.5125,-4.517,-4.517,-4.517,-4.517,-4.517,-4.517,-4.517,-4.5237,-4.5281,-4.5341,-4.5339,-4.5319,-4.5279,-4.5218,-4.5175,-4.5094,-4.503,-4.4957,-4.4876,-4.4843,-4.48,-4.477,-4.4777,-4.4789,-4.4782,-4.4768,-4.4417,-4.3769,-4.2691,-4.1917,-4.1236,-4.0201,-3.9804,-3.9804,-3.9804,-3.9804,-3.9823,-3.9781,-3.9781,-3.9804,-3.9958,-3.9998,-3.9996,-3.9954,-3.9867,-3.9781,-3.9758,-3.967,-3.9532,-3.9452,-3.935,-3.9096,-3.8484,-3.8238,-3.7859,-3.6915,-3.6578,-3.6175,-3.5283,-3.4994,-3.4627,-3.3975,-3.3677,-3.3514,-3.3399,-3.3246,-3.3054,-3.2809,-3.2773,-3.2685,-3.2422,-3.2336,-3.2336,-3.2371,-3.2387,-3.2422,-3.2438,-3.2649,-3.2807,-3.2875,-3.3635,-3.4182,-3.4465,-3.5561,-3.6198,-3.6482,-3.6993,-3.722,-3.5457,-3.6427,-3.7447,-3.8456,-3.875,-3.8822,-3.8881,-3.8377,-3.7671,-3.6864,-3.6174,-3.5474,-3.4664,-3.5229,-3.6118,-3.7077,-3.7909,-3.9067,-4.0863,-4.1813,-4.265,-4.3592,-4.4426,-4.4895,-4.4895,-4.4895,-4.4895,-4.4895,-4.4895,-4.4895,-4.4895,-4.4895,-4.501,-4.5192,-4.5192,-4.5132,-4.5014,-4.4995,-4.4935,-4.4794,-4.4794,-4.4735,-4.4617,-4.4617,-4.4576,-4.4496,-4.4496,-4.4496,-4.4485,-4.4477,-4.4515,-4.4327,-4.2656,-4.2006,-4.18,-4.0196,-3.9599,-3.9599,-3.9599,-3.9599,-3.9599,-3.9526,-3.9483,-3.9483,-3.9526,-3.9647,-3.9781,-3.9647,-3.9551,-3.9502,-3.9427,-3.935,-3.9298,-3.921,-3.912,-3.9007,-3.9007,-3.8822,-3.845,-3.7654,-3.7277,-3.6785,-3.5856,-3.557,-3.5424,-3.522,-3.5135,-3.4995,-3.4817,-3.4781,-3.4409,-3.3491,-3.3404,-3.3053,-3.2284,-3.2144,-3.2108,-3.2108,-3.2108,-3.2108,-3.2108,-3.2823,-3.3296,-3.3476,-3.4214,-3.506,-3.6074,-3.6074,-3.6535,-3.7279,-3.7147,-3.7069,-3.4659,-3.5498,-3.6516,-3.746,-3.7784,-3.7923,-3.8011,-3.7876,-3.7387,-3.6036,-3.5639,-3.5293,-3.446,-3.5072,-3.6002,-3.6873,-3.7703,-3.8651,-3.9789,-4.1174,-4.2222,-4.2511,-4.3766,-4.4632,-4.4632,-4.4632,-4.4632,-4.4632,-4.4632,-4.4632,-4.4632,-4.4629,-4.4745,-4.5004,-4.4957,-4.49,-4.4855,-4.4764,-4.4712,-4.4648,-4.4584,-4.4484,-4.4458,-4.443,-4.4362,-4.4371,-4.4371,-4.436,-4.4349,-4.4362,-4.4373,-4.4204,-4.2539,-4.1838,-4.1678,-4.0076,-3.9458,-3.9458,-3.9458,-3.9458,-3.9458,-3.9432,-3.9432,-3.9413,-3.9317,-3.9401,-3.9521,-3.9483,-3.9388,-3.9272,-3.9192,-3.9156,-3.9092,-3.9007,-3.895,-3.891,-3.8792,-3.875,-3.8554,-3.8141,-3.7889,-3.7486,-3.6609,-3.6317,-3.602,-3.5293,-3.5101,-3.4978,-3.4799,-3.4744,-3.4582,-3.4172,-3.4117,-3.3574,-3.2248,-3.2108,-3.2108,-3.2108,-3.256,-3.2838,-3.2838,-3.3604,-3.4039,-3.4115,-3.483,-3.5357,-3.5696,-3.6278,-3.6702,-3.6948,-3.693,-3.6869,-3.4141,-3.4852,-3.5648,-3.6497,-3.6851,-3.6971,-3.703,-3.6895,-3.6454,-3.5486,-3.5084,-3.4754,-3.4216,-3.4643,-3.546,-3.6596,-3.7243,-3.8003,-3.9122,-4.0763,-4.2062,-4.2679,-4.3689,-4.4325,-4.4325,-4.4044,-4.3857,-4.3857,-4.3857,-4.3886,-4.3877,-4.4177,-4.4438,-4.4591,-4.4662,-4.4657,-4.4638,-4.4576,-4.4515,-4.4493,-4.4367,-4.427,-4.4251,-4.4178,-4.4135,-4.4116,-4.4116,-4.4116,0.0,-4.4123,-4.4104,-4.3974,-4.2616,-4.189,-4.1463,-4.017,-3.9527,-3.9266,-3.9266,-3.9266,-3.9221,-3.9239,-3.9212,-3.9212,-3.912,-3.9156,-3.9237,-3.9248,-3.9166,-3.9092,-3.9036,-3.8979,-3.891,-3.8851,-3.8792,-3.8713,-3.8609,-3.8564,-3.8501,-3.8289,-3.8138,-3.7855,-3.7232,-3.704,-3.6738,-3.6079,-3.5881,-3.5772,-3.5643,-3.5548,-3.5311,-3.4938,-3.4805,-3.4241,-3.2954,-3.2832,-3.2832,-3.2832,-3.3283,-3.3526,-3.3526,-3.4306,-3.4723,-3.4779,-3.5491,-3.5896,-3.5953,-3.6481,-3.6748,-3.6748,-3.6748,-3.6725,0.0,-3.4364,-3.4782,-3.5599,-3.5903,-3.6022,-3.6003,-3.5587,0.0,-3.5101,-3.4518,-3.3998,-3.3998,-3.4053,-3.4633,-3.6295,-3.6636,-3.7211,-3.885,-4.0502,-4.2154,-4.3769,-4.3918,-4.3881,-4.3881,-4.3157,-4.2674,-4.2674,-4.2693,-4.2716,-4.2789,-4.358,-4.3974,-4.3974,-4.4296,-4.4421,-4.4383,-4.4383,-4.4333,-4.4265,-4.4142,-4.4059,-4.397,-4.3915,-4.3845,-4.3793,-4.3793,-4.3808,-4.3804,-4.3804,-4.3804,-4.3712,-4.2862,-4.2013,-4.12,-4.0448,-3.9682,-3.8979,-3.8979,-3.8979,-3.8979,-3.8939,-3.8892,-3.8881,-3.8881,-3.8939,-3.8979,-3.8979,-3.8921,-3.8881,-3.8881,-3.8822,-3.8762,-3.8689,-3.8559,-3.8478,-3.8415,-3.8354,-3.8256,-3.8119,-3.8052,-3.7915,-3.7739,-3.7649,-3.7503,-3.7334,-3.7203,-3.7069,-3.7009,-3.6891,-3.6509,-3.5658,-3.5526,-3.5146,-3.434,-3.4145,-3.4093,-3.4093,-3.4145,-3.4162,-3.4162,-3.4887,-3.5324,-3.5463,-3.6139,-3.6544,-3.6702,-3.6702,-3.6702,-3.6702,-3.6702,-3.6702,-3.243,0.0,-3.3923,-3.4763,-3.5034,-3.5122,0.0,0.0,-3.4853,-3.4256,-3.4015,-3.3895,-3.386,-3.4383,-3.5165,-3.6149,-3.6801,-3.7555,-3.8578,-4.0154,-4.1811,-4.3431,-4.3063,-4.2709,-4.2709,-4.2004,-4.1588,-4.1588,-4.1656,-4.1736,-4.1748,-4.2506,-4.2955,-4.2959,-4.361,-4.4022,-4.409,-4.404,-4.4013,-4.4003,-4.3896,-4.3859,-4.3859,-4.3841,-4.3822,-4.3789,-4.3789,-4.3822,-4.3804,-4.3804,-4.3804,-4.3712,-4.2862,-4.2013,-4.12,-4.0418,-3.9623,-3.8921,-3.8921,-3.8921,-3.8939,-3.891,-3.8822,-3.875,-3.875,-3.8822,-3.8921,-3.8921,-3.8822,-3.875,-3.875,-3.8609,-3.8496,-3.8465,-3.8465,-3.8401,-3.8354,-3.8238,-3.8119,-3.8052,-3.788,-3.7774,-3.7703,-3.7559,-3.7392,-3.7297,-3.7203,-3.7069,-3.7009,-3.6891,-3.6719,-3.6441,-3.6325,-3.6115,-3.5801,-3.4731,-3.4093,-3.4093,-3.4628,-3.4938,-3.4938,-3.5645,-3.6042,-3.6084,-3.6256,-3.6402,-3.6544,-3.6544,-3.6544,-3.6544,-3.6544,-3.6502,-3.1502,-3.2319,-3.3117,-3.3985,-3.4243,-3.43,-3.4282,0.0,0.0,0.0,0.0,-3.3753,-3.3726,-3.4403,-3.5209,-3.5926,-3.673,-3.7661,-3.8761,-3.9692,-4.0732,-4.2044,-4.1807,-4.1533,-4.1549,-4.0884,-4.0423,-4.0437,-4.0538,-4.0588,-4.067,-4.1438,-4.2032,-4.2383,-4.2839,-4.3345,-4.39,-4.3863,-4.3845,-4.3845,-4.3738,-4.3719,-4.3719,-4.3618,-4.3637,-4.3603,-4.355,-4.3497,-4.3497,-4.3497,-4.3497,-4.3495,-4.3002,-4.2323,-4.153,-4.074,-3.9932,-3.9209,-3.8823,-3.8713,-3.8695,-3.8683,-3.8621,-3.8546,-3.8546,-3.859,-3.8683,-3.8683,-3.8621,-3.8546,-3.8546,-3.8465,-3.8382,-3.8368,-3.8336,-3.8354,-3.8274,-3.8138,-3.8018,-3.7967,-3.7828,-3.7667,-3.7595,-3.7466,-3.7317,-3.7203,-3.7126,-3.7048,-3.7009,-3.6869,-3.6725,-3.6702,-3.6544,-3.6402,-3.6301,-3.5559,-3.5111,-3.5111,-3.5473,-3.5697,-3.5697,-3.6094,-3.6301,-3.6301,-3.6301,-3.636,-3.6402,-3.6402,-3.6402,-3.6402,-3.6402,-3.636,-3.0841,-3.1508,-3.2202,-3.3186,-3.3478,-3.3524,-3.3597,0.0,0.0,0.0,0.0,0.0,-3.3577,-3.4313,-3.5139,-3.5737,-3.6608,-3.7682,-3.9045,-3.9209,-3.9534,-4.042,-4.042,-4.0365,-4.0436,-3.9726,-3.9286,-3.9334,-3.9385,-3.9418,-3.9566,-4.0346,-4.1099,-4.1757,-4.192,-4.2425,-4.3339,-4.3594,-4.3704,-4.3704,-4.36,-4.3548,-4.3548,-4.3411,-4.3376,-4.334,-4.3251,-4.3214,-4.3214,-4.3214,-4.3214,-4.3214,-4.3214,-4.2704,-4.1902,-4.1099,-4.0331,-3.9575,-3.8752,-3.8478,-3.8478,-3.8415,-3.8382,-3.8419,-3.8547,-3.8551,-3.8569,-3.8696,-3.8551,-3.8382,-3.8382,-3.8401,-3.8368,-3.8307,-3.8274,-3.8241,-3.8174,-3.8054,-3.7933,-3.7881,-3.7757,-3.7631,-3.7411,-3.7317,-3.7259,-3.7108,-3.7048,-3.697,-3.6987,-3.6806,-3.6702,-3.6643,-3.6444,-3.6301,-3.6301,-3.6301,-3.6301,-3.6301,-3.6301,-3.6301,-3.6301,-3.6301,-3.6301,-3.6301,-3.6301,-3.6301,-3.6301,-3.6301,-3.6301,-3.6301,-3.6301,-3.6301,-3.0221,-3.0467,-3.0851,-3.2219,-3.2611,-3.2848,-3.3469,0.0,0.0,0.0,0.0,0.0,0.0,-3.4601,-3.5571,-3.5555,-3.673,-3.7918,-3.8778,-3.8866,-3.9208,-4.0071,-3.9569,-3.9193,-3.932,-3.8667,-3.821,-3.8244,-3.8298,-3.8398,-3.8524,-3.9288,-3.9801,-4.0013,-4.0646,-4.1079,-4.1275,-4.2592,-4.3286,-4.3286,-4.3268,-4.3268,-4.3268,-4.3251,-4.3251,-4.3251,-4.3214,-4.3214,-4.3214,-4.3214,-4.3214,-4.3214,-4.3214,-4.2722,-4.1885,-4.1118,-4.0297,-3.9509,-3.8688,-3.8415,-3.8415,-3.8415,-3.8368,-3.8449,-3.9107,-3.9291,-3.9367,-4.0002,-3.9291,-3.834,-3.834,-3.8274,-3.8241,-3.8225,-3.8122,-3.8018,-3.8036,-3.788,-3.7739,-3.7739,-3.7685,-3.7577,-3.7411,-3.7317,-3.7259,-3.7108,-3.7048,-3.6948,-3.6869,-3.6766,-3.6661,-3.6544,-3.6402,-3.6301,-3.6301,-3.6301,-3.6301,-3.6301,-3.6301,-3.6301,-3.6301,-3.6301,-3.6301,-3.6301,-3.6301,-3.6301,-3.6301,-3.6301,-3.6301,-3.6301,-3.6301,-3.6301,-2.9595,-2.9687,-2.9936,-3.1035,-3.1946,-3.2627,-3.2931,-3.3351,0.0,0.0,0.0,0.0,-3.3352,-3.4573,-3.581,-3.6503,-3.7113,-3.7591,-3.7927,-3.798,-3.816,-3.8574,-3.8326,-3.8149,-3.8313,-3.806,-3.7859,-3.7941,-3.7964,-3.8038,-3.8074,-3.8436,-3.8833,-3.93,-3.9696,-4.0093,-4.0581,-4.1325,-4.176,-4.1902,-4.2339,-4.254,-4.2576,-4.2941,-4.316,-4.316,-4.305,-4.305,-4.305,-4.305,-4.305,-4.305,-4.305,-4.2814,-4.2359,-4.1177,-3.9974,-3.8846,-3.8482,-3.8354,-3.8354,-3.8289,-3.8564,-3.8966,-3.9347,-3.9712,-4.0075,-4.0419,-4.002,-3.9511,-3.9511,-3.9134,-3.8739,-3.8739,-3.8326,-3.7951,-3.7951,-3.7828,-3.7703,-3.7703,-3.7613,-3.7466,-3.7354,-3.7241,-3.7164,-3.7048,-3.7009,-3.6948,-3.6829,-3.6725,-3.6643,-3.6502,-3.6402,-3.6301,-3.6301,-3.6301,-3.6301,-3.6301,-3.6301,-3.6301,-3.6301,-3.6301,-3.6301,-3.6301,-3.6301,-3.6301,-3.6301,-3.6301,-3.6301,-3.6301,-3.6301,-3.6301,-2.9265,-2.9265,-2.9388,-2.9998,-3.112,-3.2155,-3.2444,-3.2931,-3.334,0.0,-3.3382,-3.331,-3.3262,-3.4271,-3.552,-3.6738,-3.6982,-3.6923,-3.6708,-3.6832,-3.6905,-3.6785,-3.6805,-3.6897,-3.7059,-3.7292,-3.7452,-3.7536,-3.7737,-3.7847,-3.7864,-3.7828,-3.8169,-3.8798,-3.8816,-3.914,-3.9806,-3.9806,-4.0112,-4.0755,-4.134,-4.174,-4.194,-4.2523,-4.2868,-4.3049,-4.2918,-4.2862,-4.2862,-4.2862,-4.2824,-4.2824,-4.2824,-4.2736,-4.2448,-4.1125,-3.9763,-3.8528,-3.8347,-3.8274,-3.831,-3.8443,-3.8898,-3.946,-3.9787,-4.0311,-4.08,-4.0944,-4.0998,-4.0908,-4.0547,-3.9968,-3.9373,-3.9211,-3.8636,-3.8079,-3.79,-3.7757,-3.7667,-3.7667,-3.7522,-3.7392,-3.7297,-3.7203,-3.7069,-3.7009,-3.6987,-3.6948,-3.6788,-3.6725,-3.6661,-3.6444,-3.6343,-3.6301,-3.6301,-3.6301,-3.6301,-3.6301,-3.6301,-3.6301,-3.6301,-3.6301,-3.6301,-3.6301,-3.6301,-3.6301,-3.6301,-3.6301,-3.6301,-3.6301,-3.6301,-3.6301,-2.9472,-2.9431,-2.9386,-2.9386,-2.9921,-3.0827,-3.2272,-3.2554,0.0,-3.3361,-3.3406,-3.325,-3.3135,-3.3595,-3.4249,-3.4906,-3.561,-3.5802,-3.4988,-3.546,-3.5674,-3.5046,-3.5101,-3.5208,-3.5261,-3.6025,-3.6505,-3.6505,-3.7201,-3.7649,-3.772,-3.7702,-3.7793,-3.7989,-3.7989,-3.8025,-3.8079,-3.8079,-3.8905,-4.051,-4.0564,-4.0999,-4.1723,-4.1778,-4.2212,-4.29,-4.286,-4.2822,-4.2783,-4.2688,-4.2609,-4.2609,-4.2609,-4.2237,-4.1612,-4.08,-4.0003,-3.9188,-3.8479,-3.8225,-3.8352,-3.9061,-3.9351,-3.9677,-4.1016,-4.1504,-4.1647,-4.2271,-4.2429,-4.2127,-4.0762,-4.0274,-3.9966,-3.9265,-3.8941,-3.8617,-3.7864,-3.7649,-3.7631,-3.7631,-3.7503,-3.7392,-3.7297,-3.7203,-3.7069,-3.7009,-3.6987,-3.6948,-3.6725,-3.6702,-3.6602,-3.6343,-3.6301,-3.6301,-3.6301,-3.6301,-3.6301,-3.6301,-3.6301,-3.6301,-3.6301,-3.6301,-3.6301,-3.6301,-3.6301,-3.6301,-3.6301,-3.6301,-3.6301,-3.6301,-3.6301,-3.6301,-2.9625,-2.9587,-2.951,-2.9491,-2.9593,0.0,0.0,-3.2228,-3.271,-3.3441,-3.3433,-3.3364,-3.3553,-3.372,-3.407,-3.4712,-3.5046,-3.5094,-3.4754,-3.4953,-3.5081,-3.4924,-3.4978,-3.5031,-3.5132,-3.547,-3.5667,-3.5651,-3.59,-3.6078,-3.6078,-3.6559,-3.6862,-3.688,-3.7435,-3.7739,-3.7757,-3.7757,-3.8133,-3.8887,-3.9445,-3.9878,-4.0311,-4.127,-4.1849,-4.2137,-4.2605,-4.2745,-4.2649,-4.2609,-4.2609,-4.2609,-4.2609,-4.1875,-4.0835,-4.0546,-3.9661,-3.8608,-3.8301,-3.8192,-3.8319,-3.9046,-3.9607,-4.0203,-4.1175,-4.1841,-4.2253,-4.2519,-4.2588,-4.2422,-4.189,-4.1312,-4.0825,-4.0538,-3.9656,-3.8738,-3.8435,-3.797,-3.7577,-3.7577,-3.7484,-3.7334,-3.7297,-3.7126,-3.7048,-3.7009,-3.6987,-3.6908,-3.6742,-3.6702,-3.6602,-3.6343,-3.6301,-3.6301,-3.6301,-3.6301,-3.6301,-3.6301,-3.6301,-3.6301,-3.6301,-3.6301,-3.6301,-3.6301,-3.6301,-3.6301,-3.6301,-3.6301,-3.6301,-3.6301,-3.6301,-3.6301,-2.9775,-2.972,-2.9683,-2.9664,0.0,0.0,-3.0946,-3.1532,-3.2096,-3.3049,-3.3226,-3.3316,-3.3544,-3.3491,-3.3573,-3.3987,-3.4217,-3.425,-3.4018,-3.4197,-3.4358,-3.4235,-3.4252,-3.4355,-3.4416,-3.4712,-3.4855,-3.4775,-3.4988,-3.5096,-3.5081,-3.5581,-3.6006,-3.6291,-3.6861,-3.7345,-3.7685,-3.7667,-3.7721,-3.7846,-3.8456,-3.8923,-3.9353,-4.0384,-4.1105,-4.1573,-4.2093,-4.2433,-4.2588,-4.253,-4.249,-4.2494,-4.2243,-4.1584,-4.0615,-4.0185,-3.9372,-3.8484,-3.8264,-3.8174,-3.8303,-3.9247,-3.9932,-4.0526,-4.1456,-4.2139,-4.2548,-4.253,-4.2468,-4.2445,-4.249,-4.2038,-4.155,-4.13,-4.0149,-3.9093,-3.8861,-3.8165,-3.7577,-3.7577,-3.7447,-3.7297,-3.7297,-3.7143,-3.6987,-3.6987,-3.6987,-3.6948,-3.6766,-3.6684,-3.6602,-3.6343,-3.6301,-3.6301,-3.6301,-3.6301,-3.6301,-3.6301,-3.6301,-3.6301,-3.6301,-3.6301,-3.6301,-3.6301,-3.6301,-3.6301,-3.6301,-3.6301,-3.6301,-3.6301,-3.6301,-3.6301,-2.9888,-2.9893,-2.988,-2.981,0.0,0.0,-3.0456,-3.0388,-3.0636,-3.2172,-3.2806,-3.3037,-3.288,-3.2699,-3.255,-3.2504,-3.3017,-3.3247,-3.251,-3.316,-3.3389,-3.2595,-3.2674,-3.2823,-3.2823,-3.3588,-3.4028,-3.3898,-3.4625,-3.5057,-3.4995,-3.4978,-3.5368,-3.6238,-3.6291,-3.6701,-3.7577,-3.7577,-3.7649,-3.7703,-3.7703,-3.8169,-3.9085,-3.9103,-3.993,-4.1387,-4.1289,-4.1733,-4.2486,-4.2328,-4.2269,-4.2221,-4.1533,-4.1268,-4.1109,-3.9698,-3.9175,-3.9102,-3.8411,-3.8122,-3.8254,-3.986,-4.0328,-4.0486,-4.2042,-4.2503,-4.2463,-4.2346,-4.2287,-4.2287,-4.2287,-4.2287,-4.2091,-4.1306,-4.0503,-3.9718,-3.8986,-3.8165,-3.7577,-3.7577,-3.7447,-3.7297,-3.7297,-3.7143,-3.6987,-3.6987,-3.6987,-3.6948,-3.6829,-3.6725,-3.6602,-3.6343,-3.6301,-3.6301,-3.6301,-3.6301,-3.6301,-3.6301,-3.6301,-3.6301,-3.6301,-3.6301,-3.6301,-3.6301,-3.6301,-3.6301,-3.6301,-3.6301,-3.6301,-3.6301,-3.6301,-3.6318,-3.0113,-3.0083,-3.0041,-3.0026,-2.9893,-2.9793,0.0,-3.023,0.0,-3.1427,-3.161,-3.1549,-3.1267,-3.1159,-3.108,-3.0957,-3.1585,-3.202,-3.179,-3.2437,-3.2855,-3.2743,-3.269,-3.269,-3.2773,-3.2965,-3.3039,-3.2989,-3.3151,-3.3259,-3.3244,-3.3793,-3.42,-3.4464,-3.5651,-3.6416,-3.6683,-3.729,-3.7613,-3.7613,-3.7613,-3.7864,-3.8276,-3.8834,-3.9301,-3.9657,-4.0231,-4.053,-4.0667,-4.0628,-4.061,-4.0592,-4.0399,-4.0009,-3.9548,-3.9138,-3.8726,-3.8308,-3.8075,-3.7985,-3.8254,-3.9714,-4.0141,-4.0408,-4.1904,-4.2346,-4.2346,-4.2328,-4.2287,-4.2287,-4.2287,-4.2287,-4.2234,-4.1984,-4.0895,-3.986,-3.9629,-3.8522,-3.7577,-3.7577,-3.7466,-3.7354,-3.7297,-3.7164,-3.7031,-3.7027,-3.6987,-3.6948,-3.6766,-3.6643,-3.6502,-3.6301,-3.6301,-3.6301,-3.6301,-3.6301,-3.6301,-3.6301,-3.6301,-3.6301,-3.6301,-3.6301,-3.6301,-3.6301,-3.6301,-3.6301,-3.6301,-3.6301,-3.6301,-3.6318,-3.687,-3.7129,-3.0272,-3.024,-3.018,-3.0185,-3.0053,-2.9893,-2.9735,-3.0127,-3.0567,-3.0801,-3.0956,-3.0957,-3.0733,-3.0581,-3.0457,-3.0398,-3.0727,-3.1016,-3.1016,-3.1434,-3.1764,-3.1849,-3.2065,-3.2211,-3.2311,-3.2494,-3.2606,-3.2573,-3.2506,-3.2472,-3.2456,-3.2931,-3.3319,-3.3706,-3.4765,-3.5456,-3.5812,-3.6684,-3.713,-3.7113,-3.7434,-3.7667,-3.7811,-3.8277,-3.8635,-3.8883,-3.9669,-3.9953,-3.9914,-3.9914,-3.9914,-3.9878,-3.9593,-3.922,-3.8831,-3.8545,-3.8187,-3.788,-3.7899,-3.7881,-3.8115,-3.9639,-4.0065,-4.0331,-4.1864,-4.2287,-4.2287,-4.2287,-4.2287,-4.2287,-4.2287,-4.2287,-4.2287,-4.2287,-4.1074,-3.9914,-3.9914,-3.8683,-3.7577,-3.7577,-3.7503,-3.7392,-3.7297,-3.7203,-3.7069,-3.7009,-3.6987,-3.6948,-3.6766,-3.6643,-3.6544,-3.6402,-3.6343,-3.6301,-3.6301,-3.6301,-3.6301,-3.6301,-3.6301,-3.6301,-3.6301,-3.6301,-3.6301,-3.6301,-3.6301,-3.6301,-3.6301,-3.6301,-3.6456,-3.6784,-3.7267,-3.7646,-3.041,-3.0359,-3.0323,-3.0318,-3.0142,-2.9924,-2.9674,-2.9866,-3.0132,-3.0199,-3.0606,-3.0893,-3.0803,-3.052,-3.0306,-3.0306,-3.0258,-3.0222,-3.0225,-3.0332,-3.041,-3.0409,-3.1049,-3.1493,-3.1462,-3.2019,-3.2362,-3.2384,-3.2384,-3.2403,-3.2388,-3.2406,-3.2756,-3.3547,-3.3706,-3.42,-3.4977,-3.5829,-3.6328,-3.6399,-3.7131,-3.7523,-3.7577,-3.7577,-3.7987,-3.8736,-3.9414,-3.97,-3.97,-3.97,-3.97,-3.9629,-3.895,-3.8701,-3.8611,-3.7954,-3.7703,-3.7703,-3.781,-3.781,-3.7972,-3.9546,-4.0027,-4.0217,-4.1805,-4.2287,-4.2287,-4.2287,-4.2287,-4.2287,-4.2287,-4.2287,-4.2287,-4.2287,-4.1127,-4.0003,-3.9932,-3.8754,-3.7684,-3.7594,-3.7503,-3.7392,-3.7297,-3.7203,-3.7069,-3.7009,-3.6987,-3.6948,-3.6829,-3.6766,-3.6678,-3.6631,-3.6506,-3.6439,-3.6508,-3.6439,-3.6404,-3.6404,-3.6335,-3.6301,-3.6301,-3.6301,-3.6301,-3.6301,-3.6301,-3.6301,-3.6301,-3.637,-3.6784,-3.7491,-3.7629,-3.806,-3.0482,-3.0462,-3.0449,-3.0447,-2.98,-2.9117,-2.8947,-2.8395,-2.8185,-2.9304,-2.9517,-2.9465,-2.9246,-2.9101,-2.8971,-2.8874,-2.9314,-2.9663,-2.9687,-3.0158,-3.0453,-3.0404,-3.0521,-3.0552,-3.0508,-3.0571,-3.0891,-3.1438,-3.1474,-3.1755,-3.2371,-3.2406,-3.2476,-3.2669,-3.3406,-3.3898,-3.4056,-3.4993,-3.5775,-3.6399,-3.6577,-3.6988,-3.7577,-3.7577,-3.7684,-3.7862,-3.8023,-3.8076,-3.8076,-3.8076,-3.8076,-3.8076,-3.7916,-3.7844,-3.7826,-3.7684,-3.7631,-3.7703,-3.7649,-3.7685,-3.7972,-3.9435,-3.9914,-4.0217,-4.1805,-4.2287,-4.2287,-4.2287,-4.2287,-4.2287,-4.2287,-4.2287,-4.2287,-4.2287,-4.1538,-4.0681,-4.0057,-3.9182,-3.8362,-3.7702,-3.7594,-3.7503,-3.7334,-3.7259,-3.722,-3.7027,-3.6987,-3.6948,-3.6829,-3.6788,-3.6975,-3.7485,-3.7411,-3.7568,-3.8209,-3.762,-3.7232,-3.7232,-3.6646,-3.6301,-3.6301,-3.6301,-3.6301,-3.6301,-3.6301,-3.6301,-3.6301,-3.6922,-3.7318,-3.7508,-3.8681,-3.9364,-3.061,-3.0565,-3.0433,-2.9998,-2.9429,-2.8849,-2.8303,-2.774,-2.7528,-2.8147,-2.814,-2.7951,-2.7716,-2.7882,-2.8051,-2.7944,-2.8522,-2.8945,-2.8927,-2.9223,-2.941,-2.9301,-2.955,-2.9708,-2.9634,-2.991,-3.0264,-3.065,-3.0668,-3.0861,-3.1282,-3.1633,-3.1826,-3.1826,-3.2753,-3.3227,-3.3227,-3.4193,-3.4898,-3.5305,-3.6041,-3.6809,-3.7577,-3.7577,-3.7577,-3.7577,-3.7577,-3.7577,-3.7577,-3.7577,-3.7577,-3.7577,-3.7577,-3.7577,-3.7577,-3.7577,-3.7613,-3.7649,-3.7613,-3.7613,-3.79,-3.9397,-3.9914,-4.0217,-4.1805,-4.2287,-4.2287,-4.2287,-4.2287,-4.2287,-4.2287,-4.2287,-4.2287,-4.2287,-4.168,-4.0877,-4.0075,-3.9325,-3.8558,-3.7755,-3.7577,-3.7558,-3.7372,-3.7279,-3.7164,-3.7009,-3.6987,-3.697,-3.6891,-3.6829,-3.7068,-3.7836,-3.7781,-3.8009,-3.8825,-3.8469,-3.8027,-3.7663,-3.7247,-3.6849,-3.652,-3.6502,-3.6444,-3.6301,-3.6343,-3.6592,-3.6972,-3.7438,-3.801,-3.8755,-3.9534,-4.0134,-3.0723,-3.0664,-3.0385,-2.9458,-2.9061,-2.8659,-2.7656,-2.7254,-2.7034,-2.6865,-2.6839,-2.6801,-2.6643,-2.7021,-2.7349,-2.7423,-2.7871,-2.8254,-2.8309,-2.8317,-2.8253,-2.8099,-2.8563,-2.8865,-2.8775,-2.933,-2.9737,-2.9878,-2.9895,-2.9966,-3.0106,-3.0685,-3.1072,-3.1194,-3.1978,-3.2468,-3.2592,-3.3466,-3.3952,-3.4117,-3.5665,-3.6738,-3.738,-3.7523,-3.7577,-3.7577,-3.7577,-3.7577,-3.7577,-3.7577,-3.7577,-3.7577,-3.7577,-3.7577,-3.7577,-3.7577,-3.7577,-3.7577,-3.7577,-3.7577,-3.7844,-3.9414,-3.9914,-4.0217,-4.1805,-4.2287,-4.2287,-4.2287,-4.2287,-4.2287,-4.2287,-4.2287,-4.2287,-4.2287,-4.1787,-4.1092,-4.0289,-3.9521,-3.8772,-3.7951,-3.7684,-3.754,-3.7392,-3.7223,-3.7069,-3.7009,-3.6987,-3.6987,-3.6987,-3.7013,-3.7318,-3.8146,-3.8238,-3.8537,-3.9338,-3.9286,-3.892,-3.8258,-3.7962,-3.752,-3.6911,-3.6771,-3.6655,-3.6575,-3.6676,-3.7064,-3.7723,-3.8017,-3.8825,-4.0095,-4.0217,-4.0617,-3.0792,0.0,-3.0462,-2.9524,-2.8711,-2.7904,-2.6948,-2.6052,-2.5399,-2.5302,-2.6185,-2.6916,-2.6723,-2.6709,-2.6889,-2.7404,-2.7507,-2.7723,-2.8308,-2.8344,-2.8225,-2.8042,-2.8103,-2.8081,-2.7889,-2.7947,-2.8315,-2.9018,-2.907,-2.9369,-3.0071,-3.0194,-3.0545,-3.1177,-3.1381,-3.185,-3.2606,-3.2847,-3.3336,-3.413,-3.565,-3.6453,-3.6577,-3.7146,-3.7503,-3.7577,-3.7577,-3.7577,-3.7577,-3.7577,-3.7577,-3.7577,-3.7577,-3.7577,-3.7577,-3.7577,-3.7577,-3.7577,-3.7577,-3.7577,-3.7844,-3.9414,-3.9914,-4.0217,-4.1805,-4.2287,-4.2287,-4.2287,-4.2287,-4.2287,-4.2287,-4.2287,-4.2287,-4.2287,-4.2216,-4.1912,-4.1109,-4.0324,-3.9539,-3.879,-3.7984,-3.7392,-3.7334,-3.7185,-3.7069,-3.7009,-3.6987,-3.6987,-3.6987,-3.7549,-3.8211,-3.9035,-3.9633,-4.0246,-4.1014,-4.0366,-3.9904,-3.9782,-3.8529,-3.777,-3.7641,-3.7032,-3.698,-3.7565,-3.7624,-3.7676,-3.7781,-3.9138,-3.9886,-4.0113,-4.0756,-4.1168,-3.0808,-3.0784,-3.0431,-2.9039,-2.8371,-2.7691,-2.629,-2.5572,-2.5201,-2.513,-2.5489,-2.5775,-2.5558,-2.5782,-2.6046,-2.6242,-2.694,-2.7507,-2.7697,-2.8076,-2.8261,-2.8014,-2.8014,-2.794,-2.773,-2.7701,-2.7841,-2.8193,-2.8228,-2.8386,-2.8737,-2.9176,-2.9579,-2.9895,-3.0818,-3.1487,-3.1861,-3.2482,-3.3179,-3.4023,-3.4672,-3.5438,-3.6256,-3.6521,-3.6966,-3.7503,-3.7503,-3.7503,-3.7503,-3.7577,-3.7577,-3.7577,-3.7577,-3.7577,-3.7577,-3.7577,-3.7577,-3.7577,-3.7577,-3.7577,-3.7844,-3.9414,-3.9914,-4.0217,-4.1805,-4.2287,-4.2287,-4.2287,-4.2287,-4.2287,-4.2287,-4.2287,-4.2287,-4.2287,-4.2287,-4.2198,-4.1841,-4.1145,-4.0235,-3.904,-3.811,-3.7466,-3.7354,-3.7279,-3.7164,-3.7069,-3.7009,-3.6987,-3.6987,-3.7637,-3.8409,-3.9217,-3.9964,-4.0692,-4.1445,-4.1156,-4.0771,-4.0351,-3.9686,-3.8916,-3.8023,-3.807,-3.8111,-3.7988,-3.7906,-3.836,-3.9215,-3.9957,-4.0543,-4.0963,-4.1251,-4.1453,-3.0798,-3.0806,-3.0438,-2.89,-2.8324,-2.7738,-2.6204,-2.56,-2.5322,-2.5233,-2.508,-2.4902,-2.4707,-2.4981,-2.5244,-2.5305,-2.6227,-2.7001,-2.7209,-2.7736,-2.8073,-2.8025,-2.8014,-2.794,-2.7777,-2.773,-2.7701,-2.7701,-2.7701,-2.7701,-2.7701,-2.8263,-2.8684,-2.8895,-3.0064,-3.0894,-3.1288,-3.2274,-3.3022,-3.3583,-3.3786,-3.4446,-3.5509,-3.5703,-3.6235,-3.7071,-3.7266,-3.7392,-3.7429,-3.7503,-3.7577,-3.7577,-3.7577,-3.7577,-3.7577,-3.7577,-3.7577,-3.7577,-3.7577,-3.7577,-3.7809,-3.9182,-3.9753,-4.0164,-4.1573,-4.2126,-4.2287,-4.2287,-4.2287,-4.2287,-4.2287,-4.2287,-4.2287,-4.2287,-4.2287,-4.2234,-4.2037,-4.152,-4.0646,-3.9111,-3.8326,-3.779,-3.7465,-3.7354,-3.7279,-3.7108,-3.7048,-3.7079,-3.7251,-3.7935,-3.8725,-3.9533,-4.0305,-4.099,-4.1552,-4.1604,-4.1358,-4.0797,-4.0586,-3.9937,-3.876,-3.9094,-3.9111,-3.8725,-3.8643,-3.9178,-4.0351,-4.063,-4.106,-4.1604,-4.1604,-4.1604,-3.0799,-3.0794,-3.0586,-2.9655,-2.8816,-2.795,-2.7034,-2.6133,-2.5444,-2.5311,-2.5243,-2.513,-2.4926,-2.4645,-2.4671,-2.5277,-2.5346,-2.5768,-2.7103,-2.729,-2.7457,-2.8027,-2.8042,-2.7957,-2.7888,-2.7777,-2.7701,-2.7701,-2.7701,-2.7701,-2.7701,-2.7736,-2.8105,-2.8877,-2.8983,-2.9751,-3.1291,-3.2183,-3.2623,-3.2692,-3.3454,-3.3861,-3.395,-3.4588,-3.531,-3.6103,-3.6958,-3.7334,-3.7392,-3.7429,-3.7503,-3.7577,-3.7577,-3.7577,-3.7577,-3.7577,-3.7577,-3.7577,-3.7577,-3.7577,-3.7719,-3.8594,-3.9343,-4.0075,-4.0913,-4.1698,-4.2287,-4.2287,-4.2287,-4.2287,-4.2287,-4.2287,-4.2287,-4.2287,-4.2287,-4.2073,-4.1324,-4.1127,-4.0646,-3.9111,-3.8772,-3.8449,-3.7554,-3.7392,-3.7337,-3.7147,-3.7108,-3.7334,-3.7953,-3.8743,-3.955,-4.034,-4.1095,-4.1569,-4.1604,-4.1604,-4.1587,-4.1552,-4.0884,-4.0446,-4.0401,-3.9691,-3.9638,-4.034,-4.0358,-4.0393,-4.0481,-4.12,-4.1569,-4.1604,-4.1604,-4.1604,-3.0855,-3.0829,-3.0609,-2.9776,-2.9292,-2.8809,-2.7932,-2.7045,-2.637,-2.628,-2.5723,-2.5224,-2.5099,-2.4771,-2.4569,-2.4691,-2.5021,-2.5417,-2.5764,-2.6168,-2.6676,-2.7317,-2.7334,-2.7493,-2.7904,-2.7911,-2.7893,-2.7893,-2.7893,-2.7893,-2.7893,-2.7853,-2.7965,-2.8264,-2.8679,-2.9671,-3.1269,-3.2121,-3.2558,-3.2526,-3.2841,-3.3194,-3.36,-3.3846,-3.4409,-3.5201,-3.552,-3.6264,-3.7334,-3.7392,-3.7466,-3.7577,-3.7577,-3.7577,-3.7577,-3.7577,-3.7577,-3.7577,-3.7577,-3.7577,-3.7719,-3.854,-3.9307,-4.0057,-4.086,-4.1645,-4.2287,-4.2287,-4.2287,-4.2287,-4.2287,-4.2287,-4.2287,-4.2287,-4.2287,-4.2216,-4.193,-4.1448,-4.0949,-4.0378,-3.986,-3.9233,-3.8429,-3.8231,-3.796,-3.7388,-3.7704,-3.8051,-3.8214,-3.9335,-4.0232,-4.0489,-4.1148,-4.1604,-4.1604,-4.1604,-4.1604,-4.1604,-4.1341,-4.099,-4.0498,-4.0674,-4.0691,-4.0481,-4.0955,-4.12,-4.12,-4.1464,-4.1604,-4.1604,-4.1604,-4.1604,-3.0976,-3.0879,-3.07,-3.0171,-2.9771,-2.9372,-2.8808,-2.7992,-2.7355,-2.7287,-2.6481,-2.5762,-2.5657,-2.5165,-2.4682,-2.4444,-2.4709,-2.4961,-2.5078,-2.5438,-2.5918,-2.6627,-2.6595,-2.6712,-2.7201,-2.7493,-2.7607,-2.7607,-2.7855,-2.8014,-2.8014,-2.7975,-2.7917,-2.7888,-2.8539,-2.9534,-3.0886,-3.1651,-3.2193,-3.2458,-3.2474,-3.2703,-3.3125,-3.3125,-3.3547,-3.4284,-3.4284,-3.5273,-3.6889,-3.6964,-3.7217,-3.7577,-3.7577,-3.7577,-3.7577,-3.7577,-3.7577,-3.7577,-3.7577,-3.7577,-3.7684,-3.8219,-3.9093,-4.0003,-4.0538,-4.1448,-4.2287,-4.2287,-4.2287,-4.2287,-4.2287,-4.2328,-4.2387,-4.2409,-4.2409,-4.2409,-4.2387,-4.1917,-4.1413,-4.1145,-4.0681,-4.0075,-3.9307,-3.9088,-3.8854,-3.83,-3.8635,-3.9,-3.9128,-4.0023,-4.0722,-4.0918,-4.1393,-4.1648,-4.1604,-4.1604,-4.1604,-4.1604,-4.1604,-4.1376,-4.0884,-4.1341,-4.1358,-4.0867,-4.1341,-4.1604,-4.1604,-4.1604,-4.1604,-4.1604,-4.1604,-4.1604,0.0,0.0,0.0,-3.0896,-3.0254,-2.9647,-2.9644,-2.8955,-2.8315,-2.8248,-2.7487,-2.6772,-2.6554,-2.577,-2.5019,-2.4666,-2.4393,-2.4465,-2.5173,-2.5092,-2.5249,-2.5979,-2.5906,-2.5783,-2.58,-2.6384,-2.6764,-2.6764,-2.7518,-2.7961,-2.7961,-2.7996,-2.7957,-2.7888,-2.8539,-2.9299,-3.0106,-3.0826,-3.1598,-3.2388,-3.2388,-3.2388,-3.2388,-3.2388,-3.2774,-3.3441,-3.3459,-3.4464,-3.6022,-3.604,-3.6683,-3.7541,-3.7541,-3.7559,-3.7577,-3.7577,-3.7577,-3.7577,-3.7577,-3.7577,-3.7577,-3.7577,-3.8647,-3.9914,-3.9914,-4.102,-4.2287,-4.2287,-4.2287,-4.2287,-4.2287,-4.2387,-4.2544,-4.257,-4.2609,-4.257,-4.2544,-4.2387,-4.2055,-4.1288,-4.1145,-4.0877,-4.0075,-3.995,-3.9911,-3.9832,-3.9811,-4.0055,-4.0737,-4.0801,-4.1078,-4.1753,-4.1797,-4.1736,-4.1604,-4.1604,-4.1604,-4.1604,-4.1604,-4.1604,-4.1604,-4.1604,-4.1604,-4.1604,-4.1604,-4.1604,-4.1604,-4.1604,-4.1604,-4.1604,-4.1604,-4.1604,-3.2001,0.0,0.0,0.0,0.0,0.0,-3.0546,-2.9862,-2.921,-2.916,-2.8423,-2.7579,-2.6849,-2.6399,-2.5855,-2.5095,-2.4651,-2.4467,-2.4635,-2.4483,-2.4636,-2.535,-2.5285,-2.5386,-2.5961,-2.6139,-2.6233,-2.6233,-2.6915,-2.7361,-2.7361,-2.7779,-2.7957,-2.7888,-2.8539,-2.9299,-3.0106,-3.0826,-3.1564,-3.2267,-3.2267,-3.2232,-3.2196,-3.2232,-3.2372,-3.2564,-3.2652,-3.3336,-3.4412,-3.5049,-3.5829,-3.6666,-3.6702,-3.7077,-3.7577,-3.7577,-3.7577,-3.7577,-3.7577,-3.7577,-3.7577,-3.7577,-3.8647,-3.9914,-3.9914,-4.102,-4.2287,-4.2287,-4.2287,-4.2328,-4.2405,-4.2526,-4.2588,-4.2609,-4.2609,-4.2609,-4.2588,-4.253,-4.2418,-4.2042,-4.1966,-4.1698,-4.0913,-4.077,-4.0574,-3.9964,-4.0374,-4.0798,-4.0925,-4.1422,-4.1789,-4.1927,-4.1945,-4.1945,-4.1902,-4.1797,-4.1736,-4.1736,-4.1648,-4.1604,-4.1604,-4.1604,-4.1604,-4.1604,-4.1604,-4.1604,-4.1604,-4.1604,-4.1604,-4.1604,-4.1604,-4.1604,-3.2872,-3.2641,-3.2528,-3.2001,0.0,0.0,-3.1397,-3.0741,-3.0115,-3.0051,-2.935,-2.8459,-2.7546,-2.6965,-2.6331,-2.5379,-2.4968,-2.4712,-2.4495,-2.4321,-2.4504,-2.5252,-2.5157,-2.5208,-2.5683,-2.5935,-2.5937,-2.5571,-2.6548,-2.7312,-2.7583,-2.786,-2.7986,-2.7929,-2.8235,-2.8789,-2.9565,-3.0302,-3.0989,-3.1655,-3.2004,-3.2144,-3.2108,-3.2143,-3.2161,-3.2214,-3.2267,-3.2634,-3.3195,-3.3758,-3.4677,-3.583,-3.6221,-3.6649,-3.7131,-3.747,-3.7577,-3.7577,-3.7577,-3.7577,-3.7577,-3.7577,-3.8433,-3.9504,-3.9825,-4.0788,-4.1859,-4.2198,-4.2346,-4.2387,-4.2508,-4.2627,-4.2688,-4.2709,-4.2709,-4.2727,-4.2688,-4.2688,-4.2609,-4.2427,-4.2387,-4.2203,-4.168,-4.1591,-4.1431,-4.0967,-4.1306,-4.1609,-4.1546,-4.1937,-4.2163,-4.2055,-4.2055,-4.203,-4.2005,-4.1945,-4.1884,-4.1884,-4.1797,-4.1754,-4.1754,-4.1754,-4.1754,-4.1692,-4.1692,-4.1648,-4.1604,-4.1604,-4.1604,-4.1604,-4.1604,-4.1604,-3.3778,-3.3544,-3.3524,-3.3427,-3.2817,0.0,-3.2129,-3.1556,-3.0996,-3.0838,-3.0187,-2.9389,-2.8517,-2.7662,-2.6786,-2.5854,-2.5601,-2.5294,-2.4734,-2.4605,-2.4819,-2.5467,-2.5458,-2.5369,-2.5372,-2.5899,-2.5914,-2.5141,-2.6471,-2.7605,-2.8246,-2.8109,-2.8014,-2.8014,-2.7806,-2.8057,-2.8802,-2.9522,-3.0208,-3.0907,-3.1708,-3.2091,-3.209,-3.2089,-3.2125,-3.2179,-3.2179,-3.2267,-3.2388,-3.2439,-3.3457,-3.5048,-3.5741,-3.6132,-3.6363,-3.7166,-3.7452,-3.747,-3.7559,-3.7577,-3.7577,-3.7577,-3.813,-3.8933,-3.9593,-4.0342,-4.1127,-4.193,-4.2315,-4.2526,-4.257,-4.2706,-4.2822,-4.29,-4.2882,-4.29,-4.2804,-4.2822,-4.2763,-4.2584,-4.2503,-4.2463,-4.2346,-4.2287,-4.2287,-4.2287,-4.2287,-4.2287,-4.2287,-4.2287,-4.2246,-4.2145,-4.2103,-4.2079,-4.2048,-4.2005,-4.2005,-4.2005,-4.2005,-4.2005,-4.2005,-4.2005,-4.1945,-4.1823,-4.1841,-4.1736,-4.1648,-4.1604,-4.1604,-4.1604,-4.1604,-4.1604,-3.4608,-3.4404,-3.4272,-3.3589,-3.3271,0.0,-3.2254,-3.1973,-3.167,-3.1014,-3.0701,-3.0281,-2.9408,-2.905,-2.8598,-2.7724,-2.7456,-2.6802,-2.5152,-2.537,-2.5721,-2.5811,-2.6228,-2.6482,-2.6499,-2.6465,-2.6377,-2.6191,-2.6879,-2.7587,-2.8246,-2.8109,-2.8014,-2.8014,-2.7766,-2.8014,-2.8802,-2.9475,-3.0142,-3.082,-3.1583,-3.1912,-3.1873,-3.1929,-3.1948,-3.1984,-3.2144,-3.2214,-3.2267,-3.2388,-3.3054,-3.4091,-3.4285,-3.4798,-3.5543,-3.6328,-3.6631,-3.672,-3.7362,-3.7577,-3.7577,-3.7577,-3.813,-3.8843,-3.8986,-3.9557,-4.0307,-4.1109,-4.1966,-4.257,-4.2609,-4.2747,-4.29,-4.29,-4.2882,-4.29,-4.29,-4.2862,-4.2862,-4.2745,-4.2606,-4.2503,-4.2463,-4.2387,-4.2287,-4.2287,-4.2287,-4.2287,-4.2287,-4.2287,-4.2287,-4.2287,-4.2246,-4.2246,-4.2246,-4.2121,-4.2079,-4.2079,-4.203,-4.2005,-4.2005,-4.2005,-4.2005,-4.1945,-4.1945,-4.1945,-4.1902,-4.171,-4.1604,-4.1604,-4.1604,-4.1604,-3.5371,-3.5265,-3.5198,-3.4769,-3.4345,0.0,0.0,-3.2723,-3.1995,-3.1571,-3.1152,-3.0582,-2.9716,-2.95,-2.9152,-2.8285,-2.8061,-2.7638,-2.665,-2.6632,-2.6881,-2.7213,-2.7436,-2.755,-2.7549,-2.7409,-2.7245,-2.7116,-2.7235,-2.7637,-2.8317,-2.8154,-2.8025,-2.8014,-2.7736,-2.7779,-2.8163,-2.9186,-2.985,-3.0162,-3.1303,-3.1819,-3.18,-3.1819,-3.1856,-3.1927,-3.2001,-3.2108,-3.2214,-3.2267,-3.2633,-3.3209,-3.3667,-3.4159,-3.4707,-3.5918,-3.6399,-3.6524,-3.7309,-3.7577,-3.7577,-3.7577,-3.7862,-3.8272,-3.8683,-3.9611,-4.0592,-4.0985,-4.1823,-4.2609,-4.2609,-4.2747,-4.2882,-4.2882,-4.2882,-4.2882,-4.2882,-4.2882,-4.29,-4.288,-4.2745,-4.2624,-4.2503,-4.2445,-4.2387,-4.2328,-4.2287,-4.2287,-4.2287,-4.2287,-4.2287,-4.2287,-4.2287,-4.2287,-4.2287,-4.2246,-4.2205,-4.2205,-4.2181,-4.2139,-4.2139,-4.2139,-4.2097,-4.2055,-4.203,-4.2005,-4.2005,-4.1858,-4.1797,-4.1797,-4.1736,-4.1692,-3.5905,-3.5897,-3.5908,-3.5908,-3.5407,-3.4891,0.0,0.0,0.0,-3.2168,-3.1577,-3.0879,-3.0017,-2.9793,-2.9523,-2.8825,-2.8646,-2.8573,-2.8536,-2.8247,-2.8215,-2.8613,-2.8623,-2.8595,-2.8559,-2.8404,-2.8218,-2.7976,-2.7773,-2.7875,-2.8396,-2.8237,-2.8071,-2.8014,-2.7736,-2.7557,-2.7496,-2.888,-2.954,-2.9506,-3.1022,-3.1746,-3.1746,-3.1763,-3.178,-3.1817,-3.1856,-3.1984,-3.2144,-3.2179,-3.2284,-3.2526,-3.3246,-3.3596,-3.3875,-3.5366,-3.6042,-3.6274,-3.7077,-3.7452,-3.7577,-3.7577,-3.7577,-3.7702,-3.838,-3.9646,-4.0877,-4.0877,-4.1715,-4.2609,-4.2609,-4.2747,-4.2882,-4.2882,-4.2882,-4.2882,-4.2882,-4.2882,-4.2882,-4.2882,-4.288,-4.2745,-4.2566,-4.2503,-4.2445,-4.2328,-4.2287,-4.2287,-4.2287,-4.2287,-4.2287,-4.2287,-4.2287,-4.2287,-4.2287,-4.2287,-4.2287,-4.2287,-4.2287,-4.2287,-4.2287,-4.2287,-4.2246,-4.2145,-4.2115,-4.2048,-4.2048,-4.2048,-4.2048,-4.2005,-4.1902,-4.1841,-3.5879,-3.5911,-3.5891,-3.5908,-3.583,-3.5582,-3.4871,0.0,-3.3965,-3.2419,0.0,-3.1717,-3.0898,0.0,0.0,-3.0523,-3.0447,-3.0392,-3.0379,-3.0266,-2.985,-2.8976,-2.9361,-2.967,-2.9549,-2.9304,-2.9077,-2.887,-2.873,-2.8597,-2.8492,-2.8246,-2.8071,-2.8014,-2.7677,-2.7496,-2.7496,-2.8847,-2.9489,-2.9437,-3.0913,-3.1579,-3.1507,-3.1521,-3.1579,-3.1642,-3.1765,-3.1856,-3.1948,-3.2144,-3.2214,-3.2267,-3.2527,-3.2765,-3.3022,-3.3875,-3.469,-3.5453,-3.6256,-3.6988,-3.7577,-3.7577,-3.7577,-3.7612,-3.7702,-3.8808,-4.0057,-4.0057,-4.1286,-4.2609,-4.2609,-4.2747,-4.2882,-4.2882,-4.2882,-4.2882,-4.2882,-4.2882,-4.2882,-4.2882,-4.2882,-4.2824,-4.2609,-4.2526,-4.2445,-4.2328,-4.2287,-4.2287,-4.2287,-4.2287,-4.2287,-4.2287,-4.2287,-4.2287,-4.2287,-4.2287,-4.2287,-4.2287,-4.2287,-4.2287,-4.2287,-4.2287,-4.2287,-4.2287,-4.2246,-4.2264,-4.2264,-4.2264,-4.2181,-4.2005,-4.2005,-4.2005,-3.5885,-3.5905,-3.5903,-3.5908,-3.5908,-3.5811,-3.5466,-3.5037,-3.4488,-3.3754,0.0,0.0,0.0,0.0,0.0,0.0,-3.0774,-3.074,-3.0714,-3.0618,-3.0366,-2.9824,-2.9956,-2.9988,-2.9716,-2.9532,-2.933,-2.9134,-2.8952,-2.8743,-2.8518,-2.83,-2.8109,-2.7996,-2.7677,-2.7705,-2.814,-2.9022,-2.9644,-3.0036,-3.1062,-3.1538,-3.15,-3.1517,-3.1538,-3.1582,-3.1654,-3.1765,-3.1894,-3.2073,-3.2144,-3.2214,-3.2371,-3.2507,-3.273,-3.361,-3.4426,-3.5277,-3.6131,-3.6916,-3.7577,-3.7577,-3.7577,-3.7577,-3.7577,-3.8683,-3.9914,-3.9914,-4.1193,-4.2566,-4.257,-4.2727,-4.2842,-4.29,-4.2882,-4.2882,-4.2882,-4.2882,-4.2882,-4.2882,-4.2882,-4.2862,-4.2727,-4.2627,-4.2526,-4.2445,-4.2346,-4.2287,-4.2287,-4.2287,-4.2287,-4.2287,-4.2287,-4.2287,-4.2287,-4.2287,-4.2287,-4.2287,-4.2287,-4.2287,-4.2287,-4.2287,-4.2287,-4.2287,-4.2287,-4.2287,-4.2287,-4.2287,-4.2264,-4.2181,-4.2097,-4.2055,-3.5905,-3.5905,-3.5903,-3.5908,-3.5908,-3.5908,-3.5908,-3.5461,-3.4991,-3.4757,-3.4206,0.0,0.0,0.0,-3.2242,-3.1624,0.0,-3.1414,-3.1125,-3.1028,-3.0851,-3.0477,-3.0292,-3.0079,-2.9787,-2.9626,-2.9472,-2.9286,-2.9089,-2.8881,-2.8612,-2.8362,-2.8281,-2.8344,-2.8005,-2.8157,-2.8923,-2.9472,-3.0003,-3.0463,-3.1158,-3.1479,-3.1436,-3.1402,-3.1462,-3.1559,-3.1559,-3.1691,-3.1875,-3.2001,-3.2108,-3.2179,-3.2301,-3.2388,-3.2544,-3.3261,-3.4196,-3.5172,-3.5812,-3.6738,-3.7577,-3.7577,-3.7577,-3.763,-3.7844,-3.8843,-3.9968,-4.0182,-4.1332,-4.2503,-4.257,-4.2706,-4.2822,-4.29,-4.2882,-4.2882,-4.2882,-4.2882,-4.2882,-4.2882,-4.2882,-4.29,-4.286,-4.2727,-4.2627,-4.2503,-4.2405,-4.2346,-4.2287,-4.2287,-4.2287,-4.2287,-4.2287,-4.2287,-4.2287,-4.2287,-4.2287,-4.2287,-4.2287,-4.2287,-4.2287,-4.2287,-4.2287,-4.2287,-4.2287,-4.2287,-4.2287,-4.2287,-4.2287,-4.2287,-4.2205,-4.2145,-3.5879,-3.5905,-3.5891,-3.5908,-3.5908,-3.5908,-3.5908,-3.5929,-3.5713,-3.4874,-3.4674,-3.4396,-3.351,-3.3358,-3.3359,-3.3322,-3.3319,0.0,0.0,-3.2007,-3.1585,-3.0607,-3.0316,-3.0128,-2.9905,-2.977,-2.9608,-2.9412,-2.9265,-2.9067,-2.881,-2.8536,-2.8613,-2.9154,-2.8825,-2.9022,-2.9758,-3.037,-3.0554,-3.0387,-3.1158,-3.1402,-3.119,-3.119,-3.1329,-3.1507,-3.1483,-3.1614,-3.18,-3.1875,-3.1984,-3.2108,-3.2179,-3.2267,-3.2388,-3.2508,-3.3632,-3.5101,-3.5119,-3.6221,-3.7577,-3.7577,-3.7577,-3.7737,-3.854,-3.9307,-4.0075,-4.0842,-4.1761,-4.2503,-4.257,-4.2706,-4.2822,-4.29,-4.2882,-4.2882,-4.2882,-4.2882,-4.2882,-4.2882,-4.2882,-4.2882,-4.29,-4.2842,-4.2724,-4.2544,-4.2503,-4.2463,-4.2328,-4.2287,-4.2287,-4.2287,-4.2287,-4.2287,-4.2287,-4.2287,-4.2287,-4.2287,-4.2287,-4.2287,-4.2287,-4.2287,-4.2287,-4.2287,-4.2287,-4.2287,-4.2287,-4.2287,-4.2287,-4.2287,-4.2287,-4.2287,-3.5885,-3.5897,-3.5903,-3.5908,-3.5908,-3.5894,-3.5899,-3.5953,-3.5927,-3.5623,-3.5555,-3.5291,-3.4417,-3.4255,-3.4062,-3.3488,-3.3402,-3.3295,0.0,-3.2892,-3.2698,-3.227,-3.203,-3.1857,-3.1708,-3.1047,-3.0528,-3.0277,-3.0086,-2.9876,-2.9594,-2.9845,-2.9994,-2.9982,-2.9775,-2.9907,-3.0541,-3.0647,-3.0866,-3.1199,-3.138,-3.1479,-3.1402,-3.1402,-3.1445,-3.1579,-3.1559,-3.1651,-3.18,-3.1965,-3.2073,-3.2108,-3.2267,-3.2354,-3.2406,-3.2473,-3.3564,-3.519,-3.6364,-3.7148,-3.7577,-3.7577,-3.7577,-3.7737,-3.8558,-3.9325,-4.0075,-4.0877,-4.1721,-4.2387,-4.257,-4.2649,-4.2727,-4.2862,-4.2882,-4.2882,-4.2882,-4.2882,-4.2882,-4.2882,-4.2882,-4.2882,-4.2882,-4.2862,-4.2842,-4.2724,-4.2584,-4.2503,-4.2445,-4.2346,-4.2287,-4.2287,-4.2287,-4.2287,-4.2287,-4.2287,-4.2287,-4.2287,-4.2287,-4.2287,-4.2287,-4.2287,-4.2287,-4.2287,-4.2287,-4.2287,-4.2287,-4.2287,-4.2287,-4.2287,-4.2287,-4.2287,-3.5891,-3.5903,-3.5908,-3.5908,-3.5894,-3.5899,-3.5909,-3.5942,-3.5994,-3.5997,-3.6007,-3.5837,-3.5276,-3.5169,-3.498,-3.4411,-3.4322,-3.4209,0.0,-3.3776,-3.3682,-3.3568,-3.3149,-3.2812,-3.2672,-3.2055,-3.1523,-3.1297,-3.107,-3.0845,-3.0589,-3.0802,-3.0926,-3.0933,-3.0694,-3.0826,-3.1446,-3.1237,-3.13,-3.1671,-3.1576,-3.15,-3.1517,-3.1479,-3.1555,-3.1617,-3.1596,-3.1709,-3.1856,-3.2001,-3.2073,-3.2144,-3.2267,-3.2354,-3.2406,-3.2457,-3.3529,-3.5244,-3.7023,-3.7577,-3.7577,-3.7577,-3.7577,-3.7791,-3.8879,-3.9539,-4.0146,-4.1217,-4.1895,-4.2328,-4.257,-4.2609,-4.2631,-4.2844,-4.2882,-4.2882,-4.2882,-4.2882,-4.2882,-4.2882,-4.2882,-4.2882,-4.2882,-4.2882,-4.2862,-4.2822,-4.2685,-4.2584,-4.2503,-4.2445,-4.2346,-4.2287,-4.2287,-4.2287,-4.2287,-4.2287,-4.2287,-4.2287,-4.2287,-4.2287,-4.2287,-4.2287,-4.2287,-4.2287,-4.2287,-4.2287,-4.2287,-4.2287,-4.2287,-4.2287,-4.2287,-4.2287]}]]